[[{"header":{"parameterUnit":"m.s-1","parameterCategory":1,"la1":31.0,"la2":29.5877,"lo1":-88.7671,"lo2":-86.6584,"dy":0.0162,"dx":0.0185,"nx":115,"ny":88,"refTime":"2024-06-17T06:00:00:Z","depth":0,"parameterNumber":2,"parameterNumberName":"U-component_of_WINDS"},"data":[0.0,0.0,0.0,0.0,0.0,0.0,0.0,0.0,0.0,0.0,0.0,0.0,0.0,0.0,0.0,0.0,0.0,0.0,0.0,0.0,0.0,0.0,0.0,0.0,0.0,0.0,0.0,0.0,0.0,0.0,0.0,0.0,0.0,0.0,0.0,0.0,0.0,0.0,0.0,0.0,0.0,0.0,0.0,0.0,0.0,0.0,0.0,0.0,0.0,0.0,0.0,0.0,0.0,0.0,0.0,0.0,0.0,0.0,0.0,0.0,0.0,0.0,0.0,0.0,0.0,0.0,0.0,0.0,0.0,0.0,0.0,0.0,0.0,0.0,0.0,0.0,0.0,0.0,0.0,0.0,0.0,0.0,0.0,0.0,0.0,0.0,0.0,0.0,0.0,0.0,0.0,0.0,0.0,0.0,0.0,0.0,0.0,0.0,0.0,0.0,0.0,0.0,0.0,0.0,0.0,0.0,0.0,0.0,0.0,0.0,0.0,0.0,0.0,0.0,0.0,0.0,0.0,0.0,0.0,0.0,0.0,0.0,0.0,0.0,0.0,0.0,0.0,0.0,0.0,0.0,0.0,0.0,0.0,0.0,0.0,0.0,0.0,0.0,0.0,0.0,0.0,0.0,0.0,0.0,0.0,0.0,0.0,0.0,0.0,0.0,0.0,0.0,0.0,0.0,0.0,0.0,0.0,0.0,0.0,0.0,0.0,0.0,0.0,0.0,0.0,0.0,0.0,0.0,0.0,0.0,0.0,0.0,0.0,0.0,0.0,0.0,0.0,0.0,0.0,0.0,0.0,0.0,0.0,0.0,0.0,0.0,0.0,0.0,0.0,0.0,0.0,0.0,0.0,0.0,0.0,0.0,0.0,0.0,0.0,0.0,0.0,0.0,0.0,0.0,0.0,0.0,0.0,0.0,0.0,0.0,0.0,0.0,0.0,0.0,0.0,0.0,0.0,0.0,0.0,0.0,0.0,0.0,0.0,0.0,0.0,0.0,0.0,0.0,0.0,0.0,0.0,0.0,0.0,0.0,0.0,0.0,0.0,0.0,0.0,0.0,0.0,0.0,0.0,0.0,0.0,0.0,0.0,0.0,0.0,0.0,0.0,0.0,0.0,0.0,0.0,0.0,0.0,0.0,0.0,0.0,0.0,0.0,0.0,0.0,0.0,0.0,0.0,0.0,0.0,0.0,0.0,0.0,0.0,0.0,0.0,0.0,0.0,0.0,0.0,0.0,0.0,0.0,0.0,0.0,0.0,0.0,0.0,0.0,0.0,0.0,0.0,0.0,0.0,0.0,0.0,0.0,0.0,0.0,0.0,0.0,0.0,0.0,0.0,0.0,0.0,0.0,0.0,0.0,0.0,0.0,0.0,0.0,0.0,0.0,0.0,0.0,0.0,0.0,0.0,0.0,0.0,0.0,0.0,0.0,0.0,0.0,0.0,0.0,0.0,0.0,0.0,0.0,0.0,0.0,0.0,0.0,0.0,0.0,0.0,0.0,0.0,0.0,0.0,0.0,0.0,0.0,0.0,0.0,0.0,0.0,0.0,0.0,0.0,0.0,0.0,0.0,0.0,0.0,0.0,0.0,0.0,0.0,0.0,0.0,0.0,0.0,0.0,0.0,0.0,0.0,0.0,0.0,0.0,0.0,0.0,0.0,0.0,0.0,0.0,0.0,0.0,0.0,0.0,0.0,0.0,0.0,0.0,0.0,0.0,0.0,0.0,0.0,0.0,0.0,0.0,0.0,0.0,0.0,0.0,0.0,0.0,0.0,0.0,0.0,0.0,0.0,0.0,0.0,0.0,0.0,0.0,0.0,0.0,0.0,0.0,0.0,0.0,0.0,0.0,0.0,0.0,0.0,0.0,0.0,0.0,0.0,0.0,0.0,0.0,0.0,0.0,0.0,0.0,0.0,0.0,0.0,0.0,0.0,0.0,0.0,0.0,0.0,0.0,0.0,0.0,0.0,0.0,0.0,0.0,0.0,0.0,0.0,0.0,0.0,0.0,0.0,0.0,0.0,0.0,0.0,0.0,0.0,0.0,0.0,0.0,0.0,0.0,0.0,0.0,0.0,0.0,0.0,0.0,0.0,0.0,0.0,0.0,0.0,0.0,0.0,0.0,0.0,0.0,0.0,0.0,0.0,0.0,0.0,0.0,0.0,0.0,0.0,0.0,0.0,0.0,0.0,0.0,0.0,0.0,0.0,0.0,0.0,0.0,0.0,0.0,0.0,0.0,0.0,0.0,0.0,0.0,0.0,0.0,0.0,0.0,0.0,0.0,0.0,0.0,0.0,0.0,0.0,0.0,0.0,0.0,0.0,0.0,0.0,0.0,0.0,0.0,0.0,0.0,0.0,0.0,0.0,0.0,0.0,0.0,0.0,0.0,0.0,0.0,0.0,0.0,0.0,0.0,0.0,0.0,0.0,0.0,0.0,0.0,0.0,0.0,0.0,0.0,0.0,0.0,0.0,0.0,0.0,0.0,0.0,0.0,0.0,0.0,0.0,0.0,0.0,0.0,0.0,0.0,0.0,0.0,0.0,0.0,0.0,0.0,0.0,0.0,0.0,0.0,0.0,0.0,0.0,0.0,0.0,0.0,0.0,0.0,0.0,0.0,0.0,0.0,0.0,0.0,0.0,0.0,0.0,0.0,0.0,0.0,0.0,0.0,0.0,0.0,0.0,0.0,0.0,0.0,0.0,0.0,0.0,0.0,0.0,0.0,0.0,0.0,0.0,0.0,0.0,0.0,0.0,0.0,0.0,0.0,0.0,0.0,0.0,0.0,0.0,0.0,0.0,0.0,0.0,0.0,0.0,0.0,0.0,0.0,0.0,0.0,0.0,0.0,0.0,0.0,0.0,0.0,0.0,0.0,0.0,0.0,0.0,0.0,0.0,0.0,0.0,0.0,0.0,0.0,0.0,0.0,0.0,0.0,0.0,0.0,0.0,0.0,0.0,0.0,0.0,0.0,0.0,0.0,0.0,0.0,0.0,0.0,0.0,0.0,0.0,0.0,0.0,0.0,0.0,0.0,0.0,0.0,0.0,0.0,0.0,0.0,0.0,0.0,0.0,0.0,0.0,0.0,0.0,0.0,0.0,0.0,0.0,0.0,0.0,0.0,0.0,0.0,0.0,0.0,0.0,0.0,0.0,0.0,0.0,0.0,0.0,0.0,0.0,0.0,0.0,0.0,0.0,0.0,0.0,0.0,0.0,0.0,0.0,0.0,0.0,0.0,0.0,0.0,0.0,0.0,0.0,0.0,0.0,0.0,0.0,0.0,0.0,0.0,0.0,0.0,0.0,0.0,0.0,0.0,0.0,0.0,0.0,0.0,0.0,0.0,0.0,0.0,0.0,0.0,0.0,0.0,0.0,0.0,0.0,0.0,0.0,0.0,0.0,0.0,0.0,0.0,0.0,0.0,0.0,0.0,0.0,0.0,0.0,0.0,0.0,0.0,0.0,0.0,0.0,0.0,0.0,0.0,0.0,0.0,0.0,0.0,0.0,0.0,0.0,0.0,0.0,0.0,0.0,0.0,0.0,0.0,0.0,0.0,0.0,0.0,0.0,0.0,0.0,0.0,0.0,0.0,0.0,0.0,0.0,0.0,0.0,0.0,0.0,0.0,0.0,0.0,0.0,0.0,0.0,0.0,0.0,0.0,0.0,0.0,0.0,0.0,0.0,0.0,0.0,0.0,0.0,0.0,0.0,0.0,0.0,0.0,0.0,0.0,0.0,0.0,0.0,0.0,0.0,0.0,0.0,0.0,0.0,0.0,0.0,0.0,0.0,0.0,0.0,0.0,0.0,0.0,0.0,0.0,0.0,0.0,0.0,0.0,0.0,0.0,0.0,0.0,0.0,0.0,0.0,0.0,0.0,0.0,0.0,0.0,0.0,0.0,0.0,0.0,0.0,0.0,0.0,0.0,0.0,0.0,0.0,0.0,0.0,0.0,0.0,0.0,0.0,0.0,0.0,0.0,0.0,0.0,0.0,0.0,0.0,0.0,0.0,0.0,0.0,0.0,0.0,0.0,0.0,0.0,0.0,0.0,0.0,0.0,0.0,0.0,0.0,0.0,0.0,0.0,0.0,0.0,0.0,0.0,0.0,0.0,0.0,0.0,0.0,0.0,0.0,0.0,0.0,0.0,0.0,0.0,0.0,0.0,0.0,0.0,0.0,0.0,0.0,0.0,0.0,0.0,0.0,0.0,0.0,0.0,0.0,0.0,0.0,0.0,0.0,0.0,0.0,0.0,0.0,0.0,0.0,-1.4102,0.0,0.0,0.0,0.0,0.0,0.0,0.0,0.0,0.0,0.0,0.0,0.0,0.0,0.0,0.0,0.0,0.0,0.0,0.0,0.0,0.0,0.0,0.0,0.0,0.0,0.0,0.0,0.0,0.0,0.0,0.0,0.0,0.0,0.0,0.0,0.0,0.0,0.0,0.0,0.0,0.0,0.0,0.0,0.0,0.0,0.0,0.0,0.0,0.0,0.0,0.0,0.0,0.0,0.0,0.0,0.0,0.0,0.0,0.0,0.0,0.0,0.0,0.0,0.0,0.0,0.0,0.0,0.0,0.0,0.0,0.0,0.0,0.0,0.0,0.0,0.0,0.0,0.0,0.0,0.0,0.0,0.0,0.0,0.0,0.0,0.0,0.0,0.0,0.0,0.0,0.0,0.0,0.0,0.0,0.0,0.0,0.0,0.0,0.0,0.0,0.0,0.0,0.0,0.0,0.0,0.0,0.0,0.0,0.0,0.0,-1.8519,-1.8621,-1.8026,-1.7165,-1.6083,0.0,0.0,0.0,0.0,0.0,0.0,0.0,0.0,0.0,0.0,0.0,0.0,0.0,0.0,0.0,0.0,0.0,0.0,0.0,0.0,0.0,0.0,0.0,0.0,0.0,0.0,0.0,0.0,0.0,0.0,0.0,0.0,0.0,0.0,0.0,0.0,0.0,0.0,0.0,0.0,0.0,0.0,0.0,0.0,0.0,0.0,0.0,0.0,0.0,0.0,0.0,0.0,0.0,0.0,0.0,0.0,0.0,0.0,0.0,0.0,0.0,0.0,0.0,0.0,0.0,0.0,0.0,0.0,0.0,0.0,0.0,0.0,0.0,0.0,0.0,0.0,0.0,0.0,0.0,0.0,0.0,0.0,0.0,0.0,0.0,0.0,0.0,0.0,0.0,0.0,0.0,0.0,0.0,0.0,0.0,0.0,0.0,0.0,0.0,0.0,0.0,0.0,0.0,0.0,0.0,0.0,0.0,0.0,0.0,0.0,0.0,0.0,-2.0307,-1.9332,-1.7691,0.0,0.0,0.0,0.0,0.0,0.0,0.0,0.0,0.0,0.0,0.0,0.0,0.0,0.0,0.0,0.0,0.0,0.0,0.0,0.0,0.0,0.0,0.0,0.0,0.0,0.0,0.0,0.0,0.0,0.0,0.0,0.0,0.0,0.0,0.0,0.0,0.0,0.0,0.0,0.0,0.0,0.0,0.0,0.0,0.0,0.0,0.0,0.0,0.0,0.0,0.0,0.0,0.0,0.0,0.0,0.0,0.0,0.0,0.0,0.0,0.0,0.0,0.0,0.0,0.0,0.0,0.0,0.0,0.0,0.0,0.0,0.0,0.0,0.0,0.0,0.0,0.0,0.0,0.0,0.0,0.0,0.0,0.0,0.0,0.0,0.0,0.0,0.0,0.0,0.0,0.0,0.0,0.0,0.0,0.0,0.0,0.0,0.0,0.0,0.0,0.0,0.0,0.0,0.0,0.0,0.0,0.0,0.0,0.0,0.0,-2.2663,-2.3071,-2.2489,0.0,-1.8865,0.0,0.0,0.0,0.0,0.0,0.0,0.0,0.0,0.0,0.0,0.0,0.0,0.0,0.0,0.0,0.0,0.0,0.0,0.0,0.0,0.0,0.0,0.0,0.0,0.0,0.0,0.0,0.0,0.0,0.0,0.0,0.0,0.0,0.0,0.0,0.0,0.0,0.0,0.0,0.0,0.0,0.0,0.0,0.0,0.0,0.0,0.0,0.0,0.0,0.0,0.0,0.0,0.0,0.0,0.0,0.0,0.0,0.0,0.0,0.0,0.0,0.0,0.0,0.0,0.0,0.0,0.0,0.0,0.0,0.0,0.0,0.0,0.0,0.0,0.0,0.0,0.0,0.0,0.0,0.0,0.0,0.0,0.0,0.0,0.0,0.0,0.0,0.0,0.0,0.0,0.0,0.0,0.0,0.0,0.0,0.0,0.0,0.0,0.0,0.0,0.0,0.0,0.0,0.0,0.0,0.0,0.0,0.0,0.0,0.0,-2.4564,-2.4978,-2.4104,-2.2826,0.0,0.0,0.0,0.0,0.0,0.0,0.0,0.0,0.0,0.0,0.0,0.0,0.0,0.0,0.0,0.0,0.0,0.0,0.0,0.0,0.0,0.0,0.0,0.0,0.0,0.0,0.0,0.0,0.0,0.0,0.0,0.0,0.0,0.0,0.0,0.0,0.0,0.0,0.0,0.0,0.0,0.0,0.0,0.0,0.0,0.0,0.0,0.0,0.0,0.0,0.0,0.0,0.0,0.0,0.0,0.0,0.0,0.0,0.0,0.0,0.0,0.0,0.0,0.0,0.0,0.0,0.0,0.0,0.0,0.0,0.0,0.0,0.0,0.0,0.0,0.0,0.0,0.0,0.0,0.0,0.0,0.0,0.0,0.0,0.0,0.0,0.0,0.0,0.0,0.0,0.0,0.0,0.0,0.0,0.0,0.0,0.0,0.0,0.0,0.0,0.0,0.0,0.0,0.0,0.0,0.0,0.0,0.0,0.0,0.0,-2.5632,-2.6573,-2.6925,-2.5814,-2.4675,-2.3661,0.0,0.0,0.0,0.0,0.0,0.0,0.0,0.0,0.0,0.0,0.0,0.0,0.0,0.0,0.0,0.0,0.0,0.0,0.0,0.0,0.0,0.0,0.0,0.0,0.0,0.0,0.0,0.0,0.0,0.0,0.0,0.0,0.0,0.0,0.0,0.0,0.0,0.0,0.0,0.0,0.0,0.0,0.0,0.0,0.0,0.0,0.0,0.0,0.0,0.0,0.0,0.0,0.0,0.0,0.0,0.0,0.0,0.0,0.0,0.0,0.0,0.0,0.0,0.0,0.0,0.0,0.0,0.0,0.0,0.0,0.0,0.0,0.0,0.0,0.0,0.0,0.0,0.0,0.0,0.0,0.0,0.0,0.0,0.0,0.0,0.0,0.0,0.0,0.0,0.0,0.0,0.0,0.0,0.0,0.0,0.0,0.0,0.0,0.0,0.0,0.0,0.0,0.0,0.0,0.0,0.0,0.0,0.0,-2.5945,-2.763,-2.8797,-2.9227,-2.7861,-2.6777,0.0,0.0,0.0,0.0,0.0,0.0,0.0,0.0,0.0,0.0,0.0,0.0,0.0,0.0,0.0,0.0,0.0,0.0,0.0,0.0,0.0,0.0,0.0,0.0,0.0,0.0,0.0,0.0,0.0,0.0,0.0,0.0,0.0,0.0,0.0,0.0,0.0,0.0,0.0,0.0,0.0,0.0,0.0,0.0,0.0,0.0,0.0,0.0,0.0,0.0,0.0,0.0,0.0,0.0,0.0,0.0,0.0,0.0,0.0,0.0,0.0,0.0,0.0,0.0,0.0,0.0,0.0,0.0,0.0,0.0,0.0,0.0,0.0,0.0,0.0,0.0,0.0,0.0,0.0,0.0,0.0,0.0,0.0,0.0,0.0,0.0,0.0,0.0,0.0,0.0,0.0,0.0,0.0,0.0,0.0,0.0,0.0,0.0,0.0,0.0,0.0,0.0,0.0,0.0,0.0,0.0,0.0,0.0,0.0,-2.7606,-2.9626,-3.0818,-3.1066,-2.9663,-2.8421,0.0,0.0,0.0,0.0,0.0,0.0,0.0,0.0,0.0,0.0,0.0,0.0,0.0,0.0,0.0,0.0,0.0,0.0,0.0,0.0,0.0,0.0,0.0,0.0,0.0,0.0,0.0,0.0,0.0,0.0,0.0,0.0,0.0,0.0,0.0,0.0,0.0,0.0,0.0,0.0,0.0,0.0,0.0,0.0,0.0,0.0,0.0,0.0,0.0,0.0,0.0,0.0,0.0,0.0,0.0,0.0,0.0,0.0,0.0,0.0,0.0,0.0,0.0,0.0,0.0,0.0,0.0,0.0,0.0,0.0,0.0,0.0,0.0,0.0,0.0,0.0,0.0,0.0,0.0,0.0,0.0,0.0,0.0,0.0,0.0,0.0,0.0,0.0,0.0,0.0,0.0,0.0,0.0,0.0,0.0,0.0,0.0,0.0,0.0,0.0,0.0,0.0,0.0,0.0,0.0,0.0,0.0,0.0,0.0,-3.0338,0.0,-3.2731,-3.3048,-3.1398,-3.0045,0.0,0.0,0.0,0.0,0.0,0.0,0.0,0.0,0.0,0.0,0.0,0.0,0.0,0.0,0.0,0.0,0.0,0.0,0.0,0.0,0.0,0.0,0.0,0.0,0.0,0.0,0.0,0.0,0.0,0.0,0.0,0.0,0.0,0.0,0.0,0.0,0.0,0.0,0.0,0.0,0.0,0.0,0.0,0.0,0.0,0.0,0.0,0.0,0.0,0.0,0.0,0.0,0.0,0.0,0.0,0.0,0.0,0.0,0.0,0.0,0.0,0.0,0.0,0.0,0.0,0.0,0.0,0.0,0.0,0.0,0.0,0.0,0.0,0.0,0.0,0.0,0.0,0.0,0.0,0.0,0.0,0.0,0.0,0.0,0.0,0.0,0.0,0.0,0.0,0.0,0.0,0.0,0.0,0.0,0.0,0.0,0.0,0.0,0.0,0.0,0.0,0.0,0.0,0.0,0.0,0.0,0.0,0.0,-3.1402,-3.4306,-3.4249,-3.4553,-3.5218,-3.3163,-3.1752,0.0,0.0,0.0,0.0,0.0,0.0,0.0,0.0,0.0,0.0,0.0,0.0,0.0,0.0,0.0,0.0,0.0,0.0,0.0,0.0,0.0,0.0,0.0,0.0,0.0,0.0,0.0,0.0,0.0,0.0,0.0,0.0,0.0,0.0,0.0,0.0,0.0,0.0,0.0,0.0,0.0,0.0,0.0,0.0,0.0,0.0,0.0,0.0,0.0,0.0,0.0,0.0,0.0,0.0,0.0,0.0,0.0,0.0,0.0,0.0,0.0,0.0,0.0,0.0,0.0,0.0,0.0,0.0,0.0,0.0,0.0,0.0,0.0,0.0,0.0,0.0,0.0,0.0,0.0,0.0,0.0,0.0,0.0,0.0,0.0,0.0,0.0,0.0,0.0,0.0,0.0,0.0,0.0,0.0,0.0,0.0,0.0,0.0,0.0,0.0,0.0,0.0,0.0,0.0,0.0,0.0,0.0,0.0,0.0,-3.5872,-3.6611,-3.6944,-3.6771,-3.5471,-3.3926,0.0,0.0,0.0,0.0,0.0,0.0,0.0,0.0,0.0,0.0,0.0,0.0,0.0,0.0,0.0,0.0,0.0,0.0,0.0,0.0,0.0,0.0,0.0,0.0,0.0,0.0,0.0,0.0,0.0,0.0,0.0,0.0,0.0,0.0,0.0,0.0,0.0,0.0,0.0,0.0,0.0,0.0,0.0,0.0,0.0,0.0,0.0,0.0,0.0,0.0,0.0,0.0,0.0,0.0,0.0,0.0,0.0,0.0,0.0,0.0,0.0,0.0,0.0,0.0,0.0,0.0,0.0,0.0,0.0,0.0,0.0,0.0,0.0,0.0,0.0,0.0,0.0,0.0,0.0,0.0,0.0,0.0,0.0,0.0,0.0,0.0,0.0,0.0,0.0,0.0,0.0,0.0,0.0,0.0,0.0,0.0,0.0,0.0,0.0,0.0,0.0,0.0,0.0,0.0,0.0,0.0,0.0,0.0,0.0,-3.8219,-3.8566,-3.8666,-3.8435,-3.7266,-3.5674,-3.358,0.0,0.0,0.0,0.0,0.0,0.0,0.0,0.0,0.0,0.0,0.0,0.0,0.0,0.0,0.0,0.0,0.0,0.0,0.0,0.0,0.0,0.0,0.0,0.0,0.0,0.0,0.0,0.0,0.0,0.0,0.0,0.0,0.0,0.0,0.0,0.0,0.0,0.0,0.0,0.0,0.0,0.0,0.0,0.0,0.0,0.0,0.0,0.0,0.0,0.0,0.0,0.0,0.0,0.0,0.0,0.0,0.0,0.0,0.0,0.0,0.0,0.0,0.0,0.0,0.0,0.0,0.0,0.0,0.0,0.0,0.0,0.0,0.0,0.0,0.0,0.0,0.0,0.0,0.0,0.0,0.0,0.0,0.0,0.0,0.0,0.0,0.0,0.0,0.0,0.0,0.0,0.0,0.0,0.0,0.0,0.0,0.0,0.0,0.0,0.0,0.0,0.0,0.0,0.0,0.0,0.0,0.0,0.0,-4.1114,-4.0275,-3.9925,-4.0121,-3.8702,-3.7033,0.0,0.0,0.0,0.0,0.0,0.0,0.0,0.0,0.0,0.0,0.0,0.0,0.0,0.0,0.0,0.0,0.0,0.0,0.0,0.0,0.0,0.0,0.0,0.0,0.0,0.0,0.0,0.0,0.0,0.0,0.0,0.0,0.0,0.0,0.0,0.0,0.0,0.0,0.0,0.0,0.0,0.0,0.0,0.0,0.0,0.0,0.0,0.0,0.0,0.0,0.0,0.0,0.0,0.0,0.0,0.0,0.0,0.0,0.0,0.0,0.0,0.0,0.0,0.0,0.0,0.0,0.0,0.0,0.0,0.0,0.0,0.0,0.0,0.0,0.0,0.0,0.0,0.0,0.0,0.0,0.0,0.0,0.0,0.0,0.0,0.0,0.0,0.0,0.0,0.0,0.0,0.0,0.0,0.0,0.0,0.0,0.0,0.0,0.0,0.0,0.0,0.0,0.0,0.0,0.0,0.0,0.0,0.0,0.0,-4.1561,-4.2209,-4.2324,-4.1838,-4.0836,-3.9231,0.0,0.0,0.0,0.0,0.0,0.0,0.0,0.0,0.0,0.0,0.0,0.0,0.0,0.0,0.0,0.0,0.0,0.0,0.0,0.0,0.0,0.0,0.0,0.0,0.0,0.0,0.0,0.0,0.0,0.0,0.0,0.0,0.0,0.0,0.0,0.0,0.0,0.0,0.0,0.0,0.0,0.0,0.0,0.0,0.0,0.0,0.0,0.0,0.0,0.0,0.0,0.0,0.0,0.0,0.0,0.0,0.0,0.0,0.0,0.0,0.0,0.0,0.0,0.0,0.0,0.0,0.0,0.0,0.0,0.0,0.0,0.0,0.0,0.0,0.0,0.0,0.0,0.0,0.0,0.0,0.0,0.0,0.0,0.0,0.0,0.0,0.0,0.0,0.0,0.0,0.0,0.0,0.0,0.0,0.0,0.0,0.0,0.0,0.0,0.0,0.0,0.0,0.0,0.0,0.0,0.0,0.0,0.0,-4.098,-4.2515,-4.3422,-4.3718,-4.337,-4.2171,-4.052,0.0,0.0,0.0,0.0,0.0,0.0,0.0,0.0,0.0,0.0,0.0,0.0,0.0,0.0,0.0,0.0,0.0,0.0,0.0,0.0,0.0,0.0,0.0,0.0,0.0,0.0,0.0,0.0,0.0,0.0,0.0,0.0,0.0,0.0,0.0,0.0,0.0,0.0,0.0,0.0,0.0,0.0,0.0,0.0,0.0,0.0,0.0,0.0,0.0,0.0,0.0,0.0,0.0,0.0,0.0,0.0,0.0,0.0,0.0,0.0,0.0,0.0,0.0,0.0,0.0,0.0,0.0,0.0,0.0,0.0,0.0,0.0,0.0,0.0,0.0,0.0,0.0,0.0,0.0,0.0,0.0,0.0,0.0,0.0,0.0,0.0,0.0,0.0,0.0,0.0,0.0,0.0,0.0,0.0,0.0,0.0,0.0,0.0,0.0,0.0,0.0,0.0,0.0,0.0,0.0,0.0,0.0,0.0,-4.1838,-4.3604,-4.4064,-4.4412,-4.4536,-4.2869,-4.1207,0.0,0.0,0.0,0.0,0.0,0.0,0.0,0.0,0.0,0.0,0.0,0.0,0.0,0.0,0.0,0.0,0.0,0.0,0.0,0.0,0.0,0.0,0.0,0.0,0.0,0.0,0.0,0.0,0.0,0.0,0.0,0.0,0.0,0.0,0.0,0.0,0.0,0.0,0.0,0.0,0.0,0.0,0.0,0.0,0.0,0.0,0.0,0.0,0.0,0.0,0.0,0.0,0.0,0.0,0.0,0.0,0.0,0.0,0.0,0.0,0.0,0.0,0.0,0.0,0.0,0.0,0.0,0.0,0.0,0.0,0.0,0.0,0.0,0.0,0.0,0.0,0.0,0.0,0.0,0.0,0.0,0.0,0.0,0.0,0.0,0.0,0.0,0.0,0.0,0.0,0.0,0.0,0.0,0.0,0.0,0.0,0.0,0.0,0.0,0.0,0.0,0.0,0.0,0.0,0.0,0.0,0.0,0.0,-4.2659,-4.3931,-4.4196,-4.4412,-4.4598,-4.3044,-4.1748,0.0,0.0,0.0,0.0,0.0,0.0,0.0,0.0,0.0,0.0,0.0,0.0,0.0,0.0,0.0,0.0,0.0,0.0,0.0,0.0,0.0,0.0,0.0,0.0,0.0,0.0,0.0,0.0,0.0,0.0,0.0,0.0,0.0,0.0,0.0,0.0,0.0,0.0,0.0,0.0,0.0,0.0,0.0,0.0,0.0,0.0,0.0,0.0,-3.7748,0.0,0.0,0.0,0.0,0.0,0.0,0.0,0.0,0.0,0.0,0.0,0.0,0.0,0.0,0.0,0.0,0.0,0.0,0.0,0.0,0.0,0.0,0.0,0.0,0.0,0.0,0.0,0.0,0.0,0.0,0.0,0.0,0.0,0.0,0.0,0.0,0.0,0.0,0.0,0.0,0.0,0.0,0.0,0.0,0.0,0.0,0.0,0.0,0.0,0.0,0.0,0.0,0.0,0.0,0.0,0.0,0.0,0.0,0.0,-4.3069,-4.4133,-4.4355,-4.4497,-4.4519,-4.3125,-4.2074,0.0,0.0,0.0,0.0,0.0,0.0,0.0,0.0,0.0,0.0,0.0,0.0,0.0,0.0,0.0,0.0,0.0,0.0,0.0,0.0,0.0,0.0,0.0,0.0,0.0,0.0,0.0,0.0,0.0,0.0,0.0,0.0,0.0,0.0,0.0,0.0,0.0,0.0,0.0,0.0,0.0,0.0,0.0,0.0,0.0,0.0,0.0,0.0,0.0,0.0,0.0,0.0,0.0,0.0,0.0,0.0,0.0,0.0,0.0,0.0,0.0,0.0,0.0,0.0,0.0,0.0,0.0,0.0,0.0,0.0,0.0,0.0,0.0,0.0,0.0,0.0,0.0,0.0,0.0,0.0,0.0,0.0,0.0,0.0,0.0,0.0,0.0,0.0,0.0,0.0,0.0,0.0,0.0,0.0,0.0,0.0,0.0,0.0,0.0,0.0,0.0,0.0,0.0,0.0,0.0,0.0,0.0,-4.2351,-4.3444,-4.4305,-4.4514,-4.4598,-4.4581,-4.3108,-4.2303,-4.2252,0.0,0.0,0.0,0.0,0.0,0.0,0.0,0.0,0.0,0.0,0.0,0.0,0.0,0.0,0.0,0.0,0.0,0.0,0.0,0.0,0.0,0.0,0.0,0.0,0.0,0.0,0.0,0.0,0.0,0.0,0.0,0.0,0.0,0.0,0.0,0.0,0.0,0.0,-3.497,-3.6727,0.0,0.0,0.0,0.0,0.0,0.0,0.0,0.0,-4.0552,0.0,0.0,0.0,0.0,0.0,0.0,0.0,0.0,0.0,0.0,0.0,0.0,0.0,0.0,0.0,0.0,0.0,0.0,0.0,0.0,0.0,0.0,0.0,0.0,0.0,0.0,0.0,0.0,0.0,0.0,0.0,0.0,0.0,0.0,0.0,0.0,0.0,0.0,0.0,0.0,0.0,0.0,0.0,0.0,0.0,0.0,0.0,0.0,0.0,0.0,0.0,0.0,0.0,0.0,0.0,0.0,-4.1397,-4.3153,-4.422,-4.4525,-4.457,-4.4598,-4.4564,-4.3081,-4.2303,-4.2168,0.0,0.0,0.0,0.0,0.0,0.0,0.0,0.0,0.0,0.0,0.0,0.0,0.0,0.0,0.0,0.0,0.0,0.0,0.0,0.0,0.0,0.0,0.0,0.0,0.0,0.0,0.0,0.0,0.0,0.0,0.0,0.0,0.0,0.0,0.0,0.0,0.0,0.0,0.0,-3.8452,-3.9668,0.0,0.0,0.0,0.0,0.0,0.0,0.0,0.0,-4.2154,0.0,0.0,0.0,0.0,0.0,0.0,0.0,0.0,0.0,0.0,0.0,0.0,0.0,0.0,0.0,0.0,0.0,0.0,0.0,0.0,0.0,0.0,0.0,0.0,0.0,0.0,0.0,0.0,0.0,0.0,0.0,0.0,0.0,0.0,0.0,0.0,0.0,0.0,0.0,0.0,0.0,0.0,0.0,0.0,0.0,0.0,0.0,0.0,0.0,0.0,0.0,0.0,0.0,0.0,0.0,-4.1566,-4.3384,-4.4395,-4.4598,-4.4598,-4.4598,-4.4564,-4.3098,-4.21,0.0,0.0,0.0,0.0,0.0,0.0,0.0,0.0,0.0,0.0,0.0,0.0,0.0,0.0,0.0,0.0,0.0,0.0,0.0,0.0,0.0,0.0,0.0,0.0,0.0,0.0,0.0,0.0,0.0,0.0,0.0,0.0,0.0,0.0,0.0,0.0,0.0,0.0,0.0,0.0,-3.9327,-4.0343,-4.1461,0.0,0.0,0.0,0.0,0.0,0.0,-4.3327,-4.3401,0.0,0.0,0.0,0.0,0.0,0.0,0.0,0.0,0.0,0.0,0.0,0.0,0.0,0.0,0.0,0.0,0.0,0.0,0.0,0.0,0.0,0.0,0.0,0.0,0.0,0.0,0.0,0.0,0.0,0.0,0.0,0.0,0.0,0.0,0.0,0.0,0.0,0.0,0.0,0.0,0.0,0.0,0.0,0.0,0.0,0.0,0.0,0.0,0.0,0.0,0.0,0.0,0.0,0.0,0.0,-4.1649,-4.344,-4.444,-4.457,-4.4598,-4.4598,-4.4564,-4.3098,-4.1948,0.0,0.0,0.0,0.0,0.0,0.0,0.0,0.0,0.0,0.0,0.0,0.0,0.0,0.0,0.0,0.0,0.0,0.0,0.0,0.0,0.0,0.0,0.0,0.0,0.0,0.0,0.0,0.0,0.0,0.0,0.0,0.0,0.0,0.0,0.0,0.0,0.0,0.0,0.0,0.0,0.0,-4.1102,-4.2046,-4.2664,0.0,0.0,0.0,0.0,-4.4184,-4.4184,0.0,0.0,0.0,0.0,0.0,0.0,0.0,0.0,0.0,0.0,0.0,0.0,0.0,0.0,0.0,0.0,0.0,0.0,0.0,0.0,0.0,0.0,0.0,0.0,0.0,0.0,0.0,0.0,0.0,0.0,0.0,0.0,0.0,0.0,0.0,0.0,0.0,0.0,0.0,0.0,0.0,0.0,0.0,0.0,0.0,0.0,0.0,0.0,0.0,0.0,0.0,0.0,0.0,0.0,0.0,0.0,-4.1694,-4.3586,-4.4587,-4.4598,-4.4598,-4.4598,-4.4581,-4.3125,-4.1948,0.0,0.0,0.0,0.0,0.0,0.0,0.0,0.0,0.0,0.0,0.0,0.0,0.0,0.0,0.0,0.0,0.0,0.0,0.0,0.0,0.0,0.0,0.0,0.0,0.0,0.0,0.0,0.0,0.0,0.0,0.0,0.0,0.0,0.0,0.0,0.0,0.0,0.0,0.0,0.0,0.0,-4.2253,-4.2522,-4.308,-4.3578,0.0,0.0,-4.4542,-4.4542,-4.4559,0.0,0.0,0.0,0.0,0.0,0.0,0.0,0.0,0.0,0.0,0.0,0.0,0.0,0.0,0.0,0.0,0.0,0.0,0.0,0.0,0.0,0.0,0.0,0.0,0.0,0.0,0.0,0.0,0.0,0.0,0.0,0.0,0.0,0.0,0.0,0.0,0.0,0.0,0.0,0.0,0.0,0.0,0.0,0.0,0.0,0.0,0.0,0.0,0.0,0.0,0.0,0.0,0.0,0.0,0.0,-3.9759,-4.1694,-4.3496,-4.4514,-4.4598,-4.4598,-4.4598,-4.4598,-4.3098,-4.1745,0.0,0.0,0.0,0.0,0.0,0.0,0.0,0.0,0.0,0.0,0.0,0.0,0.0,0.0,0.0,0.0,0.0,0.0,0.0,0.0,0.0,0.0,0.0,0.0,0.0,0.0,0.0,0.0,0.0,0.0,0.0,0.0,0.0,0.0,0.0,0.0,0.0,0.0,0.0,0.0,0.0,0.0,-4.3141,-4.3595,0.0,0.0,0.0,-4.4598,-4.4598,0.0,0.0,0.0,0.0,0.0,0.0,0.0,0.0,0.0,0.0,0.0,0.0,0.0,0.0,0.0,0.0,0.0,0.0,0.0,0.0,0.0,0.0,0.0,0.0,0.0,0.0,0.0,0.0,0.0,0.0,0.0,0.0,0.0,0.0,0.0,0.0,0.0,0.0,0.0,0.0,0.0,0.0,0.0,0.0,0.0,0.0,0.0,0.0,0.0,0.0,0.0,0.0,0.0,0.0,0.0,0.0,0.0,-4.1582,-4.3384,-4.4384,-4.4514,-4.4587,-4.4598,-4.4564,-4.3098,0.0,0.0,0.0,0.0,0.0,0.0,0.0,0.0,0.0,0.0,0.0,0.0,0.0,0.0,0.0,0.0,0.0,0.0,0.0,0.0,0.0,0.0,0.0,0.0,0.0,0.0,0.0,-2.8906,0.0,0.0,0.0,0.0,0.0,0.0,0.0,0.0,0.0,0.0,0.0,0.0,0.0,0.0,-4.3684,-4.3713,-4.3964,-4.4184,0.0,0.0,-4.4598,-4.4598,-4.4598,-4.4598,0.0,0.0,0.0,0.0,0.0,0.0,0.0,0.0,0.0,0.0,0.0,0.0,0.0,0.0,0.0,0.0,0.0,0.0,0.0,0.0,0.0,0.0,0.0,0.0,0.0,0.0,0.0,0.0,-3.1986,0.0,0.0,0.0,0.0,0.0,0.0,0.0,0.0,0.0,0.0,0.0,0.0,0.0,0.0,0.0,0.0,0.0,0.0,0.0,0.0,0.0,0.0,0.0,0.0,0.0,-3.9537,-4.1222,-4.3253,-4.431,-4.4338,-4.4497,-4.4598,-4.4581,-4.3098,-4.1593,0.0,0.0,0.0,0.0,0.0,0.0,0.0,0.0,0.0,0.0,0.0,0.0,0.0,0.0,0.0,0.0,0.0,0.0,0.0,0.0,0.0,0.0,0.0,0.0,0.0,0.0,0.0,0.0,0.0,0.0,0.0,0.0,0.0,0.0,0.0,0.0,0.0,0.0,0.0,0.0,0.0,-4.391,-4.4039,-4.4196,-4.431,0.0,-4.4468,-4.4598,-4.4598,-4.4598,-4.4598,-4.4598,0.0,0.0,0.0,0.0,0.0,0.0,0.0,0.0,0.0,0.0,0.0,0.0,0.0,0.0,0.0,0.0,0.0,0.0,0.0,0.0,0.0,0.0,0.0,0.0,0.0,-3.2431,0.0,0.0,-3.1478,0.0,0.0,0.0,0.0,0.0,0.0,0.0,0.0,0.0,0.0,0.0,0.0,0.0,0.0,0.0,0.0,0.0,0.0,0.0,0.0,0.0,0.0,0.0,0.0,-3.9055,-4.0922,-4.269,-4.3667,-4.386,-4.3948,-4.3977,-4.3993,-4.2512,-4.1259,0.0,0.0,0.0,0.0,0.0,0.0,0.0,0.0,0.0,0.0,0.0,0.0,0.0,0.0,0.0,0.0,0.0,0.0,0.0,0.0,0.0,0.0,0.0,0.0,0.0,0.0,0.0,0.0,-3.0881,-3.1583,-3.2796,0.0,0.0,0.0,0.0,0.0,0.0,0.0,0.0,0.0,0.0,-4.3935,-4.4196,-4.4281,0.0,0.0,-4.4542,-4.4598,-4.4598,-4.4598,-4.4598,-4.4598,-4.3944,0.0,0.0,0.0,0.0,0.0,0.0,0.0,0.0,0.0,0.0,0.0,0.0,0.0,0.0,0.0,0.0,0.0,0.0,0.0,0.0,0.0,0.0,0.0,0.0,0.0,0.0,0.0,0.0,0.0,0.0,0.0,0.0,0.0,0.0,0.0,0.0,0.0,0.0,0.0,0.0,0.0,0.0,0.0,0.0,0.0,0.0,0.0,0.0,0.0,0.0,0.0,0.0,-3.859,-4.048,-4.2103,-4.3066,-4.3292,-4.3399,-4.3459,-4.3426,-4.2166,-4.1049,0.0,0.0,0.0,0.0,0.0,0.0,0.0,0.0,0.0,0.0,0.0,0.0,0.0,0.0,0.0,0.0,0.0,0.0,0.0,0.0,0.0,0.0,0.0,0.0,0.0,0.0,0.0,0.0,-3.1839,-3.2587,-3.3863,0.0,0.0,0.0,0.0,0.0,0.0,0.0,0.0,0.0,0.0,-4.3802,-4.4196,-4.4281,-4.4367,-4.457,-4.4598,-4.4598,-4.4598,-4.4598,-4.4598,-4.4598,0.0,0.0,0.0,0.0,0.0,0.0,0.0,0.0,0.0,0.0,0.0,0.0,0.0,0.0,0.0,0.0,0.0,0.0,0.0,0.0,0.0,0.0,0.0,0.0,0.0,0.0,0.0,-3.1647,0.0,0.0,-3.0225,0.0,0.0,0.0,0.0,0.0,0.0,0.0,0.0,0.0,0.0,0.0,0.0,0.0,0.0,0.0,0.0,0.0,0.0,0.0,0.0,0.0,0.0,-3.8279,-3.9813,-4.1625,-4.2585,-4.2617,-4.2943,-4.3066,-4.305,-4.2178,-4.1029,-3.9601,0.0,0.0,0.0,0.0,0.0,0.0,0.0,0.0,0.0,0.0,0.0,0.0,0.0,0.0,0.0,0.0,0.0,0.0,0.0,0.0,0.0,0.0,0.0,0.0,0.0,0.0,-3.3365,-3.344,-3.3694,0.0,0.0,0.0,0.0,0.0,0.0,0.0,0.0,0.0,0.0,-4.2731,-4.3582,-4.401,-4.4196,-4.4338,-4.457,-4.4598,-4.4598,-4.4598,-4.4598,-4.4598,0.0,0.0,0.0,0.0,0.0,0.0,0.0,0.0,0.0,0.0,0.0,0.0,0.0,0.0,0.0,0.0,0.0,0.0,0.0,0.0,0.0,0.0,0.0,0.0,0.0,0.0,0.0,-3.2417,-3.1199,0.0,0.0,0.0,0.0,0.0,0.0,0.0,0.0,0.0,0.0,0.0,-3.7179,-3.7179,0.0,0.0,0.0,0.0,0.0,0.0,0.0,0.0,0.0,0.0,0.0,0.0,-3.7871,-3.9076,-4.0601,-4.1458,-4.1525,-4.1656,-4.1722,-4.1673,-4.0974,-3.966,-3.7794,0.0,0.0,0.0,0.0,0.0,0.0,0.0,0.0,0.0,0.0,0.0,0.0,0.0,0.0,0.0,0.0,0.0,0.0,0.0,0.0,0.0,0.0,0.0,0.0,0.0,-3.3499,0.0,0.0,0.0,0.0,0.0,0.0,0.0,0.0,0.0,0.0,0.0,-4.0833,-4.1566,-4.2283,-4.2898,-4.3355,-4.3743,-4.4064,0.0,0.0,0.0,0.0,0.0,0.0,0.0,0.0,0.0,0.0,0.0,0.0,0.0,0.0,-4.2412,-4.1694,-4.1365,-4.1102,-4.0865,0.0,0.0,0.0,0.0,0.0,0.0,0.0,0.0,0.0,0.0,0.0,0.0,0.0,0.0,-3.228,0.0,-3.1187,0.0,0.0,0.0,0.0,0.0,0.0,0.0,0.0,-3.6411,-3.6866,-3.7472,-3.7544,-3.7618,0.0,-3.766,-3.6694,0.0,0.0,0.0,0.0,0.0,0.0,0.0,0.0,-3.7663,-3.8798,-3.9973,-4.0631,-4.0703,-4.0786,-4.082,-4.0805,-4.0101,-3.906,-3.7619,-3.6862,-3.5645,0.0,0.0,0.0,0.0,0.0,0.0,0.0,0.0,0.0,0.0,0.0,0.0,0.0,0.0,0.0,0.0,0.0,0.0,0.0,0.0,0.0,0.0,0.0,-3.4203,0.0,0.0,0.0,0.0,0.0,0.0,0.0,0.0,0.0,-3.9392,-3.9898,-4.0475,-4.1227,-4.1801,-4.2317,-4.2834,0.0,0.0,0.0,0.0,0.0,0.0,0.0,-4.4598,-4.4598,-4.4598,-4.4598,-4.4598,-4.4598,-4.4598,-4.4598,0.0,0.0,-4.2828,-4.2472,-4.2303,-4.2303,-4.2303,-4.2303,-4.2303,-4.2303,-4.2303,0.0,0.0,0.0,0.0,0.0,0.0,0.0,0.0,-3.2485,-3.2298,0.0,-3.1468,0.0,0.0,0.0,0.0,0.0,-3.4083,0.0,0.0,-3.6354,-3.7146,-3.8121,-3.8323,-3.8326,-3.8098,-3.8083,-3.7883,-3.7355,-3.6159,0.0,0.0,0.0,0.0,0.0,0.0,-3.767,-3.8929,-3.9756,-4.0165,-4.0181,-4.0385,-4.0455,-4.0439,-3.9657,-3.9101,-3.8933,-3.7046,-3.597,-3.5832,-3.4514,0.0,0.0,0.0,0.0,0.0,0.0,0.0,0.0,0.0,0.0,0.0,0.0,0.0,0.0,0.0,0.0,0.0,0.0,0.0,0.0,-3.4771,0.0,0.0,0.0,0.0,0.0,0.0,0.0,0.0,0.0,0.0,-3.9107,-3.9756,-4.0366,-4.0808,0.0,0.0,0.0,0.0,-4.3713,-4.4039,-4.4355,-4.457,-4.4598,-4.4598,-4.4598,-4.4598,0.0,0.0,-4.4598,-4.4598,-4.4598,-4.4598,-4.4581,-4.4333,-4.3561,-4.2912,-4.2455,-4.2439,-4.2472,-4.2388,-4.2388,-4.2523,-4.2489,-3.5949,0.0,0.0,0.0,0.0,-3.4468,-3.4095,-3.3713,-3.3671,-3.3327,-3.2777,-3.2167,0.0,0.0,0.0,0.0,0.0,0.0,-3.4539,-3.5545,-3.5862,-3.6417,-3.7246,-3.7519,-3.78,-3.8186,-3.8326,-3.8479,-3.8582,-3.7764,-3.7088,-3.6582,0.0,0.0,0.0,0.0,-3.8206,-3.8582,-3.9279,-3.961,-3.961,-3.9681,-3.9732,-3.9732,-3.9465,-3.9113,-3.8597,-3.7976,-3.7045,-3.5694,-3.5227,0.0,0.0,0.0,0.0,0.0,0.0,0.0,0.0,0.0,0.0,0.0,0.0,0.0,0.0,0.0,0.0,0.0,0.0,0.0,-3.5549,-3.5968,-3.6387,0.0,0.0,0.0,0.0,0.0,0.0,0.0,0.0,0.0,-4.0619,-4.0592,-4.0773,0.0,0.0,-4.1943,-4.2468,-4.283,-4.3232,-4.3802,-4.415,0.0,0.0,-4.4598,-4.4598,-4.4598,-4.4598,-4.4598,-4.4598,-4.4598,-4.4598,-4.4598,-4.4598,-4.453,-4.4299,-4.4079,-4.3938,-4.3938,-4.3955,-4.3938,-4.3955,-4.3938,-4.3938,-3.6732,-3.6248,-3.5371,-3.5005,-3.4961,-3.4873,-3.4653,-3.4388,-3.4376,-3.4168,-3.3696,-3.3131,-3.2734,-3.2546,-3.2456,0.0,0.0,0.0,-3.4153,-3.4908,-3.5087,-3.5588,-3.6282,-3.6559,-3.7042,-3.7682,-3.7901,-3.8254,-3.8612,-3.8377,-3.8102,-3.7831,0.0,0.0,-3.7808,-3.8197,-3.8527,-3.8811,-3.92,-3.9388,-3.9388,-3.9388,-3.9388,-3.9388,-3.9388,-3.9215,-3.8811,-3.8542,-3.7853,-3.6701,-3.6163,-3.522,0.0,0.0,0.0,0.0,0.0,0.0,0.0,0.0,0.0,0.0,0.0,-3.3558,-3.4138,0.0,0.0,0.0,-3.462,-3.5325,-3.6387,-3.6716,0.0,0.0,0.0,0.0,0.0,0.0,0.0,-4.0083,-4.0546,-4.104,-4.1707,-4.1565,-4.146,-4.1686,-4.1766,-4.1944,-4.2241,0.0,-4.3019,-4.3449,-4.3919,-4.4281,-4.4457,-4.4542,-4.4598,-4.4598,-4.4598,-4.4598,-4.4598,-4.4598,-4.4598,-4.4598,-4.4598,-4.4598,-4.4598,-4.4598,-4.4598,-4.4598,-4.4598,-4.4598,-4.4598,-4.4598,-4.4598,-3.7751,-3.7123,-3.5617,-3.505,-3.5117,-3.4879,-3.4776,-3.4743,-3.4788,-3.4731,-3.4705,-3.4211,-3.396,-3.3922,-3.3637,0.0,-3.3525,-3.3645,-3.3874,-3.4111,-3.4256,-3.4688,-3.5318,-3.5521,-3.603,-3.678,-3.7042,-3.7404,-3.781,-3.8202,-3.8404,-3.8412,-3.778,-3.7764,-3.8402,-3.8446,-3.8745,-3.9373,-3.9388,-3.9373,-3.9388,-3.9388,-3.9388,-3.9388,-3.9388,-3.9373,-3.9358,-3.8775,-3.8417,-3.8327,-3.7191,-3.6204,-3.5487,0.0,0.0,0.0,0.0,0.0,0.0,0.0,0.0,0.0,0.0,0.0,0.0,0.0,0.0,-3.5218,-3.5475,0.0,-3.6641,-3.7191,0.0,0.0,0.0,-3.8197,-3.9439,-3.9538,-4.0068,-4.1309,0.0,0.0,-4.2396,-4.247,-4.2299,-4.1866,-4.1889,-4.1992,-4.2047,-4.2548,-4.2992,-4.3072,-4.3611,-4.4097,-4.4224,-4.4412,-4.457,-4.4598,-4.4598,-4.4598,-4.4598,-4.4598,-4.4598,-4.4598,-4.4598,-4.4598,-4.4598,-4.4598,-4.4598,-4.4598,-4.4598,-4.4598,-4.4598,-4.4598,-4.4598,-3.8341,-3.7789,-3.7387,-3.6508,-3.5399,-3.5353,-3.5307,-3.5307,-3.5307,-3.5307,-3.5257,-3.4731,-3.4525,-3.4525,-3.4431,-3.4368,-3.44,-3.4029,-3.4002,-3.4137,-3.3803,-3.3894,-3.441,-3.4634,-3.5087,-3.5736,-3.5964,-3.6466,-3.713,-3.7246,-3.7453,-3.7782,-3.7808,-3.8091,-3.8692,-3.8707,-3.8868,-3.9177,-3.9177,-3.9265,-3.9388,-3.9388,-3.9388,-3.9388,-3.9265,-3.9177,-3.9162,-3.8868,-3.847,-3.7967,-3.7227,-3.6246,-3.5078,-3.4312,0.0,0.0,0.0,0.0,0.0,0.0,0.0,0.0,0.0,-3.4846,-3.5473,0.0,-3.5787,0.0,-3.6151,-3.6866,-3.8338,-3.8627,0.0,0.0,-4.0427,-4.0561,-4.0876,-4.092,-4.122,-4.2066,-4.2171,-4.241,-4.3015,-4.3105,-4.306,-4.2935,-4.2664,-4.2432,-4.2386,-4.2431,-4.2514,-4.2699,-4.3174,-4.3641,-4.3889,-4.4196,-4.4412,-4.457,-4.4598,-4.4598,-4.4598,-4.4598,-4.4598,-4.4598,-4.4598,-4.4598,-4.4598,-4.4598,-4.4598,-4.4598,-4.4598,-4.4598,-4.4598,-4.4598,-4.4598,-3.864,-3.8028,-3.8129,-3.7505,-3.6455,-3.6288,-3.6132,-3.5906,-3.5906,-3.5906,-3.5881,-3.5295,-3.4906,-3.4693,-3.468,-3.468,-3.47,-3.4399,-3.4318,-3.4414,-3.4123,-3.4051,-3.4165,-3.4281,-3.4478,-3.4812,-3.5046,-3.5386,-3.591,-3.6082,-3.636,-3.6727,-3.6975,-3.7271,-3.7691,-3.8248,-3.8575,-3.8686,-3.8811,-3.8885,-3.901,-3.9068,-3.9141,-3.9141,-3.8922,-3.8848,-3.8848,-3.8649,-3.8362,-3.796,-3.7375,-3.657,-3.5575,-3.4558,-3.3656,0.0,0.0,0.0,0.0,0.0,0.0,0.0,0.0,0.0,0.0,0.0,-3.576,-3.6031,-3.6611,-3.7483,-3.8785,-3.9362,-4.0037,-4.0861,-4.1156,-4.139,-4.162,-4.1765,-4.2111,-4.2716,-4.2791,-4.291,-4.326,-4.3305,-4.3305,-4.3305,-4.3079,-4.2741,-4.2343,-4.2294,-4.2316,-4.2091,-4.2522,-4.3127,-4.3608,-4.3919,-4.4167,-4.4412,-4.4485,-4.4497,-4.457,-4.4598,-4.4598,-4.4598,-4.4598,-4.4598,-4.4598,-4.4598,-4.4598,-4.4598,-4.4598,-4.4598,-4.4598,-4.4598,-4.4598,-3.8726,-3.8025,-3.8269,-3.8012,-3.7555,-3.7306,-3.6939,-3.6505,-3.6443,-3.6417,-3.6392,-3.5868,-3.5332,-3.4939,-3.4926,-3.4926,-3.4939,-3.4851,-3.4781,-3.4781,-3.4751,-3.4551,-3.4249,-3.4173,-3.4155,-3.4108,-3.4228,-3.4384,-3.4634,-3.4965,-3.5278,-3.5548,-3.5749,-3.591,-3.6136,-3.7208,-3.7872,-3.8052,-3.824,-3.8366,-3.8441,-3.8575,-3.8671,-3.8671,-3.8478,-3.8366,-3.8329,-3.8127,-3.8037,-3.8037,-3.737,-3.6779,-3.6216,-3.4837,-3.3796,0.0,-3.2193,0.0,0.0,0.0,0.0,0.0,0.0,0.0,0.0,-3.5384,-3.5412,-3.6011,-3.6944,-3.7859,-3.876,-3.9729,-4.0382,-4.0548,-4.093,-4.14,-4.1957,-4.2242,-4.2623,-4.319,-4.325,-4.3265,-4.3305,-4.3305,-4.3305,-4.329,-4.3195,-4.2758,-4.2077,-4.2145,-4.2124,-4.1325,-4.177,-4.2506,-4.3232,-4.3549,-4.3756,-4.4121,-4.4253,-4.4338,-4.4514,-4.457,-4.4598,-4.4598,-4.4598,-4.4598,-4.4598,-4.4598,-4.4598,-4.4598,-4.4598,-4.4598,-4.4598,-4.4598,-4.4598,-3.8137,-3.7988,-3.804,-3.779,-3.7294,-3.7248,-3.7145,-3.6998,-3.6593,-3.6417,-3.6405,-3.6304,-3.6157,-3.6056,-3.6103,-3.6091,-3.6065,-3.5592,-3.5345,-3.5332,-3.4881,-3.4663,-3.4582,-3.4142,-3.4054,-3.4132,-3.3785,-3.381,-3.4202,-3.4272,-3.4439,-3.4634,-3.484,-3.4937,-3.5032,0.0,0.0,0.0,-3.7333,-3.7615,-3.8,-3.7872,-3.7924,-3.8037,-3.7711,0.0,-3.7519,-3.7341,-3.7211,-3.7197,-3.6427,0.0,0.0,0.0,0.0,0.0,0.0,0.0,0.0,0.0,0.0,0.0,-3.3781,-3.4085,-3.4866,-3.5426,-3.6128,-3.7042,-3.7331,-3.8007,-3.9393,-3.9687,-4.0259,-4.1311,-4.1534,-4.177,-4.2283,-4.2364,-4.2585,-4.3006,-4.3061,-4.3115,-4.3265,-4.3305,-4.329,-4.323,-4.288,-4.2291,-4.1588,-4.176,-4.1641,-4.0909,-4.1258,-4.1948,-4.2679,-4.2896,-4.3141,-4.3608,-4.3964,-4.4184,-4.431,-4.4468,-4.457,-4.457,-4.4598,-4.4598,-4.4598,-4.4598,-4.4598,-4.4598,-4.4598,-4.4598,-4.4598,-4.4598,-4.4598,-3.7169,0.0,-3.7012,-3.6955,0.0,-3.6754,-3.6764,-3.6719,-3.6235,-3.595,-3.5847,-3.6098,-3.6181,-3.6193,-3.631,-3.6417,-3.6392,-3.6069,-3.5943,-3.5931,-3.5655,-3.5391,-3.5082,-3.4806,-3.4607,-3.4407,-3.3909,-3.3774,-3.3977,-3.3722,-3.3696,-3.3894,-3.4021,-3.4092,-3.4217,-3.4288,-3.4896,-3.595,-3.6281,-3.6557,-3.6805,-3.6936,-3.7014,-3.7092,0.0,0.0,0.0,0.0,0.0,0.0,0.0,0.0,0.0,0.0,0.0,-3.3547,-3.3248,-3.3146,-3.3304,-3.3063,-3.3122,-3.3708,-3.3811,-3.4121,-3.4744,-3.5309,-3.6013,-3.6915,-3.7113,-3.7688,-3.8823,-3.9255,-3.9724,-4.0404,-4.0845,-4.1296,-4.1646,-4.191,-4.2213,-4.2607,-4.2688,-4.2809,-4.313,-4.317,-4.3061,-4.2895,-4.2605,-4.2021,-4.1153,-4.1136,-4.1058,-4.0489,-4.0734,-4.1274,-4.1851,-4.2158,-4.2506,-4.308,-4.3429,-4.3684,-4.3902,-4.4109,-4.4212,-4.4196,-4.431,-4.4468,-4.4485,-4.4542,-4.4598,-4.4598,-4.4598,-4.4598,-4.4598,-4.4598,-4.4598,-3.6027,-3.5224,-3.5644,-3.5808,-3.5761,-3.5772,-3.5756,-3.5658,0.0,0.0,0.0,-3.5561,-3.5764,-3.586,-3.6086,-3.6228,-3.631,-3.6323,-3.637,-3.6417,-3.6417,-3.6119,-3.5646,-3.5533,-3.527,-3.4864,-3.4311,-3.406,-3.401,-3.3495,-3.3293,-3.3452,-3.3406,-3.3428,-3.3598,-3.3598,-3.3966,-3.4675,-3.5142,-3.5426,-3.5548,-3.583,-3.599,-3.6016,-3.5817,-3.571,-3.571,-3.5548,-3.5467,-3.548,-3.5277,-3.4941,-3.4473,-3.4017,-3.3551,-3.3065,-3.2692,-3.2697,-3.3173,-3.3072,-3.3126,-3.356,-3.3994,-3.4463,-3.4855,-3.5206,-3.5769,-3.6534,-3.6826,-3.7234,-3.7978,-3.8581,-3.8957,-3.9002,-3.9708,-4.0301,-4.0645,-4.1085,-4.1479,-4.2049,-4.2172,-4.2319,-4.2657,-4.2708,-4.2619,-4.2249,-4.2028,-4.1609,-4.0583,-4.0364,-4.0372,-4.0162,-4.0285,-4.0547,-4.1005,-4.1392,-4.1868,-4.2396,-4.2741,-4.3066,-4.3323,-4.3549,-4.3667,-4.3726,-4.396,-4.415,-4.4207,-4.4384,-4.4525,-4.4525,-4.457,-4.4598,-4.4598,-4.4598,-4.4598,-3.4883,-3.4397,-3.4454,-3.4285,-3.3966,-3.3957,-3.3687,-3.341,-3.4395,-3.4934,-3.5101,-3.4796,-3.4896,-3.532,-3.5368,-3.5608,-3.6051,-3.6051,-3.6193,0.0,-3.6417,-3.6367,-3.6267,-3.5768,-3.5458,-3.5345,-3.4864,-3.4613,-3.455,-3.4048,-3.3828,-3.3765,-3.335,-3.3154,-3.3197,-3.3197,-3.324,-3.3368,-3.3992,-3.4468,-3.4827,-3.4716,-3.4758,-3.4909,-3.4716,-3.4605,-3.4605,-3.4605,-3.4564,-3.4564,-3.4356,-3.4246,-3.4126,-3.385,-3.3685,-3.3579,-3.3356,-3.328,-3.3356,-3.3169,-3.3122,-3.3205,-3.4054,-3.4658,-3.4747,-3.5193,-3.584,-3.6591,-3.6709,-3.6959,-3.7539,-3.7677,-3.7939,-3.8291,-3.8472,-3.876,-3.9401,-3.9766,-4.0258,-4.1085,-4.1409,-4.1513,-4.1635,-4.1743,-4.1691,-4.1317,-4.1002,-4.0427,-3.9807,-3.9559,-3.9622,-3.9747,-3.9788,-3.995,-4.0355,-4.0681,-4.1107,-4.144,-4.1997,-4.2412,-4.2632,-4.2927,-4.3157,-4.3323,-4.3502,-4.3697,-4.3831,-4.4121,-4.4281,-4.431,-4.4412,-4.4514,-4.4514,-4.4525,-4.457,-3.4134,-3.3592,-3.3509,-3.3418,-3.32,-3.3121,-3.2958,-3.2763,-3.3074,-3.3512,-3.3889,-3.4035,-3.4267,-3.4516,-3.4687,-3.4896,-3.515,-3.5271,-3.55,-3.5752,-3.574,-3.5895,-3.6168,-3.5896,-3.5865,-3.5943,-3.5382,-3.5119,-3.5082,-3.4613,-3.4186,-3.3884,-3.3345,-3.3124,-3.3124,-3.3124,-3.3124,-3.3124,-3.3539,-3.381,-3.3979,-3.4008,-3.405,-3.4176,-3.4063,-3.4021,-3.4008,-3.4008,-3.4008,-3.4021,-3.381,-3.3738,-3.3696,-3.3484,-3.3398,-3.3356,-3.3283,-3.324,-3.324,-3.3167,-3.3124,-3.3162,-3.4098,-3.468,-3.468,-3.5504,-3.6128,-3.6508,-3.6534,-3.6653,-3.6875,-3.7028,-3.7155,-3.7361,-3.7618,-3.8063,-3.8581,-3.8908,-3.9367,-4.0057,-4.0194,-4.028,-4.0658,-4.0582,-4.045,-4.0224,-3.9906,-3.9556,-3.9309,-3.9352,-3.9424,-3.9532,-3.9553,-3.9646,-3.9879,-4.0176,-4.0489,-4.0817,-4.1192,-4.1508,-4.1738,-4.2029,-4.2285,-4.2396,-4.2741,-4.308,-4.3232,-4.3532,-4.3739,-4.3902,-4.3977,-4.4035,-4.4064,-4.4109,-4.4253,-3.3648,-3.3045,-3.2944,-3.2741,-3.2577,-3.2364,-3.2295,-3.2254,-3.1994,-3.2128,-3.2586,-3.3144,-3.3445,-3.3566,-3.3785,-3.4,-3.4152,-3.436,-3.4605,-3.4908,-3.5017,-3.5211,-3.562,-3.5716,-3.5847,-3.5988,-3.5556,-3.5357,-3.5295,-3.4844,-3.4325,-3.3834,-3.3383,-3.3151,-3.3124,-3.3124,-3.3124,-3.3124,-3.3227,-3.3326,-3.3356,-3.3484,-3.3543,-3.3556,-3.3556,-3.3556,-3.3543,-3.3543,-3.3556,-3.3556,-3.3398,-3.3356,-3.3313,-3.3197,-3.3124,-3.3124,-3.3124,-3.3124,-3.3124,-3.3124,-3.3174,-3.3282,-3.4161,-3.4731,-3.4919,-3.5793,-3.6417,-3.6417,-3.6417,-3.6417,-3.6465,-3.6546,-3.6628,-3.6675,-3.6968,-3.74,-3.7789,-3.8076,-3.8485,-3.9019,-3.8967,-3.9,-3.9326,-3.926,-3.9115,-3.9092,-3.8995,-3.8936,-3.8958,-3.9156,-3.9301,-3.9337,-3.9352,-3.946,-3.9625,-3.9803,-4.0036,-4.032,-4.0528,-4.0718,-4.0873,-4.114,-4.1357,-4.1507,-4.1916,-4.2301,-4.2522,-4.288,-4.3155,-4.3323,-4.3429,-4.3489,-4.3519,-4.3608,-4.3889,-3.323,-3.2887,-3.2851,-3.2338,-3.1692,-3.125,-3.1132,-3.1122,-3.1285,-3.1361,-3.1526,-3.1805,-3.2105,-3.235,-3.243,-3.2784,-3.3247,-3.335,-3.361,-3.4091,-3.4397,-3.4483,-3.4593,-3.4823,-3.492,-3.4957,-3.4896,-3.4848,-3.4824,-3.4531,-3.4102,-3.3598,-3.3481,-3.3364,-3.3113,-3.3106,-3.3093,-3.3068,-3.3124,-3.3124,-3.3124,-3.3167,-3.3154,-3.3167,-3.3167,-3.3154,-3.321,-3.3154,-3.3154,-3.3154,-3.3167,-3.3124,-3.3111,-3.3124,-3.3124,-3.3124,-3.3124,-3.3124,-3.3124,-3.3124,-3.3307,-3.3809,-3.4374,-3.4951,-3.537,-3.6006,-3.6417,-3.6417,-3.6417,-3.6417,-3.6417,-3.6417,-3.6452,-3.6452,-3.6499,-3.6581,-3.6896,-3.7062,-3.742,-3.79,-3.79,-3.7789,-3.7764,-3.7758,-3.7831,-3.7954,-3.8153,-3.8315,-3.8478,-3.8811,-3.9031,-3.9119,-3.9265,-3.9388,-3.946,-3.9589,-3.9753,-3.9824,-4.0041,-4.0216,-4.032,-4.0474,-4.0662,-4.0817,-4.1156,-4.1474,-4.1802,-4.2174,-4.2569,-4.26,-4.2803,-4.3096,-4.3127,-4.3171,-4.3472,-3.332,-3.3135,-3.29,-3.2451,-3.1875,-3.1445,-3.126,-3.124,-3.1103,-3.1054,-3.1082,-3.1177,-3.1431,-3.1806,-3.1868,-3.1901,-3.193,-3.2063,-3.2299,-3.26,-3.2678,-3.3089,-3.3648,-3.3796,-3.4005,-3.4299,-3.4311,-3.4311,-3.4265,-3.4042,-3.3801,-3.3579,-3.3414,-3.3271,-3.313,-3.2836,-3.2665,-3.2665,-3.2404,-3.2288,-3.232,-3.281,-3.3124,-3.3124,-3.3124,-3.3124,-3.3124,-3.3124,-3.3124,-3.3124,-3.3124,-3.3124,-3.3124,-3.3124,-3.3124,-3.3124,-3.3124,-3.3124,-3.3124,-3.337,-3.3658,-3.3897,-3.4713,-3.527,-3.5495,-3.6044,-3.6417,-3.6417,-3.6417,-3.6417,-3.6417,-3.6417,-3.6417,-3.6417,-3.6417,-3.6499,-3.6675,-3.6803,-3.7002,-3.7263,-3.6916,-3.6643,-3.6625,-3.6536,-3.652,-3.6652,-3.7053,-3.7505,-3.7763,-3.8127,-3.8412,-3.8575,-3.8738,-3.901,-3.9316,-3.946,-3.9517,-3.9538,-3.961,-3.9717,-3.9788,-3.9895,-4.0071,-4.0141,-4.0474,-4.0734,-4.0938,-4.1207,-4.1557,-4.1688,-4.1738,-4.1933,-4.2158,-4.2238,-4.2585,-3.3418,-3.3359,-3.2969,-3.2617,-3.2314,-3.1875,-3.1631,-3.1484,-3.1191,-3.0996,-3.0898,-3.0898,-3.105,-3.1311,-3.1379,-3.1213,-3.0971,-3.1134,-3.1328,-3.1523,-3.1486,-3.1834,-3.2538,-3.2555,-3.2739,-3.3039,-3.3089,-3.3189,-3.3304,-3.3163,-3.3091,-3.3217,-3.3066,-3.2959,-3.2945,-3.2563,-3.2408,-3.2361,-3.2048,-3.1914,-3.1971,-3.254,-3.2846,-3.2717,-3.2723,-3.2723,-3.2723,-3.2723,-3.2723,-3.2711,-3.2711,-3.2723,-3.2723,-3.2723,-3.2723,-3.2748,-3.2829,-3.2903,-3.2916,-3.3412,-3.3796,-3.3983,-3.4748,-3.5292,-3.5478,-3.5943,-3.625,-3.6275,-3.637,-3.6417,-3.6417,-3.6417,-3.6417,-3.6417,-3.6417,-3.6452,-3.6581,-3.6628,-3.6675,-3.6786,-3.6173,-3.5567,-3.5526,-3.537,-3.5291,-3.5521,-3.607,-3.6598,-3.6886,-3.726,-3.7682,-3.7863,-3.8089,-3.8464,-3.9046,-3.9265,-3.9301,-3.9337,-3.9388,-3.946,-3.9388,-3.9553,-3.961,-3.9788,-3.995,-4.0091,-4.032,-4.0474,-4.0715,-4.0836,-4.0888,-4.099,-4.1274,-4.1357,-4.1588,-3.3418,-3.3369,-3.2969,-3.2803,-3.2725,-3.2314,-3.1914,-3.1601,-3.1494,-3.1269,-3.0947,-3.0898,-3.0937,-3.0907,-3.0819,-3.074,-3.0801,-3.0815,-3.0994,-3.1218,-3.1059,-3.1031,-3.1053,-3.0956,-3.0961,-3.12,-3.1251,-3.1373,-3.1728,-3.1757,-3.1968,-3.2391,-3.2383,-3.2383,-3.2393,-3.2276,-3.2371,-3.2206,-3.2113,-3.223,-3.223,-3.2336,-3.2143,-3.1752,-3.1785,-3.1878,-3.1842,-3.1773,-3.1785,-3.1773,-3.1878,-3.1797,-3.1829,-3.1854,-3.1866,-3.189,-3.2199,-3.243,-3.2536,-3.2957,-3.3439,-3.3932,-3.429,-3.4699,-3.5149,-3.5607,-3.5908,-3.6015,-3.6193,-3.6323,-3.6358,-3.637,-3.6417,-3.6417,-3.6417,-3.6405,-3.6405,-3.6452,-3.6405,-3.6361,-3.5725,-3.5015,-3.4383,-3.4157,-3.4397,-3.4729,-3.5182,-3.5548,-3.583,-3.6413,-3.6819,-3.7028,-3.7337,-3.781,-3.8389,-3.8775,-3.9031,-3.9156,-3.9228,-3.9388,-3.9388,-3.9424,-3.9424,-3.9445,-3.9625,-3.9768,-3.9788,-3.9965,-4.0231,-4.037,-4.0405,-4.0509,-4.0612,-4.073,-4.0919,-3.3418,-3.3408,-3.3262,-3.3193,-3.3144,-3.2744,-3.248,-3.2285,-3.1748,-3.1435,-3.126,-3.1016,-3.0898,-3.0879,-3.0839,-3.063,-3.0452,-3.0422,-3.0452,-3.048,-3.0409,-3.0547,-3.0853,-3.0797,-3.0731,-3.0694,-3.0663,-3.0611,-3.0609,-3.0733,-3.0906,-3.1135,-3.1284,-3.1387,-3.1312,-3.1026,-3.0872,-3.085,-3.0585,-3.0398,-3.048,-3.0409,-3.0308,-3.0248,-3.1449,-3.2167,-3.2167,-3.2167,-3.2179,-3.2179,-3.2121,-3.2121,-3.2121,-3.2133,-3.2167,-3.2144,-3.2298,-3.2416,-3.2464,-3.2924,-3.3268,-3.3469,-3.3897,-3.4257,-3.4593,-3.4896,-3.5102,-3.5416,-3.556,-3.5752,-3.6086,-3.6275,-3.6417,-3.6417,-3.6417,-3.6417,-3.6417,-3.6417,-3.6417,-3.6254,-3.5495,-3.4603,-3.4139,-3.3798,-3.3709,-3.3894,-3.4285,-3.4605,-3.4868,-3.5264,-3.5588,-3.5763,-3.611,-3.6506,-3.6819,-3.7872,-3.8575,-3.887,-3.9068,-3.9228,-3.9301,-3.9316,-3.9301,-3.9373,-3.9481,-3.9532,-3.9589,-3.9625,-3.9859,-3.9824,-3.991,-4.0001,-3.9965,-4.0176,-4.0281,-3.3301,-3.3364,-3.3292,-3.3238,-3.3189,-3.2812,-3.2671,-3.2558,-3.2005,-3.1667,-3.1454,-3.1211,-3.1025,-3.0908,-3.0898,-3.0742,-3.0439,-3.042,-3.0378,-3.0293,-3.0135,-3.029,-3.0539,-3.0475,-3.0354,-3.0235,-3.0127,-2.9957,-2.9809,-2.9856,-2.9921,-3.0172,-3.0328,-3.0484,-3.0432,-3.0169,-3.0021,-2.9958,-2.9655,-2.9558,-2.9547,-2.9558,-2.9537,-2.9698,-3.0932,-3.1547,-3.1408,-3.1374,-3.1422,-3.1385,-3.1385,-3.1385,-3.1374,-3.1422,-3.1422,-3.1385,-3.1544,-3.1624,-3.1681,-3.2127,-3.2389,-3.2438,-3.2921,-3.3338,-3.3487,-3.3784,-3.4152,-3.4507,-3.486,-3.5114,-3.5464,-3.58,-3.6121,-3.631,-3.6417,-3.6417,-3.6417,-3.6417,-3.6304,-3.5994,-3.529,-3.4537,-3.3972,-3.3537,-3.3389,-3.3326,-3.3654,-3.3894,-3.4063,-3.4356,-3.4551,-3.4703,-3.5032,-3.544,-3.5803,-3.6598,-3.762,-3.8037,-3.8575,-3.8848,-3.9046,-3.9083,-3.9192,-3.9265,-3.9337,-3.9352,-3.9388,-3.9388,-3.9388,-3.9388,-3.9481,-3.9661,-3.9625,-3.9625,-3.9788,-3.3048,-3.3238,-3.3048,-3.2858,-3.2785,-3.2438,-3.2302,-3.2248,-3.2195,-3.1786,-3.1409,-3.1335,-3.1023,-3.0869,-3.0684,-3.0752,-3.0713,-3.0636,-3.0742,-3.079,-3.0448,-3.0262,-3.0309,-3.0042,-2.9836,-2.9708,-2.9196,-2.9164,-2.9367,-2.9092,-2.9149,-2.9511,-2.9554,-2.9659,-2.9942,-2.9828,-2.99,-2.9817,-2.9755,-2.9838,-2.9984,-2.9828,-2.9755,-2.9849,-2.9985,-2.9857,-2.9459,-2.9476,-2.9618,-2.9526,-2.9526,-2.9363,-2.9607,-2.9607,-2.9444,-2.9671,-2.987,-3.0072,-3.0136,-3.064,-3.0957,-3.1008,-3.137,-3.1728,-3.188,-3.2538,-3.3101,-3.33,-3.3796,-3.4288,-3.4434,-3.4811,-3.5452,-3.6228,-3.6275,-3.6323,-3.6323,-3.637,-3.6182,-3.5658,-3.5023,-3.4467,-3.3972,-3.3476,-3.3192,-3.321,-3.3326,-3.3441,-3.3526,-3.3823,-3.4034,-3.4118,-3.4314,-3.4592,-3.4936,-3.5358,-3.631,-3.7134,-3.7734,-3.8188,-3.8427,-3.8538,-3.8738,-3.8833,-3.9141,-3.9177,-3.9301,-3.9337,-3.9388,-3.9388,-3.9409,-3.9373,-3.9445,-3.9496,-3.946,-3.1955,-3.201,-3.1891,-3.1891,-3.1827,-3.1763,-3.168,-3.1604,-3.1353,-3.1065,-3.0881,-3.0358,-3.0022,-2.9933,-2.9708,-2.9695,-2.9853,-2.9903,-3.0225,-3.0743,-3.0732,-3.0654,-3.0635,-3.0527,-3.0303,-2.998,-2.957,-2.9264,-2.9084,-2.8898,-2.881,-2.8714,-2.8708,-2.8717,-2.8877,-2.8824,-2.8824,-2.8834,-2.8824,-2.8834,-2.8824,-2.8824,-2.8824,-2.8824,-2.8824,-2.877,-2.8625,-2.9343,-2.9766,-2.9734,-2.9755,-2.9766,-2.9755,-2.9766,-2.9766,-2.9776,-2.9891,-2.9974,-2.9995,-3.0141,-3.0245,-3.0297,-3.0443,-3.0599,-3.0744,-3.1094,-3.1545,-3.1993,-3.2336,-3.2689,-3.34,-3.3697,-3.4299,-3.5452,-3.5752,-3.5847,-3.58,-3.5847,-3.5833,-3.574,-3.5027,-3.4462,-3.4247,-3.369,-3.3088,-3.3081,-3.3111,-3.3185,-3.324,-3.3326,-3.3411,-3.3411,-3.3624,-3.3865,-3.423,-3.4564,-3.5168,-3.6004,-3.6663,-3.7323,-3.7606,-3.781,-3.8037,-3.8427,-3.876,-3.898,-3.9141,-3.9177,-3.9228,-3.9316,-3.9301,-3.9337,-3.9388,-3.9388,-3.9352,-3.0779,-3.0972,-3.0714,-3.0649,-3.0593,-3.0381,-3.039,-3.0558,-3.0334,-3.0265,-3.0221,-2.9796,-2.9471,-2.9317,-2.9091,-2.9013,-2.9057,-2.9168,-2.9521,-3.0068,-3.0587,-3.0772,-3.0898,-3.0898,-3.0762,-3.042,-3.001,-2.9658,-2.9385,-2.9062,-2.8779,-2.8555,-2.8369,-2.8291,-2.8301,-2.8301,-2.8301,-2.8301,-2.8291,-2.8291,-2.8291,-2.8301,-2.8301,-2.8301,-2.8291,-2.8291,-2.8344,-2.8983,-2.9363,-2.9363,-2.9353,-2.9353,-2.9363,-2.9343,-2.9353,-2.9353,-2.9353,-2.9343,-2.9353,-2.9343,-2.9353,-2.9353,-2.9469,-2.9574,-2.9774,-2.9921,-3.037,-3.0722,-3.1084,-3.1432,-3.2044,-3.2488,-3.3001,-3.3747,-3.4653,-3.5102,-3.515,-3.515,-3.5199,-3.5148,-3.4634,-3.4293,-3.3962,-3.3566,-3.2903,-3.2798,-3.2853,-3.2939,-3.2995,-3.3025,-3.3081,-3.3136,-3.3283,-3.3484,-3.3598,-3.3894,-3.4147,-3.4827,-3.5507,-3.6136,-3.661,-3.678,-3.6975,-3.7734,-3.815,-3.8464,-3.8612,-3.8738,-3.8811,-3.8958,-3.9083,-3.9119,-3.9083,-3.9228,-3.925,-2.9469,-2.9991,-2.9404,-2.9077,-2.9003,-2.8411,-2.8477,-2.9003,-2.906,-2.9124,-2.9317,-2.9105,-2.8977,-2.8787,-2.8379,-2.8242,-2.8395,-2.8403,-2.8548,-2.8786,-2.9468,-3.0147,-3.0587,-3.0645,-3.0616,-3.0645,-3.0305,-3.0148,-2.9963,-2.9378,-2.892,-2.8935,-2.8643,-2.8359,-2.8408,-2.835,-2.835,-2.8301,-2.8301,-2.8301,-2.8301,-2.8301,-2.8301,-2.8301,-2.8301,-2.8301,-2.8291,-2.8398,-2.8398,-2.8354,-2.8451,-2.8451,-2.8344,-2.8291,-2.8398,-2.8451,-2.8344,-2.8398,-2.8344,-2.8504,-2.8451,-2.8504,-2.8674,-2.8674,-2.8887,-2.9237,-2.9501,-2.9711,-3.0015,-3.0328,-3.0588,-3.1032,-3.1534,-3.1779,-3.3189,-3.4103,-3.4299,-3.4239,-3.4239,-3.4265,-3.409,-3.3755,-3.3356,-3.3022,-3.2629,-3.2422,-3.2565,-3.279,-3.2829,-3.2953,-3.3057,-3.3106,-3.3081,-3.3197,-3.3398,-3.3441,-3.3696,-3.3937,-3.4538,-3.5019,-3.5655,-3.591,-3.6149,-3.6872,-3.7505,-3.781,-3.8089,-3.815,-3.8277,-3.8375,-3.8538,-3.8701,-3.8775,-3.8833,-3.8943,-2.7028,-2.7153,-2.7028,-2.6961,-2.6894,-2.6694,-2.6761,-2.6961,-2.6961,-2.7031,-2.7036,-2.6732,-2.6654,-2.6397,-2.6239,-2.6248,-2.6634,-2.654,-2.7058,-2.766,-2.7798,-2.865,-2.9549,-2.9795,-2.9922,-3.0079,-2.9955,-2.9939,-2.9891,-2.9554,-2.9453,-2.9404,-2.9137,-2.8978,-2.8809,-2.8696,-2.8574,-2.833,-2.831,-2.8267,-2.8257,-2.8257,-2.8301,-2.8301,-2.8237,-2.8247,-2.8301,-2.8301,-2.8301,-2.8301,-2.8301,-2.8301,-2.8301,-2.8301,-2.8301,-2.8301,-2.8301,-2.8301,-2.8301,-2.8301,-2.8301,-2.8301,-2.8354,-2.8408,-2.8398,-2.8558,-2.8727,-2.8887,-2.9099,-2.9353,-2.9701,-3.0015,-3.0318,-3.0836,-3.1993,-3.2851,-3.2901,-3.2951,-3.3051,-3.3342,-3.3059,-3.2928,-3.2887,-3.2689,-3.2393,-3.2458,-3.2649,-3.2895,-3.2751,-3.2943,-3.3058,-3.2965,-3.2952,-3.3081,-3.3167,-3.3154,-3.324,-3.3283,-3.3611,-3.3924,-3.462,-3.5209,-3.5561,-3.6084,-3.6584,-3.6975,-3.7246,-3.7491,-3.7644,-3.7591,-3.7834,-3.791,-3.8113,-3.8225,-3.8352,-2.5502,-2.5637,-2.5502,-2.5435,-2.5435,-2.5307,-2.53,-2.5435,-2.5442,-2.551,-2.5592,-2.5442,-2.5271,-2.5256,-2.5091,-2.5116,-2.5356,-2.5293,-2.5564,-2.5845,-2.5831,-2.6892,-2.8343,-2.882,-2.9007,-2.9263,-2.9322,-2.9378,-2.9397,-2.9295,-2.9107,-2.8994,-2.8861,-2.8642,-2.8368,-2.8395,-2.83,-2.8045,-2.8043,-2.7977,-2.7806,-2.7796,-2.7663,-2.7641,-2.7593,-2.7695,-2.7911,-2.8122,-2.8217,-2.8296,-2.8301,-2.8301,-2.8301,-2.8301,-2.8301,-2.8301,-2.8301,-2.8301,-2.8301,-2.8301,-2.8301,-2.8301,-2.8301,-2.8301,-2.8291,-2.8291,-2.8398,-2.8514,-2.8568,-2.8717,-2.8983,-2.9142,-2.9396,-2.9858,-3.0578,-3.1197,-3.1494,-3.1556,-3.171,-3.1876,-3.1861,-3.1711,-3.1901,-3.1743,-3.1709,-3.1695,-3.2042,-3.2253,-3.2447,-3.2759,-3.2889,-3.271,-3.2498,-3.2481,-3.25,-3.2475,-3.2581,-3.2624,-3.2927,-3.3172,-3.3725,-3.4439,-3.4853,-3.5237,-3.5669,-3.607,-3.6308,-3.6466,-3.6413,-3.6531,-3.6844,-3.7116,-3.7323,-3.7453,-3.7567,-2.4503,-2.4774,-2.4435,-2.4367,-2.4292,-2.4027,-2.4088,-2.4299,-2.436,-2.4495,-2.4692,-2.4766,-2.4648,-2.4766,-2.453,-2.4593,-2.4399,-2.4554,-2.4353,-2.4292,-2.426,-2.5293,-2.6944,-2.7435,-2.7744,-2.8113,-2.8241,-2.8412,-2.8491,-2.8355,-2.8295,-2.8312,-2.8028,-2.776,-2.7754,-2.7735,-2.7669,-2.7607,-2.7543,-2.7406,-2.7195,-2.715,-2.7086,-2.6866,-2.682,-2.705,-2.741,-2.7753,-2.7962,-2.8188,-2.8242,-2.8247,-2.8237,-2.8237,-2.8301,-2.8301,-2.8301,-2.8301,-2.8301,-2.8301,-2.8301,-2.8301,-2.8301,-2.8301,-2.8301,-2.8291,-2.8291,-2.8354,-2.8301,-2.8344,-2.8398,-2.8568,-2.8781,-2.9079,-2.9122,-2.9448,-2.9973,-3.0224,-3.0276,-3.0339,-3.0578,-3.0407,-3.0327,-3.0317,-3.0611,-3.0993,-3.1341,-3.1715,-3.2001,-3.2289,-3.2368,-3.2267,-3.2022,-3.1793,-3.1757,-3.1721,-3.1849,-3.1945,-3.2307,-3.2612,-3.3043,-3.3641,-3.4034,-3.4439,-3.4868,-3.5073,-3.5114,-3.5196,-3.5305,-3.5467,-3.5816,-3.6136,-3.6387,-3.6466,-3.6584,-2.327,-2.3338,-2.327,-2.3277,-2.327,-2.3208,-2.3201,-2.327,-2.3277,-2.3406,-2.3338,-2.3406,-2.3406,-2.3406,-2.3475,-2.3434,-2.3656,-2.3507,-2.3278,-2.3355,-2.3322,-2.3549,-2.4448,-2.5186,-2.605,-2.6493,-2.6614,-2.6909,-2.722,-2.7288,-2.7553,-2.7875,-2.7564,-2.7685,-2.7301,-2.7131,-2.7213,-2.6942,-2.6907,-2.6783,-2.6628,-2.6584,-2.6588,-2.6455,-2.653,-2.6649,-2.6891,-2.723,-2.7411,-2.7492,-2.772,-2.7851,-2.8003,-2.8208,-2.8272,-2.8281,-2.8306,-2.8276,-2.832,-2.8315,-2.831,-2.8325,-2.8408,-2.8301,-2.8301,-2.832,-2.831,-2.8301,-2.8301,-2.8301,-2.8291,-2.8354,-2.8451,-2.8504,-2.8558,-2.8558,-2.8761,-2.9122,-2.9491,-2.9711,-2.9816,-2.988,-2.9953,-2.9984,-3.0159,-3.0312,-3.0665,-3.1122,-3.1428,-3.1686,-3.1654,-3.1559,-3.1379,-3.1055,-3.102,-3.0938,-3.0919,-3.1095,-3.146,-3.1869,-3.2295,-3.2828,-3.3258,-3.3654,-3.4034,-3.4147,-3.4272,-3.4397,-3.4592,-3.4716,-3.484,-3.5114,-3.5345,-3.5426,-3.5588,-2.2866,-2.2866,-2.2866,-2.2866,-2.2866,-2.2866,-2.2866,-2.2866,-2.2866,-2.2866,-2.2866,-2.2866,-2.2866,-2.2866,-2.2866,-2.2996,-2.3065,-2.2822,-2.2642,-2.2609,-2.2475,-2.2384,-2.2487,-2.3098,-2.3907,-2.478,-2.4903,-2.5194,-2.5493,-2.5668,-2.5757,-2.6147,-2.6208,-2.591,-2.583,-2.5849,-2.5654,-2.5471,-2.5456,-2.539,-2.5241,-2.5208,-2.5093,-2.516,-2.5403,-2.5688,-2.5696,-2.6165,-2.6341,-2.6493,-2.6709,-2.7216,-2.7714,-2.7935,-2.799,-2.8055,-2.8174,-2.8229,-2.8294,-2.8504,-2.8697,-2.8649,-2.8832,-2.875,-2.8652,-2.8594,-2.8467,-2.835,-2.8301,-2.8301,-2.8301,-2.8291,-2.8301,-2.8301,-2.8301,-2.8301,-2.8354,-2.8548,-2.8761,-2.8973,-2.8983,-2.9036,-2.9142,-2.9406,-2.9438,-2.9495,-2.9902,-3.0324,-3.0464,-3.0701,-3.0734,-3.0684,-3.0519,-3.0384,-3.0331,-3.0227,-2.9986,-3.0148,-3.0464,-3.088,-3.1327,-3.1913,-3.2494,-3.2914,-3.3356,-3.3539,-3.3654,-3.3781,-3.3852,-3.3979,-3.405,-3.4189,-3.4397,-3.4634,-3.4799,-2.2866,-2.2866,-2.2866,-2.2866,-2.2866,-2.2866,-2.2866,-2.2866,-2.2866,-2.2866,-2.2866,-2.2866,-2.2866,-2.2866,-2.2866,-2.2866,-2.2854,-2.2565,-2.2378,-2.2236,-2.1916,-2.1849,-2.189,-2.2026,-2.2412,-2.3249,-2.3439,-2.3658,-2.3891,-2.3891,-2.4139,-2.4008,-2.4008,-2.4232,-2.4054,-2.4008,-2.414,-2.4155,-2.4147,-2.4009,-2.3703,-2.3657,-2.3528,-2.3549,-2.3943,-2.4332,-2.4453,-2.4868,-2.5228,-2.5204,-2.5418,-2.6097,-2.6849,-2.748,-2.7576,-2.7539,-2.7702,-2.7854,-2.8005,-2.8352,-2.8652,-2.8897,-2.9037,-2.9041,-2.8716,-2.8555,-2.8384,-2.8257,-2.816,-2.816,-2.8226,-2.8279,-2.825,-2.8309,-2.8325,-2.8345,-2.8325,-2.8296,-2.8344,-2.8398,-2.8504,-2.8611,-2.8558,-2.8674,-2.8674,-2.8737,-2.9195,-2.9533,-2.9672,-2.9818,-3.0,-3.0053,-2.9942,-2.965,-2.9559,-2.9353,-2.9154,-2.9264,-2.9494,-2.9852,-3.0306,-3.0925,-3.1548,-3.2276,-3.2667,-3.2797,-3.2927,-3.2957,-3.3043,-3.3172,-3.3356,-3.3569,-3.3738,-3.392,-3.4034,-2.2866,-2.2866,-2.2866,-2.2866,-2.2866,-2.2866,-2.2866,-2.2866,-2.2866,-2.2866,-2.2866,-2.2866,-2.2866,-2.2866,-2.2866,-2.2866,-2.2792,-2.2592,-2.2405,-2.2231,-2.1871,-2.1766,-2.184,-2.1744,-2.1862,-2.1915,-2.2244,-2.2622,-2.2793,-2.2856,-2.2973,-2.3168,-2.323,-2.3223,-2.3161,-2.3285,-2.3161,-2.3098,-2.3161,-2.3102,-2.2996,-2.2967,-2.3007,-2.2904,-2.317,-2.3276,-2.3368,-2.3692,-2.3893,-2.3947,-2.4255,-2.4499,-2.5016,-2.6049,-2.6591,-2.6747,-2.688,-2.7031,-2.7262,-2.7486,-2.7717,-2.786,-2.8105,-2.8134,-2.7957,-2.7919,-2.7883,-2.7837,-2.779,-2.7781,-2.7827,-2.794,-2.8146,-2.8201,-2.8308,-2.841,-2.8398,-2.8358,-2.8325,-2.8335,-2.8296,-2.8291,-2.8354,-2.8354,-2.8408,-2.8514,-2.8771,-2.893,-2.9039,-2.9315,-2.9568,-2.9539,-2.9446,-2.9102,-2.8757,-2.8512,-2.8265,-2.8413,-2.8591,-2.8754,-2.9242,-2.9943,-3.0566,-3.1003,-3.1637,-3.2045,-3.2089,-3.2164,-3.2351,-3.2568,-3.2754,-3.2896,-3.3056,-3.3185,-3.327,-2.2866,-2.2866,-2.2866,-2.2866,-2.2866,-2.2866,-2.2866,-2.2866,-2.2866,-2.2866,-2.2866,-2.2866,-2.2866,-2.2866,-2.2866,-2.2866,-2.2812,-2.2739,-2.2565,-2.2372,-2.2144,-2.1957,-2.2017,-2.183,-2.1856,-2.1874,-2.2005,-2.1945,-2.1824,-2.1796,-2.1992,-2.1985,-2.2048,-2.2048,-2.2048,-2.2041,-2.2104,-2.2104,-2.2104,-2.2104,-2.2104,-2.2104,-2.2104,-2.2104,-2.223,-2.2292,-2.2362,-2.2668,-2.2793,-2.2911,-2.3153,-2.3285,-2.3608,-2.4177,-2.5011,-2.5302,-2.566,-2.5923,-2.6287,-2.66,-2.7217,-2.7317,-2.7575,-2.771,-2.7584,-2.7512,-2.7324,-2.7229,-2.7167,-2.7167,-2.7197,-2.7317,-2.747,-2.768,-2.7911,-2.8117,-2.8293,-2.832,-2.8311,-2.8294,-2.8276,-2.8252,-2.8291,-2.8301,-2.8301,-2.8344,-2.8398,-2.8461,-2.8514,-2.8771,-2.9132,-2.9041,-2.8965,-2.8712,-2.8411,-2.8137,-2.7821,-2.7834,-2.7807,-2.7931,-2.8119,-2.8732,-2.9071,-2.936,-3.0045,-3.0913,-3.1371,-3.1492,-3.1725,-3.1913,-3.2057,-3.2189,-3.232,-3.2407,-3.2494,-2.2654,-2.2791,-2.2797,-2.2791,-2.2866,-2.2866,-2.2866,-2.2866,-2.2866,-2.2866,-2.2866,-2.2866,-2.2866,-2.2866,-2.2866,-2.2866,-2.2866,-2.2921,-2.2719,-2.2559,-2.2412,-2.2278,-2.2211,-2.2091,-2.2071,-2.2064,-2.2104,-2.1797,-2.1551,-2.1397,-2.1273,-2.1386,-2.1233,-2.1102,-2.1166,-2.1355,-2.1102,-2.1102,-2.1102,-2.1102,-2.1102,-2.1102,-2.1102,-2.1102,-2.1362,-2.1544,-2.1607,-2.1796,-2.1922,-2.1978,-2.2167,-2.2299,-2.2355,-2.2543,-2.2911,-2.3527,-2.4209,-2.4641,-2.5048,-2.5513,-2.6048,-2.6152,-2.678,-2.6876,-2.6721,-2.6347,-2.638,-2.6241,-2.6148,-2.6065,-2.6058,-2.6274,-2.6457,-2.674,-2.7102,-2.7552,-2.7831,-2.7949,-2.8021,-2.8007,-2.8096,-2.8178,-2.8174,-2.8301,-2.8301,-2.8301,-2.8344,-2.8344,-2.8408,-2.8354,-2.8558,-2.8451,-2.8416,-2.8298,-2.8147,-2.8014,-2.7708,-2.7552,-2.742,-2.7378,-2.7356,-2.7514,-2.7804,-2.8196,-2.8749,-2.9567,-3.017,-3.0689,-3.0734,-3.088,-3.1217,-3.1439,-3.1593,-3.1725,-3.1813,-2.176,-2.2379,-2.2372,-2.2585,-2.2791,-2.2791,-2.2866,-2.2791,-2.2791,-2.2866,-2.2722,-2.2859,-2.2791,-2.2859,-2.2859,-2.2859,-2.2866,-2.2859,-2.2894,-2.2732,-2.2565,-2.2559,-2.2727,-2.2472,-2.2392,-2.2372,-2.2372,-2.2191,-2.1884,-2.1637,-2.1574,-2.1527,-2.1269,-2.1116,-2.1169,-2.1176,-2.1102,-2.1116,-2.1129,-2.1136,-2.1129,-2.1136,-2.1129,-2.1109,-2.1172,-2.1172,-2.1235,-2.1292,-2.1292,-2.1292,-2.1292,-2.1292,-2.1292,-2.1299,-2.1362,-2.1796,-2.2543,-2.3479,-2.372,-2.4092,-2.4394,-2.4633,-2.474,-2.4602,-2.4708,-2.4745,-2.4721,-2.4478,-2.4469,-2.459,-2.468,-2.5003,-2.5225,-2.5633,-2.6049,-2.6557,-2.6941,-2.7364,-2.7466,-2.7473,-2.7447,-2.7765,-2.7966,-2.8174,-2.8301,-2.8301,-2.8291,-2.8237,-2.8291,-2.8237,-2.8301,-2.8301,-2.8301,-2.8193,-2.8125,-2.8025,-2.777,-2.7457,-2.7268,-2.7023,-2.701,-2.7063,-2.6934,-2.7372,-2.7831,-2.82,-2.8702,-2.9119,-2.9463,-2.9783,-3.0011,-3.0464,-3.0946,-3.0991,-3.0946,-1.9454,-2.1057,-2.1276,-2.1496,-2.1634,-2.1628,-2.1628,-2.1628,-2.1622,-2.1634,-2.1697,-2.1904,-2.2173,-2.2448,-2.2585,-2.2715,-2.2859,-2.2859,-2.2859,-2.2859,-2.2664,-2.2739,-2.2792,-2.2739,-2.2672,-2.2652,-2.2665,-2.2639,-2.2365,-2.2038,-2.1862,-2.1822,-2.1588,-2.1376,-2.1356,-2.1363,-2.137,-2.1416,-2.1496,-2.1516,-2.1467,-2.1349,-2.1276,-2.1116,-2.1109,-2.1102,-2.1102,-2.1102,-2.1102,-2.1102,-2.1102,-2.1102,-2.1102,-2.1102,-2.1102,-2.1172,-2.1607,-2.2111,-2.2425,-2.2801,-2.3106,-2.3223,-2.3402,-2.3589,-2.3527,-2.3527,-2.3527,-2.3589,-2.3527,-2.3534,-2.3534,-2.3783,-2.4031,-2.4394,-2.4889,-2.5351,-2.5884,-2.6532,-2.6807,-2.6787,-2.6756,-2.6875,-2.7031,-2.6985,-2.7202,-2.7552,-2.7622,-2.7691,-2.7916,-2.8184,-2.8237,-2.8301,-2.8301,-2.8271,-2.8242,-2.8188,-2.7963,-2.7699,-2.7562,-2.7316,-2.6971,-2.6874,-2.6793,-2.6553,-2.6695,-2.701,-2.732,-2.7778,-2.8387,-2.862,-2.8852,-2.9211,-2.9578,-2.9669,-2.9726,-1.6921,-1.8745,-1.9738,-2.0237,-2.0388,-2.0388,-2.0382,-2.0382,-2.0451,-2.0382,-2.0521,-2.0792,-2.1276,-2.1691,-2.1829,-2.1966,-2.2317,-2.231,-2.2379,-2.2379,-2.2448,-2.2366,-2.2441,-2.2497,-2.2702,-2.2722,-2.2819,-2.2806,-2.2699,-2.2458,-2.2198,-2.2084,-2.1804,-2.1683,-2.1663,-2.1663,-2.1663,-2.1677,-2.183,-2.1824,-2.1748,-2.1641,-2.143,-2.1276,-2.1156,-2.1102,-2.1102,-2.1102,-2.1102,-2.1102,-2.1102,-2.1102,-2.1102,-2.1102,-2.1102,-2.1102,-2.1292,-2.1355,-2.167,-2.1922,-2.2174,-2.2292,-2.2418,-2.248,-2.2543,-2.2606,-2.2606,-2.2543,-2.2543,-2.2543,-2.2606,-2.2668,-2.2856,-2.3223,-2.369,-2.4139,-2.4602,-2.5202,-2.5446,-2.5299,-2.5252,-2.5428,-2.5479,-2.5552,-2.596,-2.6628,-2.6919,-2.7062,-2.7359,-2.7691,-2.7745,-2.7638,-2.7638,-2.7691,-2.7789,-2.7829,-2.7762,-2.7761,-2.7668,-2.7588,-2.7207,-2.6926,-2.6792,-2.6467,-2.6113,-2.63,-2.6857,-2.7061,-2.7315,-2.7647,-2.7882,-2.7882,-2.8023,-2.8211,-2.8538,-1.4738,-1.5088,-1.7494,-1.8826,-1.9465,-1.9605,-1.9535,-1.9256,-1.939,-1.939,-1.9396,-1.9883,-2.0017,-2.03,-2.0578,-2.0798,-2.0867,-2.0873,-2.0937,-2.1075,-2.1144,-2.1346,-2.1484,-2.1897,-2.2242,-2.231,-2.2379,-2.2592,-2.2784,-2.2431,-2.2362,-2.2385,-2.2031,-2.1997,-2.1957,-2.1957,-2.1997,-2.2011,-2.2104,-2.2064,-2.1911,-2.177,-2.1597,-2.149,-2.1276,-2.1116,-2.1109,-2.1116,-2.1102,-2.1102,-2.1102,-2.1102,-2.1102,-2.1102,-2.1102,-2.1102,-2.1102,-2.1166,-2.1292,-2.1292,-2.1229,-2.1235,-2.1362,-2.1538,-2.1607,-2.1355,-2.1292,-2.1481,-2.1607,-2.1481,-2.1481,-2.1544,-2.1922,-2.2167,-2.2606,-2.2973,-2.3402,-2.376,-2.3971,-2.3779,-2.3898,-2.4233,-2.415,-2.426,-2.4877,-2.5561,-2.6177,-2.6317,-2.6455,-2.6708,-2.6763,-2.6763,-2.6763,-2.6817,-2.7034,-2.7067,-2.7119,-2.7258,-2.725,-2.7401,-2.747,-2.7159,-2.6666,-2.6725,-2.6499,-2.6434,-2.6339,-2.6634,-2.6833,-2.6921,-2.7003,-2.7003,-2.7136,-2.741,-2.76,-1.3325,-1.3892,-1.488,-1.5797,-1.672,-1.6715,-1.6715,-1.672,-1.6715,-1.7072,-1.7494,-1.77,-1.8196,-1.8832,-1.9181,-1.9529,-1.9883,-1.9959,-1.9889,-1.9959,-2.0092,-2.03,-2.0578,-2.0717,-2.1063,-2.1283,-2.149,-2.1565,-2.1496,-2.1628,-2.1527,-2.1475,-2.178,-2.2225,-2.2251,-2.2131,-2.2271,-2.2404,-2.2485,-2.2452,-2.2245,-2.2158,-2.2004,-2.1804,-2.1601,-2.1403,-2.1363,-2.1196,-2.1136,-2.1052,-2.1066,-2.1009,-2.1022,-2.1086,-2.1066,-2.1059,-2.1059,-2.1102,-2.1102,-2.1102,-2.1102,-2.1102,-2.1102,-2.1102,-2.1102,-2.1102,-2.1102,-2.1102,-2.1102,-2.1102,-2.1166,-2.1229,-2.1362,-2.1425,-2.1677,-2.2048,-2.2292,-2.2731,-2.2889,-2.2864,-2.3126,-2.3434,-2.3215,-2.3036,-2.3751,-2.4505,-2.5076,-2.5555,-2.5544,-2.5595,-2.5604,-2.556,-2.5542,-2.5771,-2.5935,-2.6209,-2.6472,-2.667,-2.6803,-2.6943,-2.7043,-2.6825,-2.6489,-2.6678,-2.6792,-2.6579,-2.6439,-2.6407,-2.6428,-2.6503,-2.6373,-2.6245,-2.6428,-2.6658,-2.6849,-1.2334,-1.2757,-1.2757,-1.3535,-1.4604,-1.4675,-1.4675,-1.4675,-1.4746,-1.4959,-1.5523,-1.5664,-1.6226,-1.7067,-1.7354,-1.7559,-1.784,-1.7986,-1.8051,-1.8126,-1.8266,-1.8686,-1.8966,-1.9384,-1.9738,-2.0028,-2.0312,-2.0388,-2.0382,-2.0382,-2.0364,-2.065,-2.1102,-2.1412,-2.1807,-2.1888,-2.1985,-2.2196,-2.2222,-2.217,-2.1813,-2.1691,-2.16,-2.1355,-2.1043,-2.0902,-2.0812,-2.0605,-2.0516,-2.0573,-2.0702,-2.0734,-2.0862,-2.0977,-2.1058,-2.1089,-2.1099,-2.1052,-2.1109,-2.1102,-2.1102,-2.1102,-2.1102,-2.1102,-2.1102,-2.1109,-2.1102,-2.1102,-2.1102,-2.1102,-2.1102,-2.1102,-2.1166,-2.1235,-2.1299,-2.1607,-2.167,-2.1922,-2.2048,-2.2111,-2.2327,-2.2368,-2.2374,-2.2243,-2.2802,-2.3407,-2.3707,-2.4089,-2.4088,-2.415,-2.4244,-2.4234,-2.4214,-2.4501,-2.4834,-2.4816,-2.4974,-2.5698,-2.5864,-2.6164,-2.6218,-2.6071,-2.6203,-2.6414,-2.6501,-2.6551,-2.6426,-2.6248,-2.6126,-2.6045,-2.6006,-2.5976,-2.5965,-2.6187,-2.6245,-1.1619,-1.1616,-1.1688,-1.2545,-1.3757,-1.39,-1.3829,-1.3757,-1.3829,-1.39,-1.4039,-1.4319,-1.46,-1.488,-1.5234,-1.5518,-1.5593,-1.5523,-1.5523,-1.5735,-1.623,-1.6367,-1.6861,-1.7494,-1.8056,-1.8546,-1.8692,-1.8901,-1.9186,-1.8971,-1.9111,-1.9117,-1.9194,-1.9883,-2.0572,-2.0717,-2.0729,-2.0735,-2.0804,-2.0843,-2.0782,-2.0549,-2.044,-2.0342,-2.0191,-2.0044,-1.9983,-1.9782,-1.9733,-1.9819,-1.9911,-2.0067,-2.0275,-2.0583,-2.0773,-2.0883,-2.0919,-2.0992,-2.1016,-2.1066,-2.1049,-2.1119,-2.1209,-2.1209,-2.1162,-2.1142,-2.1169,-2.1216,-2.1136,-2.1109,-2.1102,-2.1102,-2.1102,-2.1102,-2.1172,-2.1235,-2.1292,-2.1355,-2.1481,-2.1607,-2.1355,-2.1229,-2.1355,-2.1512,-2.1911,-2.2319,-2.2445,-2.2607,-2.2759,-2.2905,-2.3097,-2.3051,-2.3013,-2.3095,-2.3263,-2.3199,-2.348,-2.4326,-2.4825,-2.4936,-2.5212,-2.5263,-2.5501,-2.5928,-2.6036,-2.5905,-2.5996,-2.5977,-2.5937,-2.5884,-2.5868,-2.584,-2.5781,-2.5771,-2.5868,-1.1616,-1.1616,-1.1616,-1.1903,-1.2334,-1.2334,-1.2406,-1.2334,-1.2402,-1.2545,-1.2764,-1.2975,-1.3329,-1.3607,-1.3821,-1.3963,-1.4252,-1.4256,-1.4256,-1.4324,-1.4604,-1.4817,-1.5239,-1.5589,-1.6009,-1.6155,-1.6508,-1.672,-1.6437,-1.6715,-1.6579,-1.6508,-1.7002,-1.7845,-1.9251,-1.9889,-1.9889,-1.9889,-1.9889,-1.9883,-1.9878,-1.9727,-1.96,-1.9519,-1.9283,-1.9106,-1.9083,-1.872,-1.8669,-1.8816,-1.8896,-1.9131,-1.9419,-1.9748,-1.9922,-2.0108,-2.0235,-2.0248,-2.0241,-2.0301,-2.0675,-2.1032,-2.1345,-2.1354,-2.163,-2.1483,-2.1436,-2.1363,-2.1263,-2.1203,-2.1102,-2.1116,-2.1116,-2.1102,-2.1102,-2.1102,-2.1166,-2.1166,-2.1229,-2.1229,-2.1102,-2.1102,-2.1166,-2.1235,-2.1513,-2.1768,-2.1946,-2.1925,-2.203,-2.2038,-2.2092,-2.1987,-2.194,-2.1812,-2.1801,-2.1983,-2.2116,-2.2741,-2.3087,-2.3199,-2.3584,-2.4086,-2.4467,-2.4756,-2.5035,-2.5293,-2.5334,-2.5451,-2.5706,-2.5741,-2.574,-2.5817,-2.5859,-2.5801,-2.5742,-1.1616,-1.1616,-1.1616,-1.1616,-1.1616,-1.1616,-1.1616,-1.1616,-1.1616,-1.1763,-1.1979,-1.1979,-1.2262,-1.2613,-1.2757,-1.2828,-1.3118,-1.3118,-1.3118,-1.3118,-1.3261,-1.3472,-1.3682,-1.3963,-1.4386,-1.4391,-1.4533,-1.4679,-1.4888,-1.4675,-1.4746,-1.4817,-1.4675,-1.573,-1.7072,-1.7494,-1.777,-1.77,-1.763,-1.77,-1.77,-1.776,-1.783,-1.7723,-1.763,-1.7552,-1.7558,-1.7444,-1.7308,-1.7413,-1.7612,-1.7805,-1.8094,-1.8547,-1.8857,-1.9104,-1.9346,-1.9323,-1.9409,-1.9409,-1.9808,-2.0435,-2.092,-2.1339,-2.1661,-2.1588,-2.16,-2.1572,-2.1419,-2.1372,-2.1261,-2.1312,-2.1235,-2.1235,-2.1162,-2.1175,-2.1172,-2.1179,-2.1059,-2.1116,-2.1102,-2.1102,-2.1102,-2.1102,-2.1225,-2.1359,-2.1485,-2.141,-2.139,-2.1385,-2.1322,-2.1215,-2.1122,-2.1037,-2.1002,-2.1061,-2.122,-2.1246,-2.1546,-2.1941,-2.2184,-2.2741,-2.3135,-2.348,-2.3599,-2.39,-2.4518,-2.4841,-2.4977,-2.5305,-2.5574,-2.5707,-2.5902,-2.5916,-2.5808,-1.1616,-1.1616,-1.1616,-1.1616,-1.1616,-1.1616,-1.1616,-1.1616,-1.1616,-1.1619,-1.1616,-1.1616,-1.176,-1.1688,-1.1688,-1.176,-1.1832,-1.1832,-1.1832,-1.1907,-1.2266,-1.2334,-1.2549,-1.2904,-1.3111,-1.3325,-1.3472,-1.3543,-1.3757,-1.3611,-1.3615,-1.3686,-1.3615,-1.4039,-1.4462,-1.4813,-1.5234,-1.5518,-1.566,-1.566,-1.573,-1.5447,-1.5589,-1.5571,-1.5552,-1.5468,-1.5418,-1.5257,-1.5201,-1.528,-1.5542,-1.5868,-1.6428,-1.7279,-1.7702,-1.795,-1.8202,-1.8158,-1.8209,-1.8101,-1.8433,-1.8908,-1.9487,-2.0342,-2.105,-2.1215,-2.1284,-2.1371,-2.1339,-2.1496,-2.1635,-2.1549,-2.1529,-2.1444,-2.139,-2.1382,-2.1412,-2.1305,-2.1132,-2.1072,-2.1109,-2.1102,-2.1102,-2.1102,-2.1102,-2.1139,-2.1267,-2.1186,-2.1149,-2.0958,-2.0862,-2.0644,-2.0549,-2.04,-2.0417,-2.059,-2.0638,-2.0789,-2.0813,-2.1046,-2.1263,-2.1491,-2.1922,-2.2223,-2.2116,-2.2467,-2.3223,-2.3797,-2.4196,-2.4505,-2.4728,-2.5281,-2.5377,-2.5929,-2.6012,-1.1616,-1.1616,-1.1616,-1.1616,-1.1616,-1.1616,-1.1616,-1.1616,-1.1616,-1.1616,-1.1616,-1.1616,-1.1616,-1.1616,-1.1616,-1.1616,-1.1616,-1.1616,-1.1616,-1.1691,-1.1763,-1.1763,-1.1903,-1.2047,-1.2115,-1.2187,-1.2259,-1.2477,-1.233,-1.233,-1.233,-1.2262,-1.2477,-1.2406,-1.2474,-1.2542,-1.3325,-1.3896,-1.411,-1.411,-1.411,-1.411,-1.411,-1.411,-1.411,-1.411,-1.4077,-1.4052,-1.4064,-1.4202,-1.434,-1.4574,-1.5057,-1.5318,-1.5573,-1.5854,-1.5934,-1.598,-1.604,-1.6036,-1.6404,-1.6927,-1.7364,-1.8633,-1.9679,-2.0385,-2.0484,-2.0717,-2.077,-2.0812,-2.0799,-2.0793,-2.0866,-2.087,-2.0822,-2.0912,-2.0934,-2.1052,-2.0947,-2.1075,-2.1049,-2.1102,-2.1102,-2.1102,-2.1102,-2.1102,-2.1082,-2.1036,-2.0969,-2.0828,-2.0735,-2.0575,-2.0441,-2.0395,-2.0281,-2.0401,-2.0361,-2.0313,-2.0376,-2.0492,-2.0743,-2.0982,-2.0993,-2.109,-2.1241,-2.1554,-2.1957,-2.2476,-2.2943,-2.3311,-2.3568,-2.4324,-2.4959,-2.5398,-2.5832,-1.1616,-1.1616,-1.1616,-1.1616,-1.1616,-1.1616,-1.1616,-1.1616,-1.1616,-1.1616,-1.1616,-1.1616,-1.1616,-1.1616,-1.1616,-1.1616,-1.1616,-1.1616,-1.1616,-1.1616,-1.1616,-1.1616,-1.1616,-1.1616,-1.1688,-1.1616,-1.1616,-1.176,-1.1616,-1.1616,-1.1616,-1.1688,-1.1616,-1.1616,-1.1688,-1.1903,-1.2119,-1.2689,-1.2975,-1.2975,-1.3047,-1.3047,-1.2971,-1.3043,-1.3047,-1.3047,-1.3043,-1.3043,-1.3043,-1.3047,-1.3047,-1.3333,-1.3682,-1.3817,-1.4244,-1.4587,-1.4649,-1.4707,-1.4774,-1.4712,-1.4875,-1.5168,-1.5452,-1.6277,-1.7578,-1.8528,-1.9255,-1.9908,-1.9796,-1.9714,-1.9702,-1.969,-1.9838,-1.9979,-2.0135,-2.0282,-2.0491,-2.0689,-2.0805,-2.1023,-2.1095,-2.1072,-2.1102,-2.1046,-2.1102,-2.1102,-2.1102,-2.1089,-2.1056,-2.0989,-2.0935,-2.0855,-2.0728,-2.0615,-2.0501,-2.0388,-2.0388,-2.0375,-2.0248,-2.0348,-2.0429,-2.0482,-2.0543,-2.0552,-2.0561,-2.0852,-2.1097,-2.1246,-2.1601,-2.1972,-2.2377,-2.2847,-2.3645,-2.457,-2.5004,-1.1616,-1.1616,-1.1616,-1.1616,-1.1616,-1.1616,-1.1616,-1.1616,-1.1616,-1.1616,-1.1616,-1.1616,-1.1616,-1.1616,-1.1616,-1.1616,-1.1616,-1.1616,-1.1616,-1.1616,-1.1616,-1.1616,-1.1616,-1.1616,-1.1616,-1.1616,-1.1616,-1.1616,-1.1616,-1.1616,-1.1616,-1.1616,-1.1616,-1.1616,-1.1616,-1.1616,-1.176,-1.1903,-1.2047,-1.1975,-1.1832,-1.1688,-1.1616,-1.1688,-1.176,-1.176,-1.1688,-1.1688,-1.1616,-1.1763,-1.1907,-1.2194,-1.2477,-1.276,-1.3257,-1.3472,-1.3539,-1.3543,-1.3543,-1.3543,-1.3615,-1.39,-1.411,-1.4529,-1.5566,-1.6892,-1.7772,-1.8111,-1.8015,-1.7999,-1.7994,-1.7994,-1.8143,-1.8404,-1.8609,-1.9033,-1.9511,-1.9826,-2.0275,-2.048,-2.065,-2.0618,-2.0541,-2.0426,-2.0362,-2.0705,-2.0722,-2.0659,-2.0786,-2.0766,-2.0879,-2.0866,-2.0955,-2.0828,-2.0782,-2.0675,-2.0581,-2.0488,-2.0401,-2.0414,-2.0651,-2.0442,-2.0167,-2.0266,-2.0364,-2.0154,-2.0254,-2.0503,-2.07,-2.0946,-2.1269,-2.141,-2.2186,-2.3254,-2.38,-1.1616,-1.1616,-1.1616,-1.1616,-1.1616,-1.1616,-1.1616,-1.1616,-1.1616,-1.1616,-1.1616,-1.1616,-1.1616,-1.1616,-1.1616,-1.1616,-1.1616,-1.1616,-1.1616,-1.1616,-1.1616,-1.1616,-1.1616,-1.1616,-1.1616,-1.1616,-1.1616,-1.1616,-1.1616,-1.1616,-1.1616,-1.1616,-1.1616,-1.1616,-1.1616,-1.1616,-1.1616,-1.1616,-1.1616,-1.1616,-1.1616,-1.1616,-1.1616,-1.1616,-1.1616,-1.1616,-1.1616,-1.1616,-1.1616,-1.1691,-1.1691,-1.1763,-1.1763,-1.1975,-1.2047,-1.2119,-1.233,-1.2406,-1.2406,-1.2477,-1.2549,-1.2621,-1.2832,-1.3186,-1.3892,-1.5097,-1.5872,-1.6084,-1.6226,-1.6226,-1.6296,-1.6367,-1.6437,-1.6761,-1.7152,-1.7796,-1.8421,-1.9055,-1.959,-1.9833,-2.0018,-2.0014,-1.9931,-1.9838,-1.9687,-1.9619,-1.9551,-1.959,-1.9864,-1.9985,-2.0348,-2.0469,-2.0969,-2.0952,-2.0975,-2.0929,-2.0822,-2.0835,-2.0802,-2.0828,-2.0855,-2.0621,-2.0388,-2.0241,-2.0134,-2.0039,-1.9984,-1.9964,-2.0153,-2.0379,-2.0457,-2.0757,-2.0867,-2.1702,-2.2184,-1.1616,-1.1616,-1.1616,-1.1616,-1.1616,-1.1616,-1.1616,-1.1616,-1.1616,-1.1616,-1.1616,-1.1616,-1.1616,-1.1616,-1.1616,-1.1616,-1.1616,-1.1616,-1.1616,-1.1616,-1.1616,-1.1616,-1.1616,-1.1616,-1.1616,-1.1616,-1.1616,-1.1616,-1.1616,-1.1616,-1.1616,-1.1616,-1.1616,-1.1616,-1.1616,-1.1616,-1.1616,-1.1616,-1.1616,-1.1616,-1.1616,-1.1616,-1.1616,-1.1616,-1.1616,-1.1616,-1.1616,-1.1616,-1.1616,-1.1616,-1.1619,-1.1619,-1.1619,-1.1688,-1.1616,-1.1688,-1.1688,-1.1616,-1.1616,-1.1619,-1.1691,-1.1907,-1.1979,-1.2402,-1.2406,-1.3539,-1.4177,-1.4391,-1.4817,-1.4959,-1.4959,-1.4959,-1.503,-1.5226,-1.5637,-1.6135,-1.7151,-1.8056,-1.8478,-1.8817,-1.904,-1.9278,-1.9177,-1.9166,-1.9101,-1.9023,-1.8912,-1.8641,-1.8877,-1.8953,-1.9432,-1.9889,-2.0208,-2.0806,-2.1062,-2.1049,-2.1029,-2.1076,-2.0976,-2.1056,-2.0962,-2.0788,-2.0601,-2.0481,-2.0347,-2.0187,-2.01,-2.008,-2.0047,-2.0286,-2.0223,-2.0167,-2.0279,-2.0401,-2.0837,-1.1616,-1.1616,-1.1616,-1.1616,-1.1616,-1.1616,-1.1616,-1.1616,-1.1616,-1.1616,-1.1616,-1.1616,-1.1616,-1.1616,-1.1616,-1.1616,-1.1616,-1.1616,-1.1616,-1.1616,-1.1616,-1.1616,-1.1616,-1.1616,-1.1616,-1.1616,-1.1616,-1.1616,-1.1616,-1.1616,-1.1616,-1.1616,-1.1616,-1.1616,-1.1616,-1.1616,-1.1616,-1.1616,-1.1616,-1.1616,-1.1616,-1.1616,-1.1616,-1.1616,-1.1616,-1.1616,-1.1616,-1.1616,-1.1616,-1.1616,-1.1616,-1.1616,-1.1616,-1.1616,-1.1616,-1.1616,-1.1616,-1.1616,-1.1616,-1.1616,-1.1619,-1.1616,-1.1616,-1.1619,-1.1691,-1.1975,-1.2689,-1.3043,-1.3472,-1.3615,-1.3615,-1.3615,-1.3615,-1.3829,-1.4244,-1.4666,-1.5845,-1.6818,-1.7179,-1.7532,-1.7765,-1.8085,-1.8092,-1.8081,-1.8065,-1.8132,-1.8072,-1.8023,-1.7918,-1.7769,-1.7971,-1.8581,-1.9088,-1.9747,-2.0558,-2.0722,-2.0596,-2.0722,-2.0659,-2.0919,-2.1076,-2.0929,-2.0822,-2.0748,-2.0608,-2.0514,-2.0421,-2.0374,-2.0334,-2.0287,-2.0167,-2.0086,-2.0106,-2.0176,-1.9969,-1.1616,-1.1616,-1.1616,-1.1616,-1.1616,-1.1616,-1.1616,-1.1616,-1.1616,-1.1616,-1.1616,-1.1616,-1.1616,-1.1616,-1.1616,-1.1616,-1.1616,-1.1616,-1.1616,-1.1616,-1.1616,-1.1616,-1.1616,-1.1616,-1.1616,-1.1616,-1.1616,-1.1616,-1.1616,-1.1616,-1.1616,-1.1616,-1.1616,-1.1616,-1.1616,-1.1616,-1.1616,-1.1616,-1.1616,-1.1616,-1.1616,-1.1616,-1.1616,-1.1616,-1.1616,-1.1616,-1.1616,-1.1616,-1.1616,-1.1616,-1.1616,-1.1616,-1.1616,-1.1616,-1.1616,-1.1616,-1.1616,-1.1616,-1.1616,-1.1616,-1.1616,-1.1616,-1.1616,-1.1616,-1.1619,-1.1619,-1.2047,-1.2047,-1.233,-1.233,-1.233,-1.233,-1.233,-1.276,-1.3182,-1.3682,-1.4424,-1.4969,-1.537,-1.5634,-1.5812,-1.589,-1.5851,-1.5827,-1.5775,-1.5756,-1.5694,-1.5677,-1.6175,-1.6323,-1.6536,-1.7063,-1.7664,-1.8506,-1.9243,-1.9711,-1.9769,-2.0024,-2.0284,-2.0475,-2.0729,-2.1032,-2.1009,-2.0797,-2.0886,-2.0853,-2.0759,-2.0655,-2.0628,-2.0555,-2.0327,-2.018,-2.0154,-2.012,-2.004]},{"header":{"parameterUnit":"m.s-1","parameterCategory":1,"la1":31.0,"la2":29.5877,"lo1":-88.7671,"lo2":-86.6584,"dy":0.0162,"dx":0.0185,"nx":115,"ny":88,"refTime":"2024-06-17T06:00:00:Z","depth":0,"parameterNumber":3,"parameterNumberName":"V-component_of_WINDS"},"data":[0.0,0.0,0.0,0.0,0.0,0.0,0.0,0.0,0.0,0.0,0.0,0.0,0.0,0.0,0.0,0.0,0.0,0.0,0.0,0.0,0.0,0.0,0.0,0.0,0.0,0.0,0.0,0.0,0.0,0.0,0.0,0.0,0.0,0.0,0.0,0.0,0.0,0.0,0.0,0.0,0.0,0.0,0.0,0.0,0.0,0.0,0.0,0.0,0.0,0.0,0.0,0.0,0.0,0.0,0.0,0.0,0.0,0.0,0.0,0.0,0.0,0.0,0.0,0.0,0.0,0.0,0.0,0.0,0.0,0.0,0.0,0.0,0.0,0.0,0.0,0.0,0.0,0.0,0.0,0.0,0.0,0.0,0.0,0.0,0.0,0.0,0.0,0.0,0.0,0.0,0.0,0.0,0.0,0.0,0.0,0.0,0.0,0.0,0.0,0.0,0.0,0.0,0.0,0.0,0.0,0.0,0.0,0.0,0.0,0.0,0.0,0.0,0.0,0.0,0.0,0.0,0.0,0.0,0.0,0.0,0.0,0.0,0.0,0.0,0.0,0.0,0.0,0.0,0.0,0.0,0.0,0.0,0.0,0.0,0.0,0.0,0.0,0.0,0.0,0.0,0.0,0.0,0.0,0.0,0.0,0.0,0.0,0.0,0.0,0.0,0.0,0.0,0.0,0.0,0.0,0.0,0.0,0.0,0.0,0.0,0.0,0.0,0.0,0.0,0.0,0.0,0.0,0.0,0.0,0.0,0.0,0.0,0.0,0.0,0.0,0.0,0.0,0.0,0.0,0.0,0.0,0.0,0.0,0.0,0.0,0.0,0.0,0.0,0.0,0.0,0.0,0.0,0.0,0.0,0.0,0.0,0.0,0.0,0.0,0.0,0.0,0.0,0.0,0.0,0.0,0.0,0.0,0.0,0.0,0.0,0.0,0.0,0.0,0.0,0.0,0.0,0.0,0.0,0.0,0.0,0.0,0.0,0.0,0.0,0.0,0.0,0.0,0.0,0.0,0.0,0.0,0.0,0.0,0.0,0.0,0.0,0.0,0.0,0.0,0.0,0.0,0.0,0.0,0.0,0.0,0.0,0.0,0.0,0.0,0.0,0.0,0.0,0.0,0.0,0.0,0.0,0.0,0.0,0.0,0.0,0.0,0.0,0.0,0.0,0.0,0.0,0.0,0.0,0.0,0.0,0.0,0.0,0.0,0.0,0.0,0.0,0.0,0.0,0.0,0.0,0.0,0.0,0.0,0.0,0.0,0.0,0.0,0.0,0.0,0.0,0.0,0.0,0.0,0.0,0.0,0.0,0.0,0.0,0.0,0.0,0.0,0.0,0.0,0.0,0.0,0.0,0.0,0.0,0.0,0.0,0.0,0.0,0.0,0.0,0.0,0.0,0.0,0.0,0.0,0.0,0.0,0.0,0.0,0.0,0.0,0.0,0.0,0.0,0.0,0.0,0.0,0.0,0.0,0.0,0.0,0.0,0.0,0.0,0.0,0.0,0.0,0.0,0.0,0.0,0.0,0.0,0.0,0.0,0.0,0.0,0.0,0.0,0.0,0.0,0.0,0.0,0.0,0.0,0.0,0.0,0.0,0.0,0.0,0.0,0.0,0.0,0.0,0.0,0.0,0.0,0.0,0.0,0.0,0.0,0.0,0.0,0.0,0.0,0.0,0.0,0.0,0.0,0.0,0.0,0.0,0.0,0.0,0.0,0.0,0.0,0.0,0.0,0.0,0.0,0.0,0.0,0.0,0.0,0.0,0.0,0.0,0.0,0.0,0.0,0.0,0.0,0.0,0.0,0.0,0.0,0.0,0.0,0.0,0.0,0.0,0.0,0.0,0.0,0.0,0.0,0.0,0.0,0.0,0.0,0.0,0.0,0.0,0.0,0.0,0.0,0.0,0.0,0.0,0.0,0.0,0.0,0.0,0.0,0.0,0.0,0.0,0.0,0.0,0.0,0.0,0.0,0.0,0.0,0.0,0.0,0.0,0.0,0.0,0.0,0.0,0.0,0.0,0.0,0.0,0.0,0.0,0.0,0.0,0.0,0.0,0.0,0.0,0.0,0.0,0.0,0.0,0.0,0.0,0.0,0.0,0.0,0.0,0.0,0.0,0.0,0.0,0.0,0.0,0.0,0.0,0.0,0.0,0.0,0.0,0.0,0.0,0.0,0.0,0.0,0.0,0.0,0.0,0.0,0.0,0.0,0.0,0.0,0.0,0.0,0.0,0.0,0.0,0.0,0.0,0.0,0.0,0.0,0.0,0.0,0.0,0.0,0.0,0.0,0.0,0.0,0.0,0.0,0.0,0.0,0.0,0.0,0.0,0.0,0.0,0.0,0.0,0.0,0.0,0.0,0.0,0.0,0.0,0.0,0.0,0.0,0.0,0.0,0.0,0.0,0.0,0.0,0.0,0.0,0.0,0.0,0.0,0.0,0.0,0.0,0.0,0.0,0.0,0.0,0.0,0.0,0.0,0.0,0.0,0.0,0.0,0.0,0.0,0.0,0.0,0.0,0.0,0.0,0.0,0.0,0.0,0.0,0.0,0.0,0.0,0.0,0.0,0.0,0.0,0.0,0.0,0.0,0.0,0.0,0.0,0.0,0.0,0.0,0.0,0.0,0.0,0.0,0.0,0.0,0.0,0.0,0.0,0.0,0.0,0.0,0.0,0.0,0.0,0.0,0.0,0.0,0.0,0.0,0.0,0.0,0.0,0.0,0.0,0.0,0.0,0.0,0.0,0.0,0.0,0.0,0.0,0.0,0.0,0.0,0.0,0.0,0.0,0.0,0.0,0.0,0.0,0.0,0.0,0.0,0.0,0.0,0.0,0.0,0.0,0.0,0.0,0.0,0.0,0.0,0.0,0.0,0.0,0.0,0.0,0.0,0.0,0.0,0.0,0.0,0.0,0.0,0.0,0.0,0.0,0.0,0.0,0.0,0.0,0.0,0.0,0.0,0.0,0.0,0.0,0.0,0.0,0.0,0.0,0.0,0.0,0.0,0.0,0.0,0.0,0.0,0.0,0.0,0.0,0.0,0.0,0.0,0.0,0.0,0.0,0.0,0.0,0.0,0.0,0.0,0.0,0.0,0.0,0.0,0.0,0.0,0.0,0.0,0.0,0.0,0.0,0.0,0.0,0.0,0.0,0.0,0.0,0.0,0.0,0.0,0.0,0.0,0.0,0.0,0.0,0.0,0.0,0.0,0.0,0.0,0.0,0.0,0.0,0.0,0.0,0.0,0.0,0.0,0.0,0.0,0.0,0.0,0.0,0.0,0.0,0.0,0.0,0.0,0.0,0.0,0.0,0.0,0.0,0.0,0.0,0.0,0.0,0.0,0.0,0.0,0.0,0.0,0.0,0.0,0.0,0.0,0.0,0.0,0.0,0.0,0.0,0.0,0.0,0.0,0.0,0.0,0.0,0.0,0.0,0.0,0.0,0.0,0.0,0.0,0.0,0.0,0.0,0.0,0.0,0.0,0.0,0.0,0.0,0.0,0.0,0.0,0.0,0.0,0.0,0.0,0.0,0.0,0.0,0.0,0.0,0.0,0.0,0.0,0.0,0.0,0.0,0.0,0.0,0.0,0.0,0.0,0.0,0.0,0.0,0.0,0.0,0.0,0.0,0.0,0.0,0.0,0.0,0.0,0.0,0.0,0.0,0.0,0.0,0.0,0.0,0.0,0.0,0.0,0.0,0.0,0.0,0.0,0.0,0.0,0.0,0.0,0.0,0.0,0.0,0.0,0.0,0.0,0.0,0.0,0.0,0.0,0.0,0.0,0.0,0.0,0.0,0.0,0.0,0.0,0.0,0.0,0.0,0.0,0.0,0.0,0.0,0.0,0.0,0.0,0.0,0.0,0.0,0.0,0.0,0.0,0.0,0.0,0.0,0.0,0.0,0.0,0.0,0.0,0.0,0.0,0.0,0.0,0.0,0.0,0.0,0.0,0.0,0.0,0.0,0.0,0.0,0.0,0.0,0.0,0.0,0.0,0.0,0.0,0.0,0.0,0.0,0.0,0.0,0.0,0.0,0.0,0.0,0.0,0.0,0.0,0.0,0.0,0.0,0.0,0.0,0.0,0.0,0.0,0.0,0.0,0.0,0.0,0.0,0.0,0.0,0.0,0.0,0.0,0.0,0.0,0.0,0.0,0.0,0.0,0.0,0.0,0.0,0.0,0.0,0.0,0.0,0.0,0.0,0.0,0.0,0.0,0.0,0.0,0.0,0.0,0.0,0.0,0.0,0.0,0.0,0.0,0.0,0.0,3.8224,0.0,0.0,0.0,0.0,0.0,0.0,0.0,0.0,0.0,0.0,0.0,0.0,0.0,0.0,0.0,0.0,0.0,0.0,0.0,0.0,0.0,0.0,0.0,0.0,0.0,0.0,0.0,0.0,0.0,0.0,0.0,0.0,0.0,0.0,0.0,0.0,0.0,0.0,0.0,0.0,0.0,0.0,0.0,0.0,0.0,0.0,0.0,0.0,0.0,0.0,0.0,0.0,0.0,0.0,0.0,0.0,0.0,0.0,0.0,0.0,0.0,0.0,0.0,0.0,0.0,0.0,0.0,0.0,0.0,0.0,0.0,0.0,0.0,0.0,0.0,0.0,0.0,0.0,0.0,0.0,0.0,0.0,0.0,0.0,0.0,0.0,0.0,0.0,0.0,0.0,0.0,0.0,0.0,0.0,0.0,0.0,0.0,0.0,0.0,0.0,0.0,0.0,0.0,0.0,0.0,0.0,0.0,0.0,0.0,0.0,4.0991,4.0859,4.0249,3.9242,3.7773,0.0,0.0,0.0,0.0,0.0,0.0,0.0,0.0,0.0,0.0,0.0,0.0,0.0,0.0,0.0,0.0,0.0,0.0,0.0,0.0,0.0,0.0,0.0,0.0,0.0,0.0,0.0,0.0,0.0,0.0,0.0,0.0,0.0,0.0,0.0,0.0,0.0,0.0,0.0,0.0,0.0,0.0,0.0,0.0,0.0,0.0,0.0,0.0,0.0,0.0,0.0,0.0,0.0,0.0,0.0,0.0,0.0,0.0,0.0,0.0,0.0,0.0,0.0,0.0,0.0,0.0,0.0,0.0,0.0,0.0,0.0,0.0,0.0,0.0,0.0,0.0,0.0,0.0,0.0,0.0,0.0,0.0,0.0,0.0,0.0,0.0,0.0,0.0,0.0,0.0,0.0,0.0,0.0,0.0,0.0,0.0,0.0,0.0,0.0,0.0,0.0,0.0,0.0,0.0,0.0,0.0,0.0,0.0,0.0,0.0,0.0,0.0,4.007,3.9094,3.7091,0.0,0.0,0.0,0.0,0.0,0.0,0.0,0.0,0.0,0.0,0.0,0.0,0.0,0.0,0.0,0.0,0.0,0.0,0.0,0.0,0.0,0.0,0.0,0.0,0.0,0.0,0.0,0.0,0.0,0.0,0.0,0.0,0.0,0.0,0.0,0.0,0.0,0.0,0.0,0.0,0.0,0.0,0.0,0.0,0.0,0.0,0.0,0.0,0.0,0.0,0.0,0.0,0.0,0.0,0.0,0.0,0.0,0.0,0.0,0.0,0.0,0.0,0.0,0.0,0.0,0.0,0.0,0.0,0.0,0.0,0.0,0.0,0.0,0.0,0.0,0.0,0.0,0.0,0.0,0.0,0.0,0.0,0.0,0.0,0.0,0.0,0.0,0.0,0.0,0.0,0.0,0.0,0.0,0.0,0.0,0.0,0.0,0.0,0.0,0.0,0.0,0.0,0.0,0.0,0.0,0.0,0.0,0.0,0.0,0.0,4.016,3.9859,3.9248,0.0,3.653,0.0,0.0,0.0,0.0,0.0,0.0,0.0,0.0,0.0,0.0,0.0,0.0,0.0,0.0,0.0,0.0,0.0,0.0,0.0,0.0,0.0,0.0,0.0,0.0,0.0,0.0,0.0,0.0,0.0,0.0,0.0,0.0,0.0,0.0,0.0,0.0,0.0,0.0,0.0,0.0,0.0,0.0,0.0,0.0,0.0,0.0,0.0,0.0,0.0,0.0,0.0,0.0,0.0,0.0,0.0,0.0,0.0,0.0,0.0,0.0,0.0,0.0,0.0,0.0,0.0,0.0,0.0,0.0,0.0,0.0,0.0,0.0,0.0,0.0,0.0,0.0,0.0,0.0,0.0,0.0,0.0,0.0,0.0,0.0,0.0,0.0,0.0,0.0,0.0,0.0,0.0,0.0,0.0,0.0,0.0,0.0,0.0,0.0,0.0,0.0,0.0,0.0,0.0,0.0,0.0,0.0,0.0,0.0,0.0,0.0,3.9026,3.8739,3.7745,3.6796,0.0,0.0,0.0,0.0,0.0,0.0,0.0,0.0,0.0,0.0,0.0,0.0,0.0,0.0,0.0,0.0,0.0,0.0,0.0,0.0,0.0,0.0,0.0,0.0,0.0,0.0,0.0,0.0,0.0,0.0,0.0,0.0,0.0,0.0,0.0,0.0,0.0,0.0,0.0,0.0,0.0,0.0,0.0,0.0,0.0,0.0,0.0,0.0,0.0,0.0,0.0,0.0,0.0,0.0,0.0,0.0,0.0,0.0,0.0,0.0,0.0,0.0,0.0,0.0,0.0,0.0,0.0,0.0,0.0,0.0,0.0,0.0,0.0,0.0,0.0,0.0,0.0,0.0,0.0,0.0,0.0,0.0,0.0,0.0,0.0,0.0,0.0,0.0,0.0,0.0,0.0,0.0,0.0,0.0,0.0,0.0,0.0,0.0,0.0,0.0,0.0,0.0,0.0,0.0,0.0,0.0,0.0,0.0,0.0,0.0,3.7295,3.7687,3.7316,3.619,3.5487,3.5328,0.0,0.0,0.0,0.0,0.0,0.0,0.0,0.0,0.0,0.0,0.0,0.0,0.0,0.0,0.0,0.0,0.0,0.0,0.0,0.0,0.0,0.0,0.0,0.0,0.0,0.0,0.0,0.0,0.0,0.0,0.0,0.0,0.0,0.0,0.0,0.0,0.0,0.0,0.0,0.0,0.0,0.0,0.0,0.0,0.0,0.0,0.0,0.0,0.0,0.0,0.0,0.0,0.0,0.0,0.0,0.0,0.0,0.0,0.0,0.0,0.0,0.0,0.0,0.0,0.0,0.0,0.0,0.0,0.0,0.0,0.0,0.0,0.0,0.0,0.0,0.0,0.0,0.0,0.0,0.0,0.0,0.0,0.0,0.0,0.0,0.0,0.0,0.0,0.0,0.0,0.0,0.0,0.0,0.0,0.0,0.0,0.0,0.0,0.0,0.0,0.0,0.0,0.0,0.0,0.0,0.0,0.0,0.0,3.4983,3.5766,3.6041,3.5693,3.4714,3.4351,0.0,0.0,0.0,0.0,0.0,0.0,0.0,0.0,0.0,0.0,0.0,0.0,0.0,0.0,0.0,0.0,0.0,0.0,0.0,0.0,0.0,0.0,0.0,0.0,0.0,0.0,0.0,0.0,0.0,0.0,0.0,0.0,0.0,0.0,0.0,0.0,0.0,0.0,0.0,0.0,0.0,0.0,0.0,0.0,0.0,0.0,0.0,0.0,0.0,0.0,0.0,0.0,0.0,0.0,0.0,0.0,0.0,0.0,0.0,0.0,0.0,0.0,0.0,0.0,0.0,0.0,0.0,0.0,0.0,0.0,0.0,0.0,0.0,0.0,0.0,0.0,0.0,0.0,0.0,0.0,0.0,0.0,0.0,0.0,0.0,0.0,0.0,0.0,0.0,0.0,0.0,0.0,0.0,0.0,0.0,0.0,0.0,0.0,0.0,0.0,0.0,0.0,0.0,0.0,0.0,0.0,0.0,0.0,0.0,3.3713,3.4156,3.4302,3.4052,3.3161,3.2694,0.0,0.0,0.0,0.0,0.0,0.0,0.0,0.0,0.0,0.0,0.0,0.0,0.0,0.0,0.0,0.0,0.0,0.0,0.0,0.0,0.0,0.0,0.0,0.0,0.0,0.0,0.0,0.0,0.0,0.0,0.0,0.0,0.0,0.0,0.0,0.0,0.0,0.0,0.0,0.0,0.0,0.0,0.0,0.0,0.0,0.0,0.0,0.0,0.0,0.0,0.0,0.0,0.0,0.0,0.0,0.0,0.0,0.0,0.0,0.0,0.0,0.0,0.0,0.0,0.0,0.0,0.0,0.0,0.0,0.0,0.0,0.0,0.0,0.0,0.0,0.0,0.0,0.0,0.0,0.0,0.0,0.0,0.0,0.0,0.0,0.0,0.0,0.0,0.0,0.0,0.0,0.0,0.0,0.0,0.0,0.0,0.0,0.0,0.0,0.0,0.0,0.0,0.0,0.0,0.0,0.0,0.0,0.0,0.0,3.2891,0.0,3.2731,3.269,3.1743,3.1181,0.0,0.0,0.0,0.0,0.0,0.0,0.0,0.0,0.0,0.0,0.0,0.0,0.0,0.0,0.0,0.0,0.0,0.0,0.0,0.0,0.0,0.0,0.0,0.0,0.0,0.0,0.0,0.0,0.0,0.0,0.0,0.0,0.0,0.0,0.0,0.0,0.0,0.0,0.0,0.0,0.0,0.0,0.0,0.0,0.0,0.0,0.0,0.0,0.0,0.0,0.0,0.0,0.0,0.0,0.0,0.0,0.0,0.0,0.0,0.0,0.0,0.0,0.0,0.0,0.0,0.0,0.0,0.0,0.0,0.0,0.0,0.0,0.0,0.0,0.0,0.0,0.0,0.0,0.0,0.0,0.0,0.0,0.0,0.0,0.0,0.0,0.0,0.0,0.0,0.0,0.0,0.0,0.0,0.0,0.0,0.0,0.0,0.0,0.0,0.0,0.0,0.0,0.0,0.0,0.0,0.0,0.0,0.0,3.2095,3.2485,3.166,3.1386,3.1641,3.0388,2.987,0.0,0.0,0.0,0.0,0.0,0.0,0.0,0.0,0.0,0.0,0.0,0.0,0.0,0.0,0.0,0.0,0.0,0.0,0.0,0.0,0.0,0.0,0.0,0.0,0.0,0.0,0.0,0.0,0.0,0.0,0.0,0.0,0.0,0.0,0.0,0.0,0.0,0.0,0.0,0.0,0.0,0.0,0.0,0.0,0.0,0.0,0.0,0.0,0.0,0.0,0.0,0.0,0.0,0.0,0.0,0.0,0.0,0.0,0.0,0.0,0.0,0.0,0.0,0.0,0.0,0.0,0.0,0.0,0.0,0.0,0.0,0.0,0.0,0.0,0.0,0.0,0.0,0.0,0.0,0.0,0.0,0.0,0.0,0.0,0.0,0.0,0.0,0.0,0.0,0.0,0.0,0.0,0.0,0.0,0.0,0.0,0.0,0.0,0.0,0.0,0.0,0.0,0.0,0.0,0.0,0.0,0.0,0.0,0.0,3.1046,3.0721,3.0319,2.9976,2.9435,2.8784,0.0,0.0,0.0,0.0,0.0,0.0,0.0,0.0,0.0,0.0,0.0,0.0,0.0,0.0,0.0,0.0,0.0,0.0,0.0,0.0,0.0,0.0,0.0,0.0,0.0,0.0,0.0,0.0,0.0,0.0,0.0,0.0,0.0,0.0,0.0,0.0,0.0,0.0,0.0,0.0,0.0,0.0,0.0,0.0,0.0,0.0,0.0,0.0,0.0,0.0,0.0,0.0,0.0,0.0,0.0,0.0,0.0,0.0,0.0,0.0,0.0,0.0,0.0,0.0,0.0,0.0,0.0,0.0,0.0,0.0,0.0,0.0,0.0,0.0,0.0,0.0,0.0,0.0,0.0,0.0,0.0,0.0,0.0,0.0,0.0,0.0,0.0,0.0,0.0,0.0,0.0,0.0,0.0,0.0,0.0,0.0,0.0,0.0,0.0,0.0,0.0,0.0,0.0,0.0,0.0,0.0,0.0,0.0,0.0,2.9726,2.966,2.9336,2.8766,2.8338,2.7621,2.6651,0.0,0.0,0.0,0.0,0.0,0.0,0.0,0.0,0.0,0.0,0.0,0.0,0.0,0.0,0.0,0.0,0.0,0.0,0.0,0.0,0.0,0.0,0.0,0.0,0.0,0.0,0.0,0.0,0.0,0.0,0.0,0.0,0.0,0.0,0.0,0.0,0.0,0.0,0.0,0.0,0.0,0.0,0.0,0.0,0.0,0.0,0.0,0.0,0.0,0.0,0.0,0.0,0.0,0.0,0.0,0.0,0.0,0.0,0.0,0.0,0.0,0.0,0.0,0.0,0.0,0.0,0.0,0.0,0.0,0.0,0.0,0.0,0.0,0.0,0.0,0.0,0.0,0.0,0.0,0.0,0.0,0.0,0.0,0.0,0.0,0.0,0.0,0.0,0.0,0.0,0.0,0.0,0.0,0.0,0.0,0.0,0.0,0.0,0.0,0.0,0.0,0.0,0.0,0.0,0.0,0.0,0.0,0.0,2.8522,2.8529,2.8347,2.7898,2.7099,2.6415,0.0,0.0,0.0,0.0,0.0,0.0,0.0,0.0,0.0,0.0,0.0,0.0,0.0,0.0,0.0,0.0,0.0,0.0,0.0,0.0,0.0,0.0,0.0,0.0,0.0,0.0,0.0,0.0,0.0,0.0,0.0,0.0,0.0,0.0,0.0,0.0,0.0,0.0,0.0,0.0,0.0,0.0,0.0,0.0,0.0,0.0,0.0,0.0,0.0,0.0,0.0,0.0,0.0,0.0,0.0,0.0,0.0,0.0,0.0,0.0,0.0,0.0,0.0,0.0,0.0,0.0,0.0,0.0,0.0,0.0,0.0,0.0,0.0,0.0,0.0,0.0,0.0,0.0,0.0,0.0,0.0,0.0,0.0,0.0,0.0,0.0,0.0,0.0,0.0,0.0,0.0,0.0,0.0,0.0,0.0,0.0,0.0,0.0,0.0,0.0,0.0,0.0,0.0,0.0,0.0,0.0,0.0,0.0,0.0,2.7902,2.7739,2.742,2.6911,2.6519,2.5905,0.0,0.0,0.0,0.0,0.0,0.0,0.0,0.0,0.0,0.0,0.0,0.0,0.0,0.0,0.0,0.0,0.0,0.0,0.0,0.0,0.0,0.0,0.0,0.0,0.0,0.0,0.0,0.0,0.0,0.0,0.0,0.0,0.0,0.0,0.0,0.0,0.0,0.0,0.0,0.0,0.0,0.0,0.0,0.0,0.0,0.0,0.0,0.0,0.0,0.0,0.0,0.0,0.0,0.0,0.0,0.0,0.0,0.0,0.0,0.0,0.0,0.0,0.0,0.0,0.0,0.0,0.0,0.0,0.0,0.0,0.0,0.0,0.0,0.0,0.0,0.0,0.0,0.0,0.0,0.0,0.0,0.0,0.0,0.0,0.0,0.0,0.0,0.0,0.0,0.0,0.0,0.0,0.0,0.0,0.0,0.0,0.0,0.0,0.0,0.0,0.0,0.0,0.0,0.0,0.0,0.0,0.0,0.0,2.7576,2.7412,2.7002,2.6594,2.6189,2.5906,2.5381,0.0,0.0,0.0,0.0,0.0,0.0,0.0,0.0,0.0,0.0,0.0,0.0,0.0,0.0,0.0,0.0,0.0,0.0,0.0,0.0,0.0,0.0,0.0,0.0,0.0,0.0,0.0,0.0,0.0,0.0,0.0,0.0,0.0,0.0,0.0,0.0,0.0,0.0,0.0,0.0,0.0,0.0,0.0,0.0,0.0,0.0,0.0,0.0,0.0,0.0,0.0,0.0,0.0,0.0,0.0,0.0,0.0,0.0,0.0,0.0,0.0,0.0,0.0,0.0,0.0,0.0,0.0,0.0,0.0,0.0,0.0,0.0,0.0,0.0,0.0,0.0,0.0,0.0,0.0,0.0,0.0,0.0,0.0,0.0,0.0,0.0,0.0,0.0,0.0,0.0,0.0,0.0,0.0,0.0,0.0,0.0,0.0,0.0,0.0,0.0,0.0,0.0,0.0,0.0,0.0,0.0,0.0,0.0,2.6911,2.7115,2.6476,2.5965,2.5713,2.5315,2.4821,0.0,0.0,0.0,0.0,0.0,0.0,0.0,0.0,0.0,0.0,0.0,0.0,0.0,0.0,0.0,0.0,0.0,0.0,0.0,0.0,0.0,0.0,0.0,0.0,0.0,0.0,0.0,0.0,0.0,0.0,0.0,0.0,0.0,0.0,0.0,0.0,0.0,0.0,0.0,0.0,0.0,0.0,0.0,0.0,0.0,0.0,0.0,0.0,0.0,0.0,0.0,0.0,0.0,0.0,0.0,0.0,0.0,0.0,0.0,0.0,0.0,0.0,0.0,0.0,0.0,0.0,0.0,0.0,0.0,0.0,0.0,0.0,0.0,0.0,0.0,0.0,0.0,0.0,0.0,0.0,0.0,0.0,0.0,0.0,0.0,0.0,0.0,0.0,0.0,0.0,0.0,0.0,0.0,0.0,0.0,0.0,0.0,0.0,0.0,0.0,0.0,0.0,0.0,0.0,0.0,0.0,0.0,0.0,2.6786,2.6658,2.6294,2.5965,2.5684,2.4977,2.4408,0.0,0.0,0.0,0.0,0.0,0.0,0.0,0.0,0.0,0.0,0.0,0.0,0.0,0.0,0.0,0.0,0.0,0.0,0.0,0.0,0.0,0.0,0.0,0.0,0.0,0.0,0.0,0.0,0.0,0.0,0.0,0.0,0.0,0.0,0.0,0.0,0.0,0.0,0.0,0.0,0.0,0.0,0.0,0.0,0.0,0.0,0.0,0.0,2.838,0.0,0.0,0.0,0.0,0.0,0.0,0.0,0.0,0.0,0.0,0.0,0.0,0.0,0.0,0.0,0.0,0.0,0.0,0.0,0.0,0.0,0.0,0.0,0.0,0.0,0.0,0.0,0.0,0.0,0.0,0.0,0.0,0.0,0.0,0.0,0.0,0.0,0.0,0.0,0.0,0.0,0.0,0.0,0.0,0.0,0.0,0.0,0.0,0.0,0.0,0.0,0.0,0.0,0.0,0.0,0.0,0.0,0.0,0.0,2.6458,2.6322,2.6062,2.582,2.5703,2.4836,2.4352,0.0,0.0,0.0,0.0,0.0,0.0,0.0,0.0,0.0,0.0,0.0,0.0,0.0,0.0,0.0,0.0,0.0,0.0,0.0,0.0,0.0,0.0,0.0,0.0,0.0,0.0,0.0,0.0,0.0,0.0,0.0,0.0,0.0,0.0,0.0,0.0,0.0,0.0,0.0,0.0,0.0,0.0,0.0,0.0,0.0,0.0,0.0,0.0,0.0,0.0,0.0,0.0,0.0,0.0,0.0,0.0,0.0,0.0,0.0,0.0,0.0,0.0,0.0,0.0,0.0,0.0,0.0,0.0,0.0,0.0,0.0,0.0,0.0,0.0,0.0,0.0,0.0,0.0,0.0,0.0,0.0,0.0,0.0,0.0,0.0,0.0,0.0,0.0,0.0,0.0,0.0,0.0,0.0,0.0,0.0,0.0,0.0,0.0,0.0,0.0,0.0,0.0,0.0,0.0,0.0,0.0,0.0,2.6208,2.6104,2.6032,2.583,2.5684,2.5674,2.4826,2.4424,2.4394,0.0,0.0,0.0,0.0,0.0,0.0,0.0,0.0,0.0,0.0,0.0,0.0,0.0,0.0,0.0,0.0,0.0,0.0,0.0,0.0,0.0,0.0,0.0,0.0,0.0,0.0,0.0,0.0,0.0,0.0,0.0,0.0,0.0,0.0,0.0,0.0,0.0,0.0,2.9213,3.0276,0.0,0.0,0.0,0.0,0.0,0.0,0.0,0.0,2.7546,0.0,0.0,0.0,0.0,0.0,0.0,0.0,0.0,0.0,0.0,0.0,0.0,0.0,0.0,0.0,0.0,0.0,0.0,0.0,0.0,0.0,0.0,0.0,0.0,0.0,0.0,0.0,0.0,0.0,0.0,0.0,0.0,0.0,0.0,0.0,0.0,0.0,0.0,0.0,0.0,0.0,0.0,0.0,0.0,0.0,0.0,0.0,0.0,0.0,0.0,0.0,0.0,0.0,0.0,0.0,0.0,2.593,2.6057,2.5983,2.5771,2.5732,2.5684,2.5664,2.4873,2.4424,2.4346,0.0,0.0,0.0,0.0,0.0,0.0,0.0,0.0,0.0,0.0,0.0,0.0,0.0,0.0,0.0,0.0,0.0,0.0,0.0,0.0,0.0,0.0,0.0,0.0,0.0,0.0,0.0,0.0,0.0,0.0,0.0,0.0,0.0,0.0,0.0,0.0,0.0,0.0,0.0,3.0723,3.0853,0.0,0.0,0.0,0.0,0.0,0.0,0.0,0.0,2.6597,0.0,0.0,0.0,0.0,0.0,0.0,0.0,0.0,0.0,0.0,0.0,0.0,0.0,0.0,0.0,0.0,0.0,0.0,0.0,0.0,0.0,0.0,0.0,0.0,0.0,0.0,0.0,0.0,0.0,0.0,0.0,0.0,0.0,0.0,0.0,0.0,0.0,0.0,0.0,0.0,0.0,0.0,0.0,0.0,0.0,0.0,0.0,0.0,0.0,0.0,0.0,0.0,0.0,0.0,0.0,2.5659,2.5939,2.5955,2.5684,2.5684,2.5684,2.5664,2.4883,2.4307,0.0,0.0,0.0,0.0,0.0,0.0,0.0,0.0,0.0,0.0,0.0,0.0,0.0,0.0,0.0,0.0,0.0,0.0,0.0,0.0,0.0,0.0,0.0,0.0,0.0,0.0,0.0,0.0,0.0,0.0,0.0,0.0,0.0,0.0,0.0,0.0,0.0,0.0,0.0,0.0,3.0176,3.0194,3.0192,0.0,0.0,0.0,0.0,0.0,0.0,2.6486,2.6401,0.0,0.0,0.0,0.0,0.0,0.0,0.0,0.0,0.0,0.0,0.0,0.0,0.0,0.0,0.0,0.0,0.0,0.0,0.0,0.0,0.0,0.0,0.0,0.0,0.0,0.0,0.0,0.0,0.0,0.0,0.0,0.0,0.0,0.0,0.0,0.0,0.0,0.0,0.0,0.0,0.0,0.0,0.0,0.0,0.0,0.0,0.0,0.0,0.0,0.0,0.0,0.0,0.0,0.0,0.0,2.5523,2.5844,2.5917,2.5732,2.5684,2.5684,2.5664,2.4883,2.4219,0.0,0.0,0.0,0.0,0.0,0.0,0.0,0.0,0.0,0.0,0.0,0.0,0.0,0.0,0.0,0.0,0.0,0.0,0.0,0.0,0.0,0.0,0.0,0.0,0.0,0.0,0.0,0.0,0.0,0.0,0.0,0.0,0.0,0.0,0.0,0.0,0.0,0.0,0.0,0.0,0.0,2.9521,2.9372,2.8642,0.0,0.0,0.0,0.0,2.6352,2.6352,0.0,0.0,0.0,0.0,0.0,0.0,0.0,0.0,0.0,0.0,0.0,0.0,0.0,0.0,0.0,0.0,0.0,0.0,0.0,0.0,0.0,0.0,0.0,0.0,0.0,0.0,0.0,0.0,0.0,0.0,0.0,0.0,0.0,0.0,0.0,0.0,0.0,0.0,0.0,0.0,0.0,0.0,0.0,0.0,0.0,0.0,0.0,0.0,0.0,0.0,0.0,0.0,0.0,0.0,0.0,0.0,2.5488,2.5674,2.5742,2.5684,2.5684,2.5684,2.5674,2.4836,2.4219,0.0,0.0,0.0,0.0,0.0,0.0,0.0,0.0,0.0,0.0,0.0,0.0,0.0,0.0,0.0,0.0,0.0,0.0,0.0,0.0,0.0,0.0,0.0,0.0,0.0,0.0,0.0,0.0,0.0,0.0,0.0,0.0,0.0,0.0,0.0,0.0,0.0,0.0,0.0,0.0,0.0,2.9108,2.8817,2.7977,2.7231,0.0,0.0,2.5781,2.5781,2.5791,0.0,0.0,0.0,0.0,0.0,0.0,0.0,0.0,0.0,0.0,0.0,0.0,0.0,0.0,0.0,0.0,0.0,0.0,0.0,0.0,0.0,0.0,0.0,0.0,0.0,0.0,0.0,0.0,0.0,0.0,0.0,0.0,0.0,0.0,0.0,0.0,0.0,0.0,0.0,0.0,0.0,0.0,0.0,0.0,0.0,0.0,0.0,0.0,0.0,0.0,0.0,0.0,0.0,0.0,0.0,2.5268,2.5488,2.5749,2.583,2.5684,2.5684,2.5684,2.5684,2.4883,2.4102,0.0,0.0,0.0,0.0,0.0,0.0,0.0,0.0,0.0,0.0,0.0,0.0,0.0,0.0,0.0,0.0,0.0,0.0,0.0,0.0,0.0,0.0,0.0,0.0,0.0,0.0,0.0,0.0,0.0,0.0,0.0,0.0,0.0,0.0,0.0,0.0,0.0,0.0,0.0,0.0,0.0,0.0,2.7882,2.7241,0.0,0.0,0.0,2.5684,2.5684,0.0,0.0,0.0,0.0,0.0,0.0,0.0,0.0,0.0,0.0,0.0,0.0,0.0,0.0,0.0,0.0,0.0,0.0,0.0,0.0,0.0,0.0,0.0,0.0,0.0,0.0,0.0,0.0,0.0,0.0,0.0,0.0,0.0,0.0,0.0,0.0,0.0,0.0,0.0,0.0,0.0,0.0,0.0,0.0,0.0,0.0,0.0,0.0,0.0,0.0,0.0,0.0,0.0,0.0,0.0,0.0,0.0,2.5669,2.5939,2.6014,2.583,2.5742,2.5684,2.5664,2.4883,0.0,0.0,0.0,0.0,0.0,0.0,0.0,0.0,0.0,0.0,0.0,0.0,0.0,0.0,0.0,0.0,0.0,0.0,0.0,0.0,0.0,0.0,0.0,0.0,0.0,0.0,0.0,2.4255,0.0,0.0,0.0,0.0,0.0,0.0,0.0,0.0,0.0,0.0,0.0,0.0,0.0,0.0,2.7098,2.7051,2.6678,2.6352,0.0,0.0,2.5684,2.5684,2.5684,2.5684,0.0,0.0,0.0,0.0,0.0,0.0,0.0,0.0,0.0,0.0,0.0,0.0,0.0,0.0,0.0,0.0,0.0,0.0,0.0,0.0,0.0,0.0,0.0,0.0,0.0,0.0,0.0,0.0,2.7866,0.0,0.0,0.0,0.0,0.0,0.0,0.0,0.0,0.0,0.0,0.0,0.0,0.0,0.0,0.0,0.0,0.0,0.0,0.0,0.0,0.0,0.0,0.0,0.0,0.0,2.5614,2.6135,2.6118,2.61,2.6052,2.582,2.5684,2.5674,2.4883,2.4014,0.0,0.0,0.0,0.0,0.0,0.0,0.0,0.0,0.0,0.0,0.0,0.0,0.0,0.0,0.0,0.0,0.0,0.0,0.0,0.0,0.0,0.0,0.0,0.0,0.0,0.0,0.0,0.0,0.0,0.0,0.0,0.0,0.0,0.0,0.0,0.0,0.0,0.0,0.0,0.0,0.0,2.6842,2.6592,2.6294,2.61,0.0,2.5868,2.5684,2.5684,2.5684,2.5684,2.5684,0.0,0.0,0.0,0.0,0.0,0.0,0.0,0.0,0.0,0.0,0.0,0.0,0.0,0.0,0.0,0.0,0.0,0.0,0.0,0.0,0.0,0.0,0.0,0.0,0.0,2.9073,0.0,0.0,2.8468,0.0,0.0,0.0,0.0,0.0,0.0,0.0,0.0,0.0,0.0,0.0,0.0,0.0,0.0,0.0,0.0,0.0,0.0,0.0,0.0,0.0,0.0,0.0,0.0,2.6343,2.6638,2.7066,2.7088,2.6812,2.6668,2.662,2.663,2.5797,2.5037,0.0,0.0,0.0,0.0,0.0,0.0,0.0,0.0,0.0,0.0,0.0,0.0,0.0,0.0,0.0,0.0,0.0,0.0,0.0,0.0,0.0,0.0,0.0,0.0,0.0,0.0,0.0,0.0,2.5912,2.6443,2.7215,0.0,0.0,0.0,0.0,0.0,0.0,0.0,0.0,0.0,0.0,2.6726,2.6294,2.6149,0.0,0.0,2.5781,2.5684,2.5684,2.5684,2.5684,2.5684,2.5371,0.0,0.0,0.0,0.0,0.0,0.0,0.0,0.0,0.0,0.0,0.0,0.0,0.0,0.0,0.0,0.0,0.0,0.0,0.0,0.0,0.0,0.0,0.0,0.0,0.0,0.0,0.0,0.0,0.0,0.0,0.0,0.0,0.0,0.0,0.0,0.0,0.0,0.0,0.0,0.0,0.0,0.0,0.0,0.0,0.0,0.0,0.0,0.0,0.0,0.0,0.0,0.0,2.7021,2.7304,2.7934,2.8034,2.7647,2.7515,2.7421,2.74,2.6798,2.6151,0.0,0.0,0.0,0.0,0.0,0.0,0.0,0.0,0.0,0.0,0.0,0.0,0.0,0.0,0.0,0.0,0.0,0.0,0.0,0.0,0.0,0.0,0.0,0.0,0.0,0.0,0.0,0.0,2.6716,2.7283,2.8039,0.0,0.0,0.0,0.0,0.0,0.0,0.0,0.0,0.0,0.0,2.6907,2.6294,2.6149,2.6004,2.5732,2.5684,2.5684,2.5684,2.5684,2.5684,2.5684,0.0,0.0,0.0,0.0,0.0,0.0,0.0,0.0,0.0,0.0,0.0,0.0,0.0,0.0,0.0,0.0,0.0,0.0,0.0,0.0,0.0,0.0,0.0,0.0,0.0,0.0,0.0,3.1716,0.0,0.0,2.9767,0.0,0.0,0.0,0.0,0.0,0.0,0.0,0.0,0.0,0.0,0.0,0.0,0.0,0.0,0.0,0.0,0.0,0.0,0.0,0.0,0.0,0.0,2.7493,2.8268,2.8608,2.8724,2.8678,2.8222,2.8034,2.8023,2.7785,2.7221,2.6336,0.0,0.0,0.0,0.0,0.0,0.0,0.0,0.0,0.0,0.0,0.0,0.0,0.0,0.0,0.0,0.0,0.0,0.0,0.0,0.0,0.0,0.0,0.0,0.0,0.0,0.0,2.7996,2.8059,2.8273,0.0,0.0,0.0,0.0,0.0,0.0,0.0,0.0,0.0,0.0,2.7617,2.7299,2.664,2.6294,2.6052,2.5732,2.5684,2.5684,2.5684,2.5684,2.5684,0.0,0.0,0.0,0.0,0.0,0.0,0.0,0.0,0.0,0.0,0.0,0.0,0.0,0.0,0.0,0.0,0.0,0.0,0.0,0.0,0.0,0.0,0.0,0.0,0.0,0.0,0.0,3.4236,3.3531,0.0,0.0,0.0,0.0,0.0,0.0,0.0,0.0,0.0,0.0,0.0,3.1683,3.1683,0.0,0.0,0.0,0.0,0.0,0.0,0.0,0.0,0.0,0.0,0.0,0.0,2.8929,2.9246,3.0043,3.0329,3.017,2.9988,2.9897,2.9932,2.9565,2.8749,2.7396,0.0,0.0,0.0,0.0,0.0,0.0,0.0,0.0,0.0,0.0,0.0,0.0,0.0,0.0,0.0,0.0,0.0,0.0,0.0,0.0,0.0,0.0,0.0,0.0,0.0,2.8109,0.0,0.0,0.0,0.0,0.0,0.0,0.0,0.0,0.0,0.0,0.0,2.9328,2.9376,2.8925,2.8326,2.762,2.7003,2.6476,0.0,0.0,0.0,0.0,0.0,0.0,0.0,0.0,0.0,0.0,0.0,0.0,0.0,0.0,2.4548,2.4072,2.3822,2.373,2.3594,0.0,0.0,0.0,0.0,0.0,0.0,0.0,0.0,0.0,0.0,0.0,0.0,0.0,0.0,3.5772,0.0,3.4942,0.0,0.0,0.0,0.0,0.0,0.0,0.0,0.0,3.3146,3.2904,3.2718,3.2636,3.2342,0.0,3.1811,3.0926,0.0,0.0,0.0,0.0,0.0,0.0,0.0,0.0,2.9958,3.038,3.116,3.146,3.1303,3.1226,3.1181,3.1169,3.0771,3.0107,2.9193,2.867,2.7786,0.0,0.0,0.0,0.0,0.0,0.0,0.0,0.0,0.0,0.0,0.0,0.0,0.0,0.0,0.0,0.0,0.0,0.0,0.0,0.0,0.0,0.0,0.0,2.8699,0.0,0.0,0.0,0.0,0.0,0.0,0.0,0.0,0.0,3.0984,3.0684,3.057,3.0576,2.9954,2.9152,2.8351,0.0,0.0,0.0,0.0,0.0,0.0,0.0,2.5684,2.5684,2.5684,2.5684,2.5684,2.5684,2.5684,2.5684,0.0,0.0,2.4727,2.4521,2.4424,2.4424,2.4424,2.4424,2.4424,2.4424,2.4424,0.0,0.0,0.0,0.0,0.0,0.0,0.0,0.0,3.6637,3.6828,0.0,3.636,0.0,0.0,0.0,0.0,0.0,3.491,0.0,0.0,3.4498,3.4338,3.44,3.4204,3.3611,3.2682,3.267,3.2212,3.1414,3.0409,0.0,0.0,0.0,0.0,0.0,0.0,3.0573,3.1594,3.1907,3.2021,3.2033,3.1837,3.1749,3.1737,3.1404,3.1382,3.1527,3.0133,2.9258,2.9211,2.8325,0.0,0.0,0.0,0.0,0.0,0.0,0.0,0.0,0.0,0.0,0.0,0.0,0.0,0.0,0.0,0.0,0.0,0.0,0.0,0.0,2.9176,0.0,0.0,0.0,0.0,0.0,0.0,0.0,0.0,0.0,0.0,3.1809,3.1907,3.1893,3.1455,0.0,0.0,0.0,0.0,2.7051,2.6592,2.6062,2.5732,2.5684,2.5684,2.5684,2.5684,0.0,0.0,2.5684,2.5684,2.5684,2.5684,2.5674,2.5596,2.5213,2.4775,2.4512,2.4502,2.4521,2.4473,2.4473,2.4551,2.4531,4.1082,0.0,0.0,0.0,0.0,3.8533,3.8707,3.904,3.9077,3.8934,3.8633,3.7998,0.0,0.0,0.0,0.0,0.0,0.0,3.6396,3.6567,3.6256,3.5865,3.5345,3.5141,3.4637,3.3859,3.3759,3.3376,3.2807,3.2111,3.1398,3.0696,0.0,0.0,0.0,0.0,3.1705,3.2017,3.2523,3.2797,3.2797,3.2711,3.268,3.268,3.2605,3.2386,3.203,3.1585,3.081,2.9686,2.9363,0.0,0.0,0.0,0.0,0.0,0.0,0.0,0.0,0.0,0.0,0.0,0.0,0.0,0.0,0.0,0.0,0.0,0.0,0.0,2.9829,3.0181,3.0532,0.0,0.0,0.0,0.0,0.0,0.0,0.0,0.0,0.0,3.3783,3.3387,3.3165,0.0,0.0,3.1249,3.0432,2.9025,2.7741,2.6907,2.6332,0.0,0.0,2.5684,2.5684,2.5684,2.5684,2.5684,2.5684,2.5684,2.5684,2.5684,2.5684,2.5645,2.5576,2.5449,2.5304,2.5304,2.5313,2.5304,2.5313,2.5304,2.5304,4.3294,4.1883,4.0601,4.0091,4.0129,4.0206,4.0395,4.0621,4.0606,4.045,4.0157,3.9484,3.8925,3.8445,3.8085,0.0,0.0,0.0,3.7765,3.7763,3.7544,3.7014,3.6362,3.6084,3.5615,3.4909,3.4729,3.4369,3.3937,3.3434,3.2976,3.2453,0.0,0.0,3.1725,3.2051,3.2328,3.2566,3.2893,3.3124,3.3124,3.3124,3.3124,3.3124,3.3124,3.2905,3.2566,3.234,3.1763,3.0796,3.0344,2.9553,0.0,0.0,0.0,0.0,0.0,0.0,0.0,0.0,0.0,0.0,0.0,2.8221,2.8836,0.0,0.0,0.0,2.9114,2.9641,3.0532,3.0809,0.0,0.0,0.0,0.0,0.0,0.0,0.0,3.3633,3.4022,3.4437,3.4919,3.457,3.4329,3.4363,3.3521,3.2476,3.1471,0.0,2.8744,2.7547,2.6716,2.6149,2.5927,2.5781,2.5684,2.5684,2.5684,2.5684,2.5684,2.5684,2.5684,2.5684,2.5684,2.5684,2.5684,2.5684,2.5684,2.5684,2.5684,2.5684,2.5684,2.5684,2.5684,4.499,4.4242,4.2447,4.1494,4.1207,4.1383,4.1444,4.1497,4.1459,4.1482,4.1452,4.0771,4.0472,4.0427,3.9645,0.0,3.9253,3.9047,3.8797,3.8641,3.8381,3.7938,3.738,3.7106,3.6584,3.583,3.5615,3.5263,3.4799,3.4397,3.4202,3.4134,3.2482,3.1899,3.2294,3.2332,3.2583,3.3111,3.3124,3.3111,3.3124,3.3124,3.3124,3.3124,3.3124,3.3111,3.3099,3.2608,3.2307,3.2231,3.1276,3.0446,2.9843,0.0,0.0,0.0,0.0,0.0,0.0,0.0,0.0,0.0,0.0,0.0,0.0,0.0,0.0,3.0279,3.0099,0.0,3.0746,3.1276,0.0,0.0,0.0,3.2051,3.3093,3.325,3.3621,3.4663,0.0,0.0,3.5495,3.5558,3.5336,3.4666,3.4301,3.3552,3.2118,3.1055,2.9825,2.8239,2.7251,2.6496,2.6245,2.5965,2.5732,2.5684,2.5684,2.5684,2.5684,2.5684,2.5684,2.5684,2.5684,2.5684,2.5684,2.5684,2.5684,2.5684,2.5684,2.5684,2.5684,2.5684,2.5684,4.5693,4.5035,4.4556,4.3509,4.2094,4.2132,4.2171,4.2171,4.2171,4.2171,4.2111,4.1482,4.1145,4.1145,4.0943,4.0868,4.0816,4.0286,3.9899,3.9706,3.9143,3.8649,3.8217,3.7962,3.7544,3.6925,3.6677,3.6149,3.5467,3.5345,3.5155,3.4772,3.4192,3.37,3.3339,3.3352,3.3344,3.3313,3.3313,3.324,3.3124,3.3124,3.3124,3.3124,3.324,3.3313,3.33,3.3344,3.3148,3.2714,3.2077,3.1301,3.0292,2.9565,0.0,0.0,0.0,0.0,0.0,0.0,0.0,0.0,0.0,3.0559,3.1177,0.0,3.1941,0.0,3.1914,3.2047,3.2672,3.2845,0.0,0.0,3.3922,3.4035,3.4299,3.4336,3.4587,3.5219,3.5307,3.5508,3.6094,3.6169,3.6132,3.5947,3.5326,3.4438,3.3116,3.1902,3.0535,2.8869,2.7904,2.7204,2.6764,2.6294,2.5965,2.5732,2.5684,2.5684,2.5684,2.5684,2.5684,2.5684,2.5684,2.5684,2.5684,2.5684,2.5684,2.5684,2.5684,2.5684,2.5684,2.5684,2.5684,4.6563,4.603,4.5947,4.5094,4.3833,4.3438,4.306,4.2791,4.2791,4.2791,4.2761,4.2156,4.1692,4.1437,4.1422,4.1422,4.1354,4.0995,4.0808,4.0651,4.0308,3.978,3.9216,3.909,3.8629,3.7825,3.7582,3.7208,3.6702,3.6478,3.6201,3.5856,3.5629,3.5291,3.4841,3.4288,3.3979,3.3852,3.3738,3.3654,3.3539,3.3441,3.3356,3.3356,3.3611,3.3696,3.3696,3.3894,3.3866,3.3584,3.3066,3.2354,3.1474,3.0709,3.0105,0.0,0.0,0.0,0.0,0.0,0.0,0.0,0.0,0.0,0.0,0.0,3.342,3.3673,3.3621,3.3824,3.439,3.4444,3.465,3.513,3.4996,3.4962,3.5234,3.5123,3.5257,3.5843,3.5906,3.6006,3.638,3.6417,3.6417,3.6417,3.5987,3.5233,3.3832,3.2821,3.1599,2.9816,2.8817,2.794,2.7183,2.6716,2.6342,2.5965,2.5878,2.582,2.5732,2.5684,2.5684,2.5684,2.5684,2.5684,2.5684,2.5684,2.5684,2.5684,2.5684,2.5684,2.5684,2.5684,2.5684,4.7504,4.7167,4.6944,4.6524,4.5863,4.5056,4.4218,4.3409,4.3334,4.3305,4.3275,4.2746,4.2201,4.1639,4.1624,4.1624,4.1639,4.1534,4.1542,4.1542,4.1414,4.0995,4.0278,4.0189,3.9639,3.8722,3.8433,3.8188,3.7962,3.7577,3.7256,3.7053,3.6858,3.6702,3.6452,3.5386,3.4703,3.4564,3.4356,3.4243,3.416,3.3979,3.3839,3.3839,3.4118,3.4243,3.4285,3.4481,3.4551,3.4551,3.4094,3.3554,3.3041,3.2203,3.1516,0.0,3.1021,0.0,0.0,0.0,0.0,0.0,0.0,0.0,0.0,3.4772,3.4799,3.5388,3.5521,3.5692,3.5987,3.6087,3.6121,3.6111,3.5737,3.5672,3.6073,3.5919,3.5923,3.6402,3.6452,3.6465,3.6417,3.6417,3.6417,3.6405,3.6245,3.564,3.4379,3.3674,3.269,3.1,2.9863,2.8806,2.7741,2.7278,2.6945,2.638,2.6197,2.6052,2.583,2.5732,2.5684,2.5684,2.5684,2.5684,2.5684,2.5684,2.5684,2.5684,2.5684,2.5684,2.5684,2.5684,2.5684,4.8377,4.8295,4.8254,4.7829,4.7201,4.7038,4.587,4.4092,4.3514,4.3305,4.329,4.317,4.309,4.297,4.2931,4.2916,4.2886,4.2417,4.2216,4.2201,4.1662,4.1309,4.1122,4.0599,4.0137,3.9787,3.921,3.8723,3.8404,3.8315,3.8165,3.7962,3.7772,3.763,3.7567,0.0,0.0,0.0,3.5196,3.4924,3.4592,3.4703,3.4675,3.4551,3.4936,0.0,3.5141,3.5358,3.5467,3.5453,3.51,0.0,0.0,0.0,0.0,0.0,0.0,0.0,0.0,0.0,0.0,0.0,3.6464,3.6234,3.5947,3.7007,3.7822,3.8108,3.8154,3.809,3.7876,3.7909,3.7872,3.7772,3.7644,3.7528,3.7245,3.7153,3.7019,3.6649,3.6615,3.6581,3.6465,3.6417,3.6405,3.6355,3.5981,3.5408,3.4665,3.4119,3.3271,3.1675,3.0599,2.9646,2.8585,2.8258,2.7882,2.7183,2.6678,2.6352,2.61,2.5868,2.5732,2.5732,2.5684,2.5684,2.5684,2.5684,2.5684,2.5684,2.5684,2.5684,2.5684,2.5684,2.5684,4.9662,0.0,4.934,4.9041,0.0,4.8115,4.7269,4.6162,4.4947,4.4198,4.3778,4.3596,4.3503,4.3518,4.3369,4.3305,4.3275,4.2985,4.2836,4.2821,4.2491,4.2177,4.1901,4.1572,4.1152,4.0733,4.0055,3.9631,3.9432,3.9136,3.8848,3.8649,3.8538,3.8449,3.8337,3.8248,3.7668,3.6663,3.6281,3.6002,3.5776,3.5669,3.5588,3.5507,0.0,0.0,0.0,0.0,0.0,0.0,0.0,0.0,0.0,0.0,0.0,3.5506,3.5733,3.6093,3.6505,3.6801,3.7273,3.785,3.8385,3.8397,3.7834,3.8958,3.9822,4.011,4.006,3.9977,4.0027,3.9686,3.9465,3.936,3.9015,3.8594,3.8245,3.7985,3.7677,3.7201,3.7108,3.6968,3.6593,3.6546,3.6373,3.5994,3.5671,3.5182,3.4455,3.3986,3.3248,3.199,3.1327,3.0611,2.9783,2.9314,2.8806,2.7977,2.7468,2.7098,2.6706,2.6438,2.6304,2.6294,2.61,2.5868,2.5878,2.5781,2.5684,2.5684,2.5684,2.5684,2.5684,2.5684,2.5684,5.1214,5.0894,5.0553,5.0317,5.0135,4.9236,4.8765,4.8521,0.0,0.0,0.0,4.4111,4.3871,4.3793,4.3581,4.3463,4.3369,4.3384,4.3344,4.3305,4.3305,4.3045,4.2575,4.244,4.2126,4.1549,4.0891,4.0591,4.0531,3.9918,3.9501,3.9341,3.92,3.9053,3.8907,3.8907,3.856,3.7924,3.7438,3.7169,3.7053,3.678,3.6624,3.657,3.6847,3.6978,3.6978,3.7134,3.7211,3.7226,3.7419,3.7306,3.6807,3.7123,3.7099,3.6642,3.6871,3.7284,3.7827,3.8045,3.836,3.8863,3.9802,4.0173,3.9833,4.0589,4.1238,4.1659,4.1533,4.1535,4.1811,4.1282,4.0873,4.0831,4.0144,3.9604,3.9251,3.8819,3.8427,3.7861,3.7723,3.7441,3.6756,3.6637,3.632,3.5609,3.5265,3.4914,3.3978,3.357,3.3132,3.2306,3.1901,3.1536,3.097,3.0419,2.9726,2.9002,2.8491,2.8034,2.76,2.7278,2.7088,2.6993,2.661,2.6332,2.6235,2.6014,2.5771,2.5771,2.5732,2.5684,2.5684,2.5684,2.5684,5.3079,5.2464,5.2426,5.2046,5.1438,5.1303,5.0896,5.0119,4.734,4.5941,4.5641,4.4939,4.4465,4.4205,4.4166,4.3972,4.3636,4.3636,4.3518,0.0,4.3305,4.3245,4.3125,4.2626,4.2351,4.2216,4.1549,4.125,4.1175,4.0576,4.0225,4.0151,3.9657,3.9337,3.9301,3.9301,3.9265,3.9156,3.859,3.8113,3.7758,3.7886,3.7848,3.7682,3.7886,3.8014,3.8014,3.8014,3.8052,3.8052,3.824,3.8285,3.8235,3.8429,3.8495,3.8458,3.8626,3.8794,3.8883,3.9094,3.9211,3.9397,4.0494,4.1212,4.1136,4.1756,4.2335,4.2748,4.2697,4.2611,4.2336,4.2213,4.1951,4.1604,4.1437,4.1113,4.0446,4.0114,3.9648,3.8819,3.853,3.7957,3.6917,3.6527,3.6082,3.5288,3.4634,3.3922,3.3476,3.3194,3.3027,3.2692,3.2581,3.2351,3.1813,3.1427,3.0836,3.0385,2.9543,2.8945,2.862,2.8211,2.7893,2.76,2.7315,2.704,2.686,2.638,2.6149,2.61,2.5965,2.583,2.583,2.5771,2.5732,5.4626,5.402,5.3496,5.3093,5.2745,5.2241,5.1858,5.1427,4.9733,4.8421,4.7511,4.6418,4.5784,4.5597,4.49,4.4465,4.4289,4.4243,4.4035,4.3856,4.384,4.3738,4.3488,4.3256,4.3028,4.2836,4.2261,4.1946,4.1901,4.125,4.0741,4.0382,3.9738,3.9388,3.9388,3.9388,3.9388,3.9388,3.901,3.8723,3.8575,3.8523,3.8486,3.8375,3.8501,3.8538,3.8523,3.8523,3.8523,3.8538,3.8723,3.8811,3.8848,3.9031,3.9104,3.9141,3.9228,3.9265,3.9265,3.9352,3.9388,3.9433,4.0636,4.1422,4.1422,4.2312,4.2961,4.3126,4.3155,4.3105,4.289,4.2784,4.2648,4.2415,4.224,4.1813,4.1282,4.1001,4.0588,3.9796,3.9155,3.8475,3.7502,3.6862,3.6103,3.512,3.4234,3.3561,3.3278,3.3167,3.3081,3.2952,3.2896,3.2754,3.2438,3.2101,3.1705,3.125,3.0689,3.0227,2.9909,2.9498,2.9198,2.9002,2.8491,2.7977,2.7741,2.7268,2.6935,2.6706,2.662,2.6524,2.6476,2.6438,2.6197,5.6,5.5406,5.4692,5.4221,5.3818,5.2942,5.2572,5.2505,5.1955,5.1043,4.9821,4.8224,4.7324,4.695,4.5971,4.5325,4.5014,4.488,4.4692,4.448,4.4419,4.4266,4.3988,4.391,4.3778,4.356,4.3133,4.2891,4.2816,4.2175,4.1363,4.0501,3.9961,3.9595,3.9388,3.9388,3.9388,3.9388,3.925,3.9192,3.9141,3.9031,3.8929,3.8943,3.8943,3.8943,3.8929,3.8929,3.8943,3.8943,3.9104,3.9141,3.9177,3.9301,3.9388,3.9388,3.9388,3.9388,3.9388,3.9388,3.9448,3.9664,4.0711,4.1482,4.1707,4.2656,4.3305,4.3305,4.3305,4.3305,4.3265,4.317,4.3076,4.3036,4.2809,4.2459,4.2061,4.1827,4.1451,4.076,3.9914,3.9085,3.8226,3.7338,3.6236,3.5044,3.4122,3.3624,3.3569,3.3368,3.3197,3.3154,3.3167,3.3038,3.281,3.2593,3.2276,3.1857,3.1593,3.1315,3.108,3.0791,3.0532,3.0295,2.9692,2.9141,2.8817,2.8247,2.7825,2.76,2.7468,2.7373,2.7326,2.7183,2.6764,5.7268,5.6677,5.6472,5.5731,5.448,5.372,5.3382,5.3365,5.3111,5.2976,5.2468,5.0531,4.8968,4.7961,4.7742,4.6929,4.576,4.5588,4.5421,4.5036,4.4827,4.4737,4.4677,4.4572,4.4496,4.4442,4.4365,4.4304,4.4273,4.3509,4.2301,4.0848,4.0616,4.0205,3.955,3.9454,3.9439,3.9409,3.9388,3.9388,3.9388,3.9352,3.9337,3.9352,3.9352,3.9337,3.9316,3.9337,3.9337,3.9337,3.9352,3.9388,3.9373,3.9388,3.9388,3.9388,3.9388,3.9388,3.9388,3.9388,3.9694,4.0292,4.0965,4.1654,4.2246,4.291,4.3305,4.3305,4.3305,4.3305,4.3305,4.3305,4.325,4.325,4.321,4.3115,4.282,4.2729,4.2389,4.1908,4.0821,3.9908,3.885,3.7676,3.6373,3.5161,3.4656,3.4272,3.4118,3.3738,3.3484,3.3411,3.324,3.3124,3.3038,3.2853,3.2624,3.2537,3.2208,3.1989,3.1857,3.1693,3.1484,3.125,3.0802,3.034,2.9886,2.9325,2.8713,2.8667,2.8398,2.7987,2.794,2.7835,2.7363,5.7712,5.7391,5.6985,5.6207,5.5209,5.4465,5.4143,5.411,5.3602,5.3382,5.3298,5.2404,5.1292,5.0045,4.9425,4.8542,4.7561,4.7424,4.6885,4.6127,4.6024,4.5753,4.5369,4.5258,4.5126,4.4902,4.4918,4.4918,4.4756,4.4065,4.3264,4.2594,4.2102,4.1641,4.1279,4.0913,4.07,4.07,4.0284,4.0051,4.0001,3.9625,3.9388,3.9388,3.9388,3.9388,3.9388,3.9388,3.9388,3.9388,3.9388,3.9388,3.9388,3.9388,3.9388,3.9388,3.9388,3.9388,3.9388,3.9768,4.0113,4.0397,4.1369,4.2126,4.2396,4.2955,4.3305,4.3305,4.3305,4.3305,4.3305,4.3305,4.3305,4.3305,4.3305,4.321,4.3036,4.29,4.2754,4.2397,4.127,4.0253,3.9447,3.8,3.6759,3.6017,3.5548,3.5127,3.4908,3.4481,3.4134,3.3979,3.3823,3.3539,3.321,3.3038,3.2939,3.2884,3.2797,3.2667,3.2581,3.245,3.2232,3.2145,3.1693,3.1327,3.1059,3.0701,3.0193,3.0011,2.9909,2.9635,2.9382,2.9233,2.8724,5.7881,5.778,5.7103,5.6494,5.597,5.5209,5.4786,5.4532,5.4025,5.3687,5.3518,5.3518,5.2977,5.1982,5.0957,5.0072,4.9325,4.9107,4.8588,4.7738,4.7458,4.7084,4.6577,4.6278,4.6005,4.5789,4.5753,4.5681,4.5525,4.5022,4.4517,4.4081,4.3485,4.3051,4.2741,4.2246,4.2045,4.1983,4.1484,4.1218,4.1198,4.0726,4.0202,3.9777,3.9696,3.9696,3.9696,3.9696,3.9696,3.9681,3.9681,3.9696,3.9696,3.9696,3.9696,3.9727,3.9913,4.0004,4.0019,4.0622,4.109,4.1316,4.2153,4.2717,4.2943,4.3217,4.3394,4.3423,4.3344,4.3305,4.3305,4.3305,4.3305,4.3305,4.3305,4.325,4.3115,4.3076,4.3036,4.2786,4.1612,4.0378,3.963,3.8347,3.7352,3.7106,3.6545,3.6044,3.5777,3.5359,3.4909,3.4771,3.4522,3.4105,3.3496,3.324,3.3197,3.3154,3.3124,3.3038,3.3124,3.2896,3.2797,3.2581,3.2351,3.2176,3.1857,3.1693,3.1383,3.1193,3.1092,3.0958,3.0611,3.0532,3.0216,5.7881,5.7797,5.7103,5.6816,5.6681,5.597,5.5277,5.4735,5.4549,5.416,5.3602,5.3518,5.345,5.3264,5.232,5.1413,5.051,5.0409,5.0208,4.9838,4.9107,4.8709,4.8626,4.7782,4.7336,4.7249,4.7215,4.7064,4.6708,4.6641,4.5974,4.4788,4.4673,4.4165,4.3478,4.3322,4.3153,4.3228,4.3102,4.3063,4.3063,4.3009,4.2175,4.0824,4.0501,4.0528,4.0482,4.0486,4.0501,4.0486,4.0528,4.0516,4.0466,4.0497,4.0512,4.0543,4.112,4.1509,4.155,4.2089,4.2704,4.3236,4.3302,4.3525,4.3991,4.3873,4.3754,4.369,4.3518,4.3384,4.3329,4.3344,4.3305,4.3305,4.3305,4.329,4.329,4.325,4.329,4.3046,4.1921,4.0548,3.8948,3.8522,3.8202,3.7901,3.7481,3.7134,3.678,3.6175,3.579,3.5602,3.5277,3.4799,3.4189,3.3781,3.3484,3.3368,3.3283,3.3124,3.3124,3.3081,3.3081,3.3025,3.281,3.2636,3.2581,3.2363,3.2001,3.1825,3.1781,3.1649,3.1516,3.1395,3.1116,5.7881,5.7865,5.7611,5.7492,5.7408,5.6714,5.6258,5.5919,5.4989,5.4448,5.4143,5.3721,5.3518,5.3484,5.3146,5.2522,5.1698,5.1647,5.1312,5.0727,5.0359,5.0093,4.9858,4.9526,4.906,4.853,4.848,4.8166,4.7588,4.7438,4.7139,4.6707,4.6489,4.6207,4.588,4.5461,4.5235,4.5203,4.4816,4.4541,4.4556,4.4557,4.4201,4.3602,4.2695,4.2206,4.2206,4.2206,4.2221,4.2221,4.2241,4.2241,4.2241,4.2256,4.2206,4.2272,4.2474,4.263,4.2692,4.32,4.365,4.3915,4.4276,4.4443,4.4577,4.4465,4.4328,4.4127,4.4011,4.3856,4.3581,4.3423,4.3305,4.3305,4.3305,4.3305,4.3305,4.3305,4.3305,4.311,4.2115,4.0875,3.9884,3.9225,3.8863,3.8649,3.8329,3.8014,3.772,3.7323,3.7014,3.6872,3.6506,3.611,3.579,3.4703,3.3979,3.3641,3.3441,3.3283,3.3197,3.321,3.3197,3.3111,3.2982,3.2952,3.2853,3.281,3.2494,3.2537,3.2463,3.232,3.2363,3.2101,3.1969,5.7971,5.7935,5.7954,5.8007,5.7923,5.7554,5.7162,5.6821,5.5855,5.5126,5.4617,5.4059,5.3737,5.3534,5.3518,5.3247,5.2723,5.2689,5.2352,5.1814,5.1544,5.1294,5.1078,5.0844,5.0392,4.9825,4.9525,4.9125,4.8644,4.8247,4.8,4.782,4.7721,4.7621,4.7539,4.7128,4.6898,4.6799,4.6436,4.6174,4.6157,4.6174,4.6141,4.606,4.5217,4.4432,4.3931,4.3883,4.3849,4.3899,4.3899,4.3899,4.3883,4.3849,4.3849,4.3899,4.4122,4.4233,4.4312,4.4833,4.5199,4.5163,4.5417,4.5572,4.5463,4.5243,4.5014,4.4768,4.4518,4.4343,4.4089,4.3817,4.3527,4.3369,4.3305,4.3305,4.3305,4.3305,4.317,4.2895,4.2058,4.116,4.0487,3.9704,3.9266,3.9192,3.8885,3.8649,3.8501,3.824,3.8037,3.7872,3.7567,3.7183,3.6833,3.6044,3.5005,3.4551,3.3979,3.3696,3.3496,3.3454,3.3326,3.324,3.3154,3.3167,3.3124,3.3124,3.3124,3.3124,3.2982,3.2766,3.281,3.281,3.2581,5.8116,5.8007,5.8116,5.8224,5.8243,5.8369,5.7976,5.7289,5.705,5.6182,5.5094,5.4686,5.4279,5.3737,5.3686,5.3534,5.3466,5.3466,5.3382,5.3196,5.2605,5.2284,5.2234,5.1643,5.1289,5.1069,5.0441,5.0008,4.973,4.9144,4.8632,4.8276,4.8227,4.8163,4.8033,4.7967,4.7967,4.795,4.785,4.7868,4.7984,4.7851,4.785,4.7884,4.7753,4.6979,4.5471,4.539,4.5391,4.5357,4.5357,4.5323,4.5374,4.5374,4.5341,4.5472,4.5996,4.6307,4.6405,4.6846,4.7105,4.7071,4.6949,4.6708,4.6604,4.6147,4.5769,4.5624,4.5258,4.4887,4.4774,4.4556,4.4073,4.3463,4.3423,4.3384,4.3384,4.3344,4.312,4.259,4.1925,4.1168,4.0487,3.9807,3.9382,3.9316,3.9192,3.9068,3.8995,3.8738,3.8553,3.8478,3.8277,3.8,3.7711,3.7341,3.6389,3.5548,3.4881,3.4384,3.4147,3.4021,3.3823,3.3683,3.3356,3.3313,3.3197,3.3154,3.3124,3.3124,3.3068,3.3111,3.3025,3.2995,3.3038,5.8702,5.865,5.8736,5.8736,5.8771,5.8806,5.8651,5.8359,5.7895,5.7363,5.6729,5.5768,5.5151,5.4844,5.4432,5.4127,5.3996,5.3946,5.3833,5.3517,5.323,5.3095,5.3061,5.2875,5.2486,5.1928,5.1217,5.0559,5.0122,4.9801,4.94,4.8868,4.8736,4.8753,4.8658,4.869,4.869,4.8707,4.869,4.8707,4.869,4.869,4.869,4.869,4.869,4.8358,4.7876,4.7417,4.7176,4.7126,4.7159,4.7176,4.7159,4.7176,4.7176,4.7192,4.7374,4.7506,4.7539,4.7655,4.782,4.7787,4.7671,4.7571,4.7454,4.7202,4.6878,4.655,4.6288,4.604,4.5551,4.5332,4.4902,4.4073,4.3856,4.3778,4.3817,4.3778,4.3663,4.3259,4.2303,4.1528,4.0995,4.0239,3.952,3.9424,3.9373,3.9286,3.9265,3.9192,3.9119,3.9119,3.8936,3.8701,3.8352,3.8052,3.7467,3.6638,3.595,3.5264,3.4991,3.4799,3.4551,3.4147,3.3768,3.3513,3.3356,3.3313,3.3283,3.321,3.3197,3.3154,3.3124,3.3124,3.3167,5.9283,5.9182,5.9317,5.935,5.9401,5.9466,5.9483,5.9331,5.8897,5.8449,5.79,5.7086,5.6463,5.6168,5.5736,5.5291,5.4937,5.4856,5.4512,5.3966,5.3651,5.3568,5.3518,5.3518,5.3281,5.2689,5.1978,5.1369,5.0896,5.0338,4.9847,4.9458,4.9137,4.9001,4.9018,4.9018,4.9018,4.9018,4.9001,4.9001,4.9001,4.9018,4.9018,4.9018,4.9001,4.9001,4.897,4.8595,4.8389,4.8389,4.8373,4.8373,4.8389,4.8356,4.8373,4.8373,4.8373,4.8356,4.8373,4.8356,4.8373,4.8373,4.8325,4.8261,4.8115,4.8,4.7671,4.7422,4.7186,4.6931,4.6515,4.6182,4.5841,4.5295,4.4655,4.4328,4.4289,4.4289,4.4251,4.3892,4.3152,4.2348,4.1661,4.09,4.0004,3.9787,3.9589,3.9517,3.9496,3.9445,3.9424,3.9403,3.9228,3.9031,3.8907,3.8649,3.8427,3.7758,3.7092,3.6452,3.5976,3.583,3.5629,3.4881,3.4426,3.4105,3.3937,3.3823,3.3738,3.3569,3.3454,3.3411,3.3454,3.3283,3.3227,5.9923,5.9663,5.9955,6.0114,6.0129,6.041,6.0379,6.0129,6.0079,5.9548,5.88,5.8534,5.8118,5.758,5.739,5.6956,5.6334,5.6046,5.5577,5.4859,5.4274,5.3832,5.3651,5.3618,5.3567,5.3348,5.2755,5.235,5.2028,5.1012,5.0217,5.0118,4.961,4.912,4.9204,4.9103,4.9103,4.9018,4.9018,4.9018,4.9018,4.9018,4.9018,4.9018,4.9018,4.9018,4.9001,4.894,4.894,4.8987,4.8909,4.8909,4.897,4.9001,4.894,4.8909,4.897,4.894,4.897,4.8877,4.8909,4.8877,4.8801,4.8801,4.8675,4.842,4.826,4.813,4.7918,4.7721,4.7555,4.722,4.6862,4.6673,4.5681,4.5052,4.4902,4.4924,4.4924,4.4756,4.4127,4.3399,4.2694,4.1889,4.1204,4.0669,4.0304,4.0222,3.9913,3.9887,3.9571,3.9454,3.9424,3.9301,3.9104,3.9068,3.8848,3.8612,3.8023,3.7553,3.6922,3.6702,3.6466,3.5763,3.5127,3.4799,3.4522,3.4426,3.4314,3.4176,3.4021,3.3865,3.3781,3.3683,3.3556,6.1063,6.0986,6.1063,6.1093,6.1122,6.121,6.118,6.1093,6.1093,6.0891,6.0546,6.004,5.969,5.9463,5.8934,5.8438,5.7941,5.7404,5.6729,5.6089,5.5301,5.46,5.4141,5.4028,5.398,5.3848,5.3626,5.3188,5.2564,5.2104,5.1532,5.093,5.0723,5.0319,4.9898,4.9828,4.9492,4.9069,4.9035,4.9083,4.9066,4.9066,4.9018,4.9018,4.9032,4.9049,4.9018,4.9018,4.9018,4.9018,4.9018,4.9018,4.9018,4.9018,4.9018,4.9018,4.9018,4.9018,4.9018,4.9018,4.9018,4.9018,4.8987,4.8956,4.894,4.8846,4.8769,4.8675,4.8549,4.8373,4.8114,4.7918,4.7704,4.7371,4.655,4.5949,4.5913,4.5877,4.5805,4.5473,4.4881,4.4297,4.3742,4.3183,4.2598,4.2204,4.1883,4.1541,4.1082,4.0501,4.0281,3.9724,3.9532,3.9424,3.9352,3.9337,3.9265,3.9228,3.8922,3.8598,3.7947,3.7429,3.7067,3.6559,3.603,3.5629,3.5345,3.5114,3.495,3.4978,3.4744,3.4662,3.4468,3.4343,3.423,6.1758,6.1702,6.1758,6.1786,6.1786,6.1859,6.1841,6.1786,6.1804,6.1776,6.1594,6.1233,6.1008,6.0972,6.0575,6.0078,5.9553,5.9049,5.8272,5.7206,5.6354,5.5443,5.4738,5.4488,5.4411,5.4318,5.4286,5.3967,5.3445,5.3122,5.2646,5.2172,5.1799,5.1407,5.1045,5.0963,5.0793,5.0465,5.0332,5.0213,4.9905,4.9888,4.9649,4.9483,4.9398,4.9453,4.9712,4.9705,4.9494,4.9134,4.9018,4.9018,4.9018,4.9018,4.9018,4.9018,4.9018,4.9018,4.9018,4.9018,4.9018,4.9018,4.9018,4.9018,4.9001,4.9001,4.894,4.8894,4.8863,4.8753,4.8595,4.85,4.8324,4.8016,4.7538,4.7134,4.6913,4.6894,4.6791,4.6488,4.6143,4.5605,4.5138,4.4604,4.4148,4.3725,4.3204,4.2802,4.2286,4.1648,4.1071,4.0664,4.0132,4.0021,3.9955,3.9925,3.9788,3.9753,3.9502,3.9271,3.8797,3.8165,3.7787,3.7376,3.6936,3.6545,3.6308,3.6149,3.6175,3.6056,3.5736,3.5454,3.5264,3.5155,3.5032,6.2203,6.2096,6.223,6.2257,6.2265,6.2389,6.2344,6.2283,6.2238,6.2185,6.2087,6.2078,6.1978,6.2078,6.1877,6.1642,6.0963,6.0584,5.9527,5.8285,5.7154,5.6148,5.5396,5.5177,5.5044,5.4878,5.4834,5.4724,5.4441,5.3894,5.3639,5.3387,5.2852,5.2486,5.2334,5.23,5.2313,5.2058,5.1938,5.1679,5.1282,5.1196,5.0942,5.0528,5.0442,5.0607,5.0879,5.0849,5.0444,4.9443,4.9165,4.9049,4.9032,4.9032,4.9018,4.9018,4.9018,4.9018,4.9018,4.9018,4.9018,4.9018,4.9018,4.9018,4.9018,4.9001,4.9001,4.8987,4.9018,4.897,4.894,4.8863,4.8738,4.8515,4.8467,4.8292,4.7968,4.7787,4.7754,4.7737,4.7538,4.716,4.67,4.6241,4.5812,4.5412,4.4863,4.436,4.3743,4.3044,4.247,4.1957,4.1357,4.0693,4.0647,4.0601,4.0401,4.025,3.9985,3.9737,3.9379,3.887,3.8553,3.8165,3.772,3.7529,3.7491,3.7414,3.7285,3.713,3.6766,3.6452,3.6229,3.6149,3.603,6.2654,6.2629,6.2654,6.2672,6.2654,6.2698,6.2679,6.2654,6.2672,6.2603,6.2629,6.2603,6.2603,6.2603,6.2578,6.2468,6.2029,6.1438,6.0249,5.854,5.7543,5.7028,5.6564,5.6239,5.5865,5.57,5.5642,5.5478,5.5196,5.5032,5.4812,5.4561,5.4391,5.4044,5.3582,5.3537,5.3123,5.2735,5.2665,5.2706,5.2544,5.2457,5.2323,5.2062,5.2068,5.2161,5.2212,5.2169,5.1963,5.1434,5.0266,4.9477,4.9369,4.9229,4.9215,4.9232,4.9151,4.91,4.9052,4.9168,4.9035,4.9185,4.9204,4.9018,4.9018,4.9052,4.9035,4.9018,4.9018,4.9018,4.9001,4.8987,4.8909,4.8877,4.8846,4.8846,4.8704,4.8467,4.8243,4.813,4.8065,4.7934,4.7704,4.7523,4.7227,4.7012,4.655,4.6033,4.5303,4.4525,4.3971,4.3437,4.2698,4.216,4.2016,4.181,4.1312,4.0984,4.0631,4.0335,3.997,3.9559,3.9199,3.8885,3.8553,3.8427,3.8315,3.8202,3.8,3.7886,3.7772,3.7491,3.7246,3.7169,3.7014,6.2823,6.2823,6.2823,6.2823,6.2823,6.2823,6.2823,6.2823,6.2823,6.2823,6.2823,6.2823,6.2823,6.2823,6.2823,6.2755,6.2522,6.1862,6.0762,5.9481,5.8549,5.7935,5.7455,5.717,5.6837,5.6483,5.6429,5.6257,5.6101,5.5999,5.5872,5.5755,5.5727,5.5564,5.5235,5.5119,5.5016,5.4778,5.4591,5.4449,5.4131,5.406,5.3812,5.3651,5.371,5.3855,5.3873,5.3647,5.3561,5.3137,5.1998,5.0917,5.0647,5.0526,5.0496,5.0482,5.0438,5.0407,5.0393,5.0252,5.021,5.0125,5.0065,4.9796,4.9627,4.9526,4.9306,4.9103,4.9018,4.9018,4.9018,4.9001,4.9018,4.9018,4.9018,4.9018,4.8987,4.8829,4.8704,4.8578,4.8595,4.8564,4.85,4.834,4.8275,4.7897,4.7621,4.7144,4.6798,4.6057,4.5565,4.4961,4.4198,4.3697,4.352,4.3068,4.233,4.1878,4.1358,4.1073,4.0734,4.0301,3.9859,3.9487,3.9141,3.901,3.8885,3.8775,3.8686,3.8575,3.8486,3.8389,3.8202,3.7962,3.781,6.2823,6.2823,6.2823,6.2823,6.2823,6.2823,6.2823,6.2823,6.2823,6.2823,6.2823,6.2823,6.2823,6.2823,6.2823,6.2823,6.2578,6.1998,6.1068,6.0475,5.9406,5.8828,5.8353,5.8135,5.782,5.7362,5.7116,5.6941,5.6801,5.6801,5.6696,5.6731,5.6731,5.6571,5.6668,5.6731,5.6526,5.6392,5.6374,5.6221,5.5841,5.5734,5.5428,5.5143,5.5229,5.5464,5.541,5.5204,5.504,5.4987,5.4199,5.3506,5.2979,5.2369,5.2274,5.2205,5.1964,5.1838,5.1712,5.1679,5.1558,5.16,5.1454,5.107,5.0626,5.047,5.0297,4.9943,4.9773,4.9773,4.9511,4.9729,4.9678,4.9531,4.9433,4.9218,4.9185,4.9134,4.897,4.894,4.8877,4.8815,4.8846,4.8801,4.8801,4.8786,4.8468,4.8194,4.7833,4.7489,4.6865,4.6389,4.5669,4.4902,4.4658,4.4138,4.3426,4.288,4.2318,4.1851,4.1522,4.1039,4.0562,4.0036,3.9717,3.961,3.9502,3.9451,3.9379,3.9271,3.9141,3.8958,3.8811,3.8679,3.8553,6.2823,6.2823,6.2823,6.2823,6.2823,6.2823,6.2823,6.2823,6.2823,6.2823,6.2823,6.2823,6.2823,6.2823,6.2823,6.2823,6.2622,6.2071,6.1557,6.108,6.0089,5.9399,5.9601,5.9137,5.8864,5.8615,5.8136,5.7612,5.7313,5.7289,5.722,5.7163,5.7138,5.712,5.7145,5.7094,5.7145,5.717,5.7145,5.7,5.6917,5.6844,5.6765,5.6511,5.6635,5.6718,5.6765,5.6673,5.6631,5.6587,5.6285,5.6009,5.5373,5.3855,5.3044,5.2922,5.2898,5.2909,5.279,5.252,5.2265,5.2123,5.2169,5.2087,5.1894,5.1825,5.1623,5.1537,5.1451,5.1567,5.1653,5.1325,5.1436,5.1271,5.0676,5.0215,5.0065,4.9616,4.9185,4.9201,4.9134,4.9001,4.8987,4.8987,4.8956,4.8894,4.8721,4.8627,4.8448,4.819,4.7898,4.7502,4.7123,4.6347,4.5687,4.508,4.4474,4.3961,4.3402,4.273,4.235,4.1785,4.1307,4.0956,4.0493,4.0196,4.0161,4.0076,3.995,3.9773,3.9646,3.9553,3.9394,3.9286,3.9213,6.2823,6.2823,6.2823,6.2823,6.2823,6.2823,6.2823,6.2823,6.2823,6.2823,6.2823,6.2823,6.2823,6.2823,6.2823,6.2823,6.2677,6.2475,6.1998,6.1465,6.0841,6.0327,6.0493,5.9979,5.9845,5.9693,5.9249,5.85,5.7794,5.7721,5.7667,5.7649,5.7625,5.7625,5.7625,5.7607,5.7583,5.7583,5.7583,5.7583,5.7583,5.7583,5.7583,5.7583,5.7534,5.751,5.7504,5.7363,5.7313,5.7245,5.7127,5.7094,5.6644,5.5936,5.4882,5.4727,5.456,5.4501,5.4347,5.4238,5.3997,5.3903,5.3684,5.3372,5.3129,5.2991,5.2912,5.2587,5.2466,5.2466,5.2384,5.2476,5.2351,5.2196,5.1674,5.1384,5.1042,5.0311,4.9912,4.963,4.9348,4.9182,4.9001,4.9018,4.9018,4.897,4.894,4.8925,4.8894,4.8721,4.8483,4.8333,4.7968,4.755,4.682,4.6255,4.5624,4.5089,4.4393,4.3737,4.3197,4.2698,4.2397,4.2126,4.164,4.1024,4.0699,4.0581,4.0424,4.0301,4.0211,4.0106,4.0001,3.993,3.9859,6.288,6.283,6.2848,6.283,6.2823,6.2823,6.2823,6.2823,6.2823,6.2823,6.2823,6.2823,6.2823,6.2823,6.2823,6.2823,6.2823,6.2762,6.242,6.1979,6.1575,6.1208,6.1025,6.0694,6.0639,6.0621,6.0524,5.9887,5.8812,5.839,5.8249,5.8165,5.8139,5.7978,5.7955,5.7886,5.7978,5.7978,5.7978,5.7978,5.7978,5.7978,5.7978,5.7978,5.7904,5.7815,5.7792,5.7721,5.7673,5.7631,5.7559,5.7528,5.7486,5.7412,5.7245,5.6974,5.6688,5.6501,5.6258,5.5984,5.5543,5.5451,5.5367,5.4952,5.4636,5.447,5.4237,5.3653,5.3612,5.3739,5.3873,5.3572,5.3503,5.3341,5.3048,5.2507,5.2205,5.1609,5.0813,5.0397,4.9787,4.9426,4.9294,4.9018,4.9018,4.9018,4.897,4.897,4.8956,4.8987,4.8846,4.8909,4.8726,4.8523,4.8023,4.7558,4.6922,4.631,4.541,4.4567,4.4099,4.3608,4.3331,4.3007,4.2522,4.1933,4.1525,4.1192,4.1158,4.1073,4.0867,4.0696,4.0528,4.0424,4.0355,6.3194,6.2978,6.2959,6.2904,6.283,6.283,6.2823,6.283,6.283,6.2823,6.2855,6.2805,6.283,6.2805,6.2805,6.2805,6.2823,6.2805,6.2688,6.2456,6.1998,6.1979,6.223,6.1741,6.152,6.1465,6.1465,6.097,6.0126,5.9446,5.9074,5.8946,5.8437,5.8015,5.8162,5.818,5.7978,5.8015,5.8052,5.807,5.8052,5.807,5.8052,5.7997,5.7973,5.7973,5.795,5.7909,5.7909,5.7909,5.7909,5.7909,5.7909,5.7927,5.7904,5.7721,5.7412,5.7036,5.6915,5.6758,5.6608,5.6483,5.6394,5.6412,5.6152,5.6071,5.6018,5.6295,5.6107,5.5884,5.5759,5.5829,5.5836,5.5284,5.4613,5.4151,5.3742,5.2847,5.2067,5.1533,5.1081,5.0218,4.9681,4.9294,4.9018,4.9018,4.9001,4.9032,4.9001,4.9032,4.9018,4.9018,4.9018,4.8832,4.8714,4.8298,4.7858,4.7318,4.6524,4.5534,4.5064,4.4599,4.406,4.3698,4.3267,4.2911,4.2553,4.2269,4.2077,4.1851,4.1688,4.1358,4.0974,4.094,4.0974,6.3881,6.3391,6.3359,6.3326,6.3279,6.326,6.326,6.326,6.3242,6.3279,6.3237,6.3165,6.3051,6.2953,6.2904,6.2836,6.2805,6.2805,6.2805,6.2805,6.2481,6.2475,6.2622,6.2475,6.2291,6.2236,6.2273,6.2199,6.1447,6.0548,5.9863,5.9753,5.9111,5.8731,5.8676,5.8694,5.8712,5.8841,5.9061,5.9116,5.8781,5.8657,5.8455,5.8015,5.7997,5.7978,5.7978,5.7978,5.7978,5.7978,5.7978,5.7978,5.7978,5.7978,5.7978,5.7973,5.7792,5.7601,5.748,5.7332,5.7188,5.712,5.7025,5.6948,5.6974,5.6974,5.6974,5.6948,5.6974,5.6992,5.6992,5.6889,5.6785,5.6438,5.5901,5.5628,5.5037,5.4098,5.3329,5.2858,5.237,5.1627,5.0838,5.0354,4.997,4.9577,4.9449,4.932,4.9216,4.9063,4.9032,4.9018,4.9018,4.8968,4.8917,4.87,4.8311,4.7855,4.7618,4.6722,4.6132,4.5622,4.5035,4.4632,4.4319,4.3968,4.3615,4.3185,4.2787,4.2632,4.2475,4.2205,4.1949,4.1884,4.1868,6.4557,6.4052,6.3814,6.3698,6.3691,6.3691,6.3673,6.3673,6.365,6.3673,6.3628,6.3519,6.3359,6.3218,6.3171,6.3123,6.3021,6.3002,6.2978,6.2978,6.2953,6.2941,6.2935,6.2874,6.28,6.2855,6.2695,6.2658,6.2365,6.1704,6.0988,6.0676,5.9905,5.9575,5.952,5.952,5.952,5.9557,5.9979,5.996,5.9551,5.9258,5.8877,5.8455,5.8125,5.7978,5.7978,5.7978,5.7978,5.7978,5.7978,5.7978,5.7978,5.7978,5.7978,5.7978,5.7909,5.7886,5.7768,5.7673,5.7577,5.751,5.7461,5.7437,5.7412,5.7388,5.7388,5.7412,5.7412,5.7412,5.7388,5.7363,5.7289,5.712,5.6843,5.6696,5.6412,5.546,5.4725,5.4254,5.3845,5.346,5.2677,5.1815,5.1087,5.0345,4.9968,4.9713,4.9483,4.932,4.929,4.935,4.935,4.932,4.9243,4.9063,4.8697,4.845,4.8165,4.7784,4.7124,4.6519,4.5942,4.5612,4.5343,4.4985,4.4587,4.4051,4.3502,4.3292,4.3141,4.3141,4.305,4.2927,4.271,6.5131,6.503,6.4445,6.4069,6.3918,6.3875,6.3897,6.3981,6.392,6.392,6.3939,6.3789,6.3727,6.3658,6.3569,6.3538,6.3515,6.3534,6.3492,6.3447,6.3424,6.3336,6.3289,6.3147,6.3026,6.3002,6.2978,6.2923,6.2812,6.269,6.2071,6.1502,6.0737,6.0438,6.0327,6.0327,6.0438,6.0474,6.0731,6.0621,6.0199,5.9813,5.9336,5.9043,5.8455,5.8015,5.7997,5.8015,5.7978,5.7978,5.7978,5.7978,5.7978,5.7978,5.7978,5.7978,5.7978,5.7955,5.7909,5.7909,5.7932,5.795,5.7904,5.7797,5.7792,5.7886,5.7909,5.7839,5.7792,5.7839,5.7839,5.7815,5.7673,5.7559,5.7388,5.722,5.7025,5.6835,5.6131,5.5682,5.5291,5.491,5.4562,5.37,5.2597,5.1833,5.069,5.042,5.0017,4.9837,4.9808,4.9808,4.9808,4.9779,4.9661,4.9465,4.9303,4.9048,4.8784,4.843,4.7941,4.7399,4.6893,4.6523,4.6247,4.5901,4.5505,4.4879,4.4328,4.3931,4.3743,4.3743,4.3638,4.3443,4.3323,6.5494,6.5356,6.5098,6.4862,6.465,6.4631,6.4631,6.465,6.4631,6.4558,6.4445,6.4368,6.425,6.4087,6.3984,6.3878,6.3789,6.3786,6.3808,6.3786,6.3724,6.3658,6.3569,6.3523,6.341,6.3377,6.3307,6.3302,6.3326,6.326,6.3191,6.259,6.1719,6.1269,6.1135,6.122,6.1398,6.1765,6.1777,6.1686,6.1117,6.0878,6.0456,5.9905,5.9148,5.8804,5.8694,5.8235,5.807,5.8038,5.8075,5.8116,5.8153,5.813,5.8075,5.8056,5.8056,5.7978,5.7978,5.7978,5.7978,5.7978,5.7978,5.7978,5.7978,5.7978,5.7978,5.7978,5.7978,5.7978,5.7955,5.7932,5.7904,5.7881,5.7786,5.7625,5.751,5.7338,5.7191,5.6591,5.6527,5.64,5.6046,5.5613,5.446,5.3309,5.2134,5.1116,5.0816,5.0506,5.0523,5.0436,5.0401,5.0307,5.0222,5.008,4.9919,4.9636,4.9365,4.911,4.8787,4.8394,4.7911,4.7515,4.7114,4.6741,4.6259,4.5624,4.5091,4.4548,4.433,4.4224,4.4093,4.3931,4.3814,6.5747,6.5627,6.5627,6.5431,6.5201,6.5185,6.5185,6.5185,6.5169,6.512,6.4968,6.4934,6.4776,6.4539,6.4483,6.4407,6.433,6.4309,6.4271,6.427,6.423,6.4109,6.4027,6.3902,6.3814,6.3764,6.3695,6.3691,6.3673,6.3673,6.3617,6.3319,6.284,6.2405,6.2227,6.224,6.2516,6.2898,6.2971,6.2824,6.2245,6.1895,6.1637,6.0937,6.0259,5.9854,5.9595,5.9212,5.8954,5.8913,5.8868,5.8753,5.8708,5.8626,5.8451,5.8336,5.8166,5.8038,5.7997,5.7978,5.7978,5.7978,5.7978,5.7978,5.7978,5.7997,5.7978,5.7978,5.7978,5.7978,5.7978,5.7978,5.7955,5.795,5.7927,5.7792,5.7768,5.7673,5.7625,5.7413,5.7413,5.7334,5.7164,5.6649,5.5562,5.4481,5.3562,5.2555,5.1953,5.1644,5.1405,5.1238,5.1052,5.0937,5.0776,5.0741,5.0642,5.03,5.0083,4.9993,4.97,4.9292,4.9022,4.8776,4.8305,4.7653,4.7186,4.6749,4.5943,4.5111,4.4818,4.4541,4.4412,4.4236,4.4224,6.5897,6.5878,6.5865,6.5688,6.5425,6.5394,6.5409,6.5425,6.5409,6.5394,6.5345,6.5264,6.5182,6.5098,6.5016,6.4949,6.4951,6.4968,6.4968,6.4917,6.4795,6.474,6.4614,6.4445,6.429,6.415,6.4128,6.4067,6.4002,6.4046,6.4004,6.4023,6.3776,6.3544,6.355,6.3523,6.3561,6.3579,6.3557,6.3441,6.3255,6.2777,6.2443,6.2146,6.1456,6.101,6.0825,6.0212,6.0064,6.0324,5.9943,5.9974,6.0378,5.9778,5.9485,5.9384,5.8667,5.8267,5.8134,5.8075,5.8226,5.8221,5.8272,5.8272,5.8143,5.8088,5.8162,5.829,5.807,5.7997,5.7978,5.7978,5.7978,5.7978,5.7973,5.795,5.7909,5.7886,5.7839,5.7792,5.7886,5.7932,5.7886,5.7536,5.6527,5.5589,5.4863,5.4078,5.3293,5.2677,5.2337,5.208,5.184,5.1569,5.1493,5.15,5.1373,5.0999,5.0758,5.0704,5.0567,5.0258,5.0049,4.994,4.9487,4.8849,4.838,4.7968,4.7033,4.6102,4.5145,4.4756,4.4654,4.4525,4.4468,6.5878,6.5878,6.5878,6.5827,6.5747,6.5747,6.5734,6.5747,6.5715,6.5688,6.5665,6.5604,6.5513,6.5416,6.5371,6.5341,6.5298,6.5318,6.5318,6.5283,6.5201,6.5153,6.5035,6.4932,6.481,6.4794,6.4705,6.465,6.4723,6.4631,6.4687,6.4705,6.4577,6.4349,6.3963,6.3808,6.3808,6.3808,6.3808,6.3789,6.3771,6.3531,6.3366,6.335,6.2585,6.2251,6.2176,6.147,6.1302,6.1543,6.109,6.1139,6.1356,6.0778,6.0639,6.0537,6.0041,6.0078,6.006,6.0019,5.9622,5.9187,5.8846,5.9071,5.9428,5.9024,5.8896,5.8694,5.8419,5.8253,5.7978,5.8015,5.8015,5.7978,5.7978,5.7978,5.7955,5.7955,5.7932,5.7932,5.7978,5.7978,5.7955,5.795,5.716,5.6708,5.6073,5.5305,5.4526,5.3701,5.3171,5.2919,5.2642,5.2336,5.215,5.2264,5.2102,5.1683,5.1551,5.15,5.1304,5.107,5.0867,5.0618,5.035,5.0045,4.9587,4.9021,4.8092,4.7163,4.6316,4.5399,4.5015,4.4801,4.4587,6.5878,6.5878,6.5878,6.5878,6.5878,6.5878,6.5878,6.5878,6.5878,6.5872,6.5833,6.5833,6.5761,6.5655,6.5627,6.5613,6.5576,6.5576,6.5576,6.5576,6.5547,6.5484,6.542,6.5341,6.5229,6.5248,6.5217,6.5204,6.5136,6.5185,6.5169,6.5153,6.5185,6.4898,6.4558,6.4445,6.4349,6.4368,6.4388,6.4368,6.4368,6.4311,6.4292,6.418,6.3841,6.3558,6.3313,6.2899,6.241,6.2523,6.2447,6.2351,6.2329,6.2114,6.1919,6.1761,6.1358,6.1284,6.1092,6.1092,6.0738,6.0633,6.0116,6.0052,6.0331,5.9921,5.9751,5.947,5.9048,5.8919,5.8814,5.8754,5.874,5.874,5.8538,5.8575,5.8368,5.8387,5.8056,5.8015,5.7978,5.7978,5.7978,5.7978,5.7725,5.7509,5.7274,5.651,5.5723,5.4992,5.4304,5.4031,5.3795,5.3576,5.3317,5.3126,5.2852,5.2421,5.234,5.2324,5.1946,5.1683,5.1508,5.1373,5.1189,5.0963,5.069,5.0097,4.9286,4.8481,4.772,4.6736,4.5665,4.5343,4.5269,6.5878,6.5878,6.5878,6.5878,6.5878,6.5878,6.5878,6.5878,6.5878,6.5897,6.5878,6.5878,6.5853,6.5865,6.5865,6.5853,6.584,6.584,6.584,6.5846,6.578,6.5747,6.5707,6.5618,6.5537,6.5494,6.5484,6.5469,6.5425,6.5435,6.5454,6.544,6.5454,6.5345,6.5232,6.5134,6.5016,6.4949,6.4915,6.4915,6.4898,6.4966,6.4932,6.4856,6.478,6.474,6.4531,6.4168,6.4242,6.4263,6.412,6.4241,6.41,6.3653,6.3294,6.2858,6.2196,6.2046,6.197,6.2103,6.223,6.2332,6.1805,6.1241,6.0919,6.0965,6.0734,6.0558,6.0259,6.0286,6.0257,6.0226,6.017,5.9931,5.9577,5.9352,5.9029,5.8736,5.8258,5.8093,5.7997,5.7978,5.7978,5.7978,5.7978,5.7882,5.7647,5.7427,5.6754,5.6429,5.5798,5.54,5.5143,5.4928,5.4609,5.4168,5.394,5.3631,5.3349,5.3258,5.2793,5.2532,5.2438,5.2354,5.2102,5.1824,5.1404,5.1033,5.0585,4.9828,4.9193,4.8052,4.6983,4.6658,4.6567,6.5878,6.5878,6.5878,6.5878,6.5878,6.5878,6.5878,6.5878,6.5878,6.5878,6.5878,6.5878,6.5878,6.5878,6.5878,6.5878,6.5878,6.5878,6.5878,6.5885,6.5872,6.5872,6.5827,6.5801,6.5768,6.5755,6.5742,6.572,6.5728,6.5728,6.5728,6.5761,6.572,6.5734,6.5701,6.5668,6.5494,6.5375,6.5329,6.5329,6.5329,6.5329,6.5329,6.5329,6.5329,6.5329,6.5177,6.5062,6.5119,6.507,6.5019,6.5067,6.4897,6.4736,6.4554,6.4486,6.4205,6.4092,6.4037,6.4018,6.4005,6.401,6.3691,6.3413,6.2891,6.2276,6.1893,6.1692,6.1407,6.131,6.1273,6.1254,6.125,6.1043,6.0687,6.0305,5.9946,5.9449,5.8947,5.83,5.8226,5.7978,5.7978,5.7978,5.7978,5.7978,5.7923,5.7795,5.7611,5.7226,5.6969,5.6528,5.6161,5.5845,5.5533,5.5115,5.5005,5.4877,5.4499,5.4267,5.4214,5.3954,5.3636,5.3199,5.2739,5.2358,5.2042,5.1692,5.138,5.13,5.0687,4.946,4.8462,4.8145,4.7825,6.5878,6.5878,6.5878,6.5878,6.5878,6.5878,6.5878,6.5878,6.5878,6.5878,6.5878,6.5878,6.5878,6.5878,6.5878,6.5878,6.5878,6.5878,6.5878,6.5878,6.5878,6.5878,6.5878,6.5878,6.5865,6.5878,6.5878,6.5853,6.5878,6.5878,6.5878,6.5865,6.5878,6.5878,6.5865,6.5827,6.5787,6.566,6.5604,6.5604,6.559,6.559,6.5585,6.5571,6.559,6.559,6.5571,6.5571,6.5571,6.559,6.559,6.5532,6.542,6.5352,6.526,6.5124,6.507,6.4997,6.4962,6.5016,6.5079,6.5052,6.4985,6.4682,6.4199,6.3566,6.3227,6.2901,6.2547,6.2287,6.2249,6.2212,6.2206,6.2181,6.1741,6.1282,6.08,6.0299,5.9577,5.8754,5.8355,5.8093,5.7978,5.802,5.7978,5.7978,5.7978,5.7941,5.785,5.7666,5.7519,5.7299,5.695,5.6638,5.6326,5.6014,5.5827,5.5603,5.5255,5.5155,5.5375,5.5147,5.4582,5.389,5.3217,5.2936,5.2712,5.2421,5.2149,5.2078,5.1927,5.1016,5.0134,4.9686,4.9338,6.5878,6.5878,6.5878,6.5878,6.5878,6.5878,6.5878,6.5878,6.5878,6.5878,6.5878,6.5878,6.5878,6.5878,6.5878,6.5878,6.5878,6.5878,6.5878,6.5878,6.5878,6.5878,6.5878,6.5878,6.5878,6.5878,6.5878,6.5878,6.5878,6.5878,6.5878,6.5878,6.5878,6.5878,6.5878,6.5878,6.5853,6.5827,6.5801,6.5814,6.584,6.5865,6.5878,6.5865,6.5853,6.5853,6.5865,6.5865,6.5878,6.5872,6.5846,6.5793,6.572,6.5646,6.5528,6.5484,6.545,6.5469,6.5469,6.5469,6.5454,6.5394,6.5329,6.5198,6.4837,6.4444,6.4085,6.395,6.3611,6.3555,6.3536,6.3536,6.3534,6.3398,6.3074,6.2498,6.188,6.1246,6.0378,5.969,5.9341,5.9042,5.8614,5.8696,5.8511,5.8266,5.8115,5.8138,5.8092,5.8037,5.7955,5.7918,5.7574,5.7226,5.7097,5.6804,5.6547,5.629,5.6051,5.6088,5.6355,5.5974,5.5409,5.4748,5.4107,5.3727,5.346,5.3239,5.3058,5.2835,5.2643,5.2333,5.1796,5.1175,5.0751,6.5878,6.5878,6.5878,6.5878,6.5878,6.5878,6.5878,6.5878,6.5878,6.5878,6.5878,6.5878,6.5878,6.5878,6.5878,6.5878,6.5878,6.5878,6.5878,6.5878,6.5878,6.5878,6.5878,6.5878,6.5878,6.5878,6.5878,6.5878,6.5878,6.5878,6.5878,6.5878,6.5878,6.5878,6.5878,6.5878,6.5878,6.5878,6.5878,6.5878,6.5878,6.5878,6.5878,6.5878,6.5878,6.5878,6.5878,6.5878,6.5878,6.5885,6.5885,6.5872,6.5872,6.5814,6.5801,6.5787,6.5728,6.5734,6.5734,6.572,6.5707,6.5693,6.5632,6.5542,6.5356,6.5068,6.4863,6.4811,6.4776,6.4776,6.4758,6.474,6.4723,6.4518,6.4294,6.3632,6.2946,6.2083,6.1199,6.0812,6.0484,6.0033,5.9566,5.9289,5.9051,5.8847,5.8643,5.8548,5.8517,5.8455,5.8268,5.8205,5.8006,5.7762,5.7629,5.7501,5.7207,5.7244,5.7152,5.7226,5.7299,5.6657,5.6014,5.5611,5.513,5.4686,5.4353,5.4298,5.4082,5.3788,5.3466,5.3204,5.2804,5.2233,5.1946,6.5878,6.5878,6.5878,6.5878,6.5878,6.5878,6.5878,6.5878,6.5878,6.5878,6.5878,6.5878,6.5878,6.5878,6.5878,6.5878,6.5878,6.5878,6.5878,6.5878,6.5878,6.5878,6.5878,6.5878,6.5878,6.5878,6.5878,6.5878,6.5878,6.5878,6.5878,6.5878,6.5878,6.5878,6.5878,6.5878,6.5878,6.5878,6.5878,6.5878,6.5878,6.5878,6.5878,6.5878,6.5878,6.5878,6.5878,6.5878,6.5878,6.5878,6.5897,6.5897,6.5897,6.5865,6.5878,6.5865,6.5865,6.5878,6.5878,6.5897,6.5885,6.5846,6.5833,6.5715,6.5734,6.545,6.5295,6.5248,6.5153,6.512,6.512,6.512,6.5104,6.4978,6.482,6.4416,6.3729,6.297,6.2379,6.2033,6.1556,6.0909,6.0592,6.0555,6.035,6.0334,5.998,5.9573,5.9417,5.9208,5.8929,5.8591,5.8482,5.8148,5.7868,5.7831,5.7776,5.7905,5.8024,5.785,5.7593,5.7116,5.6602,5.6271,5.5904,5.5464,5.5225,5.517,5.5078,5.4803,5.4452,5.4118,5.3701,5.332,5.3067,6.5878,6.5878,6.5878,6.5878,6.5878,6.5878,6.5878,6.5878,6.5878,6.5878,6.5878,6.5878,6.5878,6.5878,6.5878,6.5878,6.5878,6.5878,6.5878,6.5878,6.5878,6.5878,6.5878,6.5878,6.5878,6.5878,6.5878,6.5878,6.5878,6.5878,6.5878,6.5878,6.5878,6.5878,6.5878,6.5878,6.5878,6.5878,6.5878,6.5878,6.5878,6.5878,6.5878,6.5878,6.5878,6.5878,6.5878,6.5878,6.5878,6.5878,6.5878,6.5878,6.5878,6.5878,6.5878,6.5878,6.5878,6.5878,6.5878,6.5878,6.5897,6.5878,6.5878,6.5897,6.5885,6.5814,6.566,6.5571,6.5484,6.5454,6.5454,6.5454,6.5454,6.5409,6.526,6.5147,6.4448,6.3878,6.3559,6.3219,6.2728,6.2047,6.1821,6.1783,6.1727,6.1707,6.1501,6.1088,6.0732,6.0471,6.0187,5.9612,5.9185,5.8804,5.8256,5.8115,5.816,5.8115,5.8138,5.8065,5.7905,5.7501,5.7207,5.7005,5.662,5.6363,5.6106,5.5978,5.5868,5.5739,5.5222,5.4814,5.4682,5.4323,5.4129,6.5878,6.5878,6.5878,6.5878,6.5878,6.5878,6.5878,6.5878,6.5878,6.5878,6.5878,6.5878,6.5878,6.5878,6.5878,6.5878,6.5878,6.5878,6.5878,6.5878,6.5878,6.5878,6.5878,6.5878,6.5878,6.5878,6.5878,6.5878,6.5878,6.5878,6.5878,6.5878,6.5878,6.5878,6.5878,6.5878,6.5878,6.5878,6.5878,6.5878,6.5878,6.5878,6.5878,6.5878,6.5878,6.5878,6.5878,6.5878,6.5878,6.5878,6.5878,6.5878,6.5878,6.5878,6.5878,6.5878,6.5878,6.5878,6.5878,6.5878,6.5878,6.5878,6.5878,6.5878,6.5897,6.5897,6.5801,6.5801,6.5728,6.5728,6.5728,6.5728,6.5728,6.5646,6.5523,6.542,6.5061,6.4837,6.4643,6.4499,6.4315,6.3732,6.3279,6.3185,6.2976,6.29,6.2654,6.2296,6.1987,6.1726,6.1446,6.0755,6.0115,5.937,5.8786,5.8486,5.8446,5.8359,5.829,5.8223,5.8133,5.7983,5.7721,5.7528,5.7579,5.7487,5.723,5.6748,5.6675,5.6473,5.5849,5.5445,5.5372,5.528,5.506]}]]